<?xml version="1.0" encoding="UTF-8" standalone="no" ?>
<gpx xmlns="http://www.topografix.com/GPX/1/1" xmlns:xsi="http://www.w3.org/2001/XMLSchema-instance" xsi:schemaLocation="http://www.topografix.com/GPX/1/1 http://www.topografix.com/GPX/1/1/gpx.xsd" version="1.1" creator="VisuGPX - https://www.visugpx.com">
  <metadata>
    <name>Rando Vue 21.06.15</name>
    <desc><![CDATA[Rando des Cigognes - 40km]]></desc>
  </metadata>
  <trk>
    <name><![CDATA[Sequence 1]]></name>
    <trkseg>
      <trkpt lat="47.17755" lon="-1.9167">
        <ele>43</ele>
        <time>2015-06-21T07:17:46Z</time>
      </trkpt>
      <trkpt lat="47.17755" lon="-1.9167">
        <ele>43</ele>
        <time>2015-06-21T07:17:51Z</time>
      </trkpt>
      <trkpt lat="47.17197" lon="-1.90966">
        <ele>55</ele>
        <time>2015-06-21T07:21:43Z</time>
      </trkpt>
      <trkpt lat="47.17211" lon="-1.90939">
        <ele>55</ele>
        <time>2015-06-21T07:21:47Z</time>
      </trkpt>
      <trkpt lat="47.17215" lon="-1.90926">
        <ele>55</ele>
        <time>2015-06-21T07:21:49Z</time>
      </trkpt>
      <trkpt lat="47.17223" lon="-1.90894">
        <ele>55</ele>
        <time>2015-06-21T07:21:54Z</time>
      </trkpt>
      <trkpt lat="47.17237" lon="-1.90864">
        <ele>56</ele>
        <time>2015-06-21T07:22:01Z</time>
      </trkpt>
      <trkpt lat="47.17245" lon="-1.90839">
        <ele>56</ele>
        <time>2015-06-21T07:22:06Z</time>
      </trkpt>
      <trkpt lat="47.17253" lon="-1.9081">
        <ele>56</ele>
        <time>2015-06-21T07:22:11Z</time>
      </trkpt>
      <trkpt lat="47.17257" lon="-1.90792">
        <ele>56</ele>
        <time>2015-06-21T07:22:14Z</time>
      </trkpt>
      <trkpt lat="47.17263" lon="-1.90736">
        <ele>56</ele>
        <time>2015-06-21T07:22:21Z</time>
      </trkpt>
      <trkpt lat="47.17265" lon="-1.90715">
        <ele>56</ele>
        <time>2015-06-21T07:22:24Z</time>
      </trkpt>
      <trkpt lat="47.17268" lon="-1.90676">
        <ele>56</ele>
        <time>2015-06-21T07:22:29Z</time>
      </trkpt>
      <trkpt lat="47.17272" lon="-1.90612">
        <ele>56</ele>
        <time>2015-06-21T07:22:37Z</time>
      </trkpt>
      <trkpt lat="47.17272" lon="-1.90595">
        <ele>56</ele>
        <time>2015-06-21T07:22:39Z</time>
      </trkpt>
      <trkpt lat="47.17276" lon="-1.90553">
        <ele>56</ele>
        <time>2015-06-21T07:22:44Z</time>
      </trkpt>
      <trkpt lat="47.17278" lon="-1.90518">
        <ele>56</ele>
        <time>2015-06-21T07:22:49Z</time>
      </trkpt>
      <trkpt lat="47.17282" lon="-1.90484">
        <ele>56</ele>
        <time>2015-06-21T07:22:54Z</time>
      </trkpt>
      <trkpt lat="47.17284" lon="-1.90427">
        <ele>56</ele>
        <time>2015-06-21T07:23:01Z</time>
      </trkpt>
      <trkpt lat="47.17285" lon="-1.90408">
        <ele>56</ele>
        <time>2015-06-21T07:23:04Z</time>
      </trkpt>
      <trkpt lat="47.17295" lon="-1.90366">
        <ele>55</ele>
        <time>2015-06-21T07:23:10Z</time>
      </trkpt>
      <trkpt lat="47.17308" lon="-1.90311">
        <ele>55</ele>
        <time>2015-06-21T07:23:17Z</time>
      </trkpt>
      <trkpt lat="47.17315" lon="-1.90291">
        <ele>55</ele>
        <time>2015-06-21T07:23:20Z</time>
      </trkpt>
      <trkpt lat="47.17329" lon="-1.90242">
        <ele>55</ele>
        <time>2015-06-21T07:23:27Z</time>
      </trkpt>
      <trkpt lat="47.17334" lon="-1.90227">
        <ele>55</ele>
        <time>2015-06-21T07:23:30Z</time>
      </trkpt>
      <trkpt lat="47.17344" lon="-1.90199">
        <ele>55</ele>
        <time>2015-06-21T07:23:35Z</time>
      </trkpt>
      <trkpt lat="47.17368" lon="-1.90198">
        <ele>55</ele>
        <time>2015-06-21T07:23:40Z</time>
      </trkpt>
      <trkpt lat="47.17397" lon="-1.90203">
        <ele>55</ele>
        <time>2015-06-21T07:23:45Z</time>
      </trkpt>
      <trkpt lat="47.17442" lon="-1.90218">
        <ele>56</ele>
        <time>2015-06-21T07:23:53Z</time>
      </trkpt>
      <trkpt lat="47.17463" lon="-1.90223">
        <ele>56</ele>
        <time>2015-06-21T07:23:57Z</time>
      </trkpt>
      <trkpt lat="47.17492" lon="-1.90234">
        <ele>56</ele>
        <time>2015-06-21T07:24:03Z</time>
      </trkpt>
      <trkpt lat="47.1751" lon="-1.90247">
        <ele>56</ele>
        <time>2015-06-21T07:24:07Z</time>
      </trkpt>
      <trkpt lat="47.17521" lon="-1.90256">
        <ele>56</ele>
        <time>2015-06-21T07:24:10Z</time>
      </trkpt>
      <trkpt lat="47.1757" lon="-1.90271">
        <ele>55</ele>
        <time>2015-06-21T07:24:19Z</time>
      </trkpt>
      <trkpt lat="47.17598" lon="-1.90295">
        <ele>54</ele>
        <time>2015-06-21T07:24:23Z</time>
      </trkpt>
      <trkpt lat="47.17608" lon="-1.90312">
        <ele>53</ele>
        <time>2015-06-21T07:24:25Z</time>
      </trkpt>
      <trkpt lat="47.17662" lon="-1.90349">
        <ele>51</ele>
        <time>2015-06-21T07:24:33Z</time>
      </trkpt>
      <trkpt lat="47.17678" lon="-1.90349">
        <ele>51</ele>
        <time>2015-06-21T07:24:35Z</time>
      </trkpt>
      <trkpt lat="47.17727" lon="-1.90347">
        <ele>50</ele>
        <time>2015-06-21T07:24:42Z</time>
      </trkpt>
      <trkpt lat="47.17745" lon="-1.90348">
        <ele>49</ele>
        <time>2015-06-21T07:24:45Z</time>
      </trkpt>
      <trkpt lat="47.17778" lon="-1.9035">
        <ele>50</ele>
        <time>2015-06-21T07:24:50Z</time>
      </trkpt>
      <trkpt lat="47.17824" lon="-1.90343">
        <ele>51</ele>
        <time>2015-06-21T07:24:59Z</time>
      </trkpt>
      <trkpt lat="47.17829" lon="-1.90333">
        <ele>52</ele>
        <time>2015-06-21T07:25:00Z</time>
      </trkpt>
      <trkpt lat="47.17844" lon="-1.90292">
        <ele>53</ele>
        <time>2015-06-21T07:25:06Z</time>
      </trkpt>
      <trkpt lat="47.1785" lon="-1.90267">
        <ele>53</ele>
        <time>2015-06-21T07:25:10Z</time>
      </trkpt>
      <trkpt lat="47.17859" lon="-1.902">
        <ele>54</ele>
        <time>2015-06-21T07:25:19Z</time>
      </trkpt>
      <trkpt lat="47.1786" lon="-1.90193">
        <ele>54</ele>
        <time>2015-06-21T07:25:20Z</time>
      </trkpt>
      <trkpt lat="47.17871" lon="-1.90132">
        <ele>55</ele>
        <time>2015-06-21T07:25:29Z</time>
      </trkpt>
      <trkpt lat="47.1787" lon="-1.90128">
        <ele>55</ele>
        <time>2015-06-21T07:25:30Z</time>
      </trkpt>
      <trkpt lat="47.17851" lon="-1.90114">
        <ele>55</ele>
        <time>2015-06-21T07:25:35Z</time>
      </trkpt>
      <trkpt lat="47.1781" lon="-1.9009">
        <ele>56</ele>
        <time>2015-06-21T07:25:43Z</time>
      </trkpt>
      <trkpt lat="47.17801" lon="-1.90087">
        <ele>56</ele>
        <time>2015-06-21T07:25:45Z</time>
      </trkpt>
      <trkpt lat="47.1777" lon="-1.90071">
        <ele>56</ele>
        <time>2015-06-21T07:25:53Z</time>
      </trkpt>
      <trkpt lat="47.17766" lon="-1.90065">
        <ele>56</ele>
        <time>2015-06-21T07:25:55Z</time>
      </trkpt>
      <trkpt lat="47.1777" lon="-1.90042">
        <ele>56</ele>
        <time>2015-06-21T07:26:00Z</time>
      </trkpt>
      <trkpt lat="47.17809" lon="-1.90001">
        <ele>56</ele>
        <time>2015-06-21T07:26:09Z</time>
      </trkpt>
      <trkpt lat="47.17831" lon="-1.8998">
        <ele>56</ele>
        <time>2015-06-21T07:26:14Z</time>
      </trkpt>
      <trkpt lat="47.17836" lon="-1.89974">
        <ele>56</ele>
        <time>2015-06-21T07:26:15Z</time>
      </trkpt>
      <trkpt lat="47.17875" lon="-1.89939">
        <ele>55</ele>
        <time>2015-06-21T07:26:23Z</time>
      </trkpt>
      <trkpt lat="47.17886" lon="-1.89931">
        <ele>54</ele>
        <time>2015-06-21T07:26:25Z</time>
      </trkpt>
      <trkpt lat="47.17913" lon="-1.89906">
        <ele>53</ele>
        <time>2015-06-21T07:26:30Z</time>
      </trkpt>
      <trkpt lat="47.17943" lon="-1.89881">
        <ele>52</ele>
        <time>2015-06-21T07:26:35Z</time>
      </trkpt>
      <trkpt lat="47.17985" lon="-1.89839">
        <ele>50</ele>
        <time>2015-06-21T07:26:41Z</time>
      </trkpt>
      <trkpt lat="47.18055" lon="-1.89777">
        <ele>45</ele>
        <time>2015-06-21T07:26:50Z</time>
      </trkpt>
      <trkpt lat="47.18077" lon="-1.89754">
        <ele>44</ele>
        <time>2015-06-21T07:26:53Z</time>
      </trkpt>
      <trkpt lat="47.18101" lon="-1.89733">
        <ele>44</ele>
        <time>2015-06-21T07:26:56Z</time>
      </trkpt>
      <trkpt lat="47.18144" lon="-1.89689">
        <ele>45</ele>
        <time>2015-06-21T07:27:02Z</time>
      </trkpt>
      <trkpt lat="47.1817" lon="-1.89654">
        <ele>45</ele>
        <time>2015-06-21T07:27:07Z</time>
      </trkpt>
      <trkpt lat="47.18203" lon="-1.89608">
        <ele>43</ele>
        <time>2015-06-21T07:27:12Z</time>
      </trkpt>
      <trkpt lat="47.18232" lon="-1.89582">
        <ele>43</ele>
        <time>2015-06-21T07:27:16Z</time>
      </trkpt>
      <trkpt lat="47.18264" lon="-1.89561">
        <ele>42</ele>
        <time>2015-06-21T07:27:21Z</time>
      </trkpt>
      <trkpt lat="47.18301" lon="-1.89541">
        <ele>39</ele>
        <time>2015-06-21T07:27:26Z</time>
      </trkpt>
      <trkpt lat="47.18373" lon="-1.89494">
        <ele>35</ele>
        <time>2015-06-21T07:27:34Z</time>
      </trkpt>
      <trkpt lat="47.18412" lon="-1.89463">
        <ele>34</ele>
        <time>2015-06-21T07:27:39Z</time>
      </trkpt>
      <trkpt lat="47.18445" lon="-1.89439">
        <ele>34</ele>
        <time>2015-06-21T07:27:44Z</time>
      </trkpt>
      <trkpt lat="47.18459" lon="-1.89427">
        <ele>33</ele>
        <time>2015-06-21T07:27:46Z</time>
      </trkpt>
      <trkpt lat="47.18493" lon="-1.894">
        <ele>32</ele>
        <time>2015-06-21T07:27:51Z</time>
      </trkpt>
      <trkpt lat="47.18528" lon="-1.89375">
        <ele>30</ele>
        <time>2015-06-21T07:27:56Z</time>
      </trkpt>
      <trkpt lat="47.1857" lon="-1.89343">
        <ele>28</ele>
        <time>2015-06-21T07:28:02Z</time>
      </trkpt>
      <trkpt lat="47.18597" lon="-1.89325">
        <ele>27</ele>
        <time>2015-06-21T07:28:06Z</time>
      </trkpt>
      <trkpt lat="47.18635" lon="-1.89294">
        <ele>26</ele>
        <time>2015-06-21T07:28:12Z</time>
      </trkpt>
      <trkpt lat="47.18662" lon="-1.89278">
        <ele>25</ele>
        <time>2015-06-21T07:28:16Z</time>
      </trkpt>
      <trkpt lat="47.18701" lon="-1.89258">
        <ele>24</ele>
        <time>2015-06-21T07:28:22Z</time>
      </trkpt>
      <trkpt lat="47.1873" lon="-1.89244">
        <ele>22</ele>
        <time>2015-06-21T07:28:26Z</time>
      </trkpt>
      <trkpt lat="47.18765" lon="-1.89226">
        <ele>21</ele>
        <time>2015-06-21T07:28:31Z</time>
      </trkpt>
      <trkpt lat="47.18828" lon="-1.89195">
        <ele>19</ele>
        <time>2015-06-21T07:28:39Z</time>
      </trkpt>
      <trkpt lat="47.18844" lon="-1.89185">
        <ele>18</ele>
        <time>2015-06-21T07:28:41Z</time>
      </trkpt>
      <trkpt lat="47.18908" lon="-1.89151">
        <ele>16</ele>
        <time>2015-06-21T07:28:49Z</time>
      </trkpt>
      <trkpt lat="47.18923" lon="-1.89144">
        <ele>15</ele>
        <time>2015-06-21T07:28:51Z</time>
      </trkpt>
      <trkpt lat="47.18961" lon="-1.89123">
        <ele>15</ele>
        <time>2015-06-21T07:28:56Z</time>
      </trkpt>
      <trkpt lat="47.18996" lon="-1.89106">
        <ele>14</ele>
        <time>2015-06-21T07:29:01Z</time>
      </trkpt>
      <trkpt lat="47.1903" lon="-1.8909">
        <ele>14</ele>
        <time>2015-06-21T07:29:06Z</time>
      </trkpt>
      <trkpt lat="47.19055" lon="-1.89074">
        <ele>13</ele>
        <time>2015-06-21T07:29:12Z</time>
      </trkpt>
      <trkpt lat="47.19045" lon="-1.89055">
        <ele>13</ele>
        <time>2015-06-21T07:29:17Z</time>
      </trkpt>
      <trkpt lat="47.1903" lon="-1.89017">
        <ele>13</ele>
        <time>2015-06-21T07:29:24Z</time>
      </trkpt>
      <trkpt lat="47.19029" lon="-1.89004">
        <ele>13</ele>
        <time>2015-06-21T07:29:26Z</time>
      </trkpt>
      <trkpt lat="47.19029" lon="-1.89">
        <ele>13</ele>
        <time>2015-06-21T07:29:32Z</time>
      </trkpt>
      <trkpt lat="47.19034" lon="-1.89002">
        <ele>13</ele>
        <time>2015-06-21T07:29:37Z</time>
      </trkpt>
      <trkpt lat="47.19054" lon="-1.88992">
        <ele>12</ele>
        <time>2015-06-21T07:29:45Z</time>
      </trkpt>
      <trkpt lat="47.1906" lon="-1.88994">
        <ele>12</ele>
        <time>2015-06-21T07:29:47Z</time>
      </trkpt>
      <trkpt lat="47.19077" lon="-1.88989">
        <ele>12</ele>
        <time>2015-06-21T07:29:55Z</time>
      </trkpt>
      <trkpt lat="47.19082" lon="-1.8898">
        <ele>12</ele>
        <time>2015-06-21T07:29:58Z</time>
      </trkpt>
      <trkpt lat="47.1909" lon="-1.88965">
        <ele>12</ele>
        <time>2015-06-21T07:30:03Z</time>
      </trkpt>
      <trkpt lat="47.19095" lon="-1.88953">
        <ele>12</ele>
        <time>2015-06-21T07:30:06Z</time>
      </trkpt>
      <trkpt lat="47.19108" lon="-1.88941">
        <ele>12</ele>
        <time>2015-06-21T07:30:12Z</time>
      </trkpt>
      <trkpt lat="47.19119" lon="-1.88931">
        <ele>11</ele>
        <time>2015-06-21T07:30:18Z</time>
      </trkpt>
      <trkpt lat="47.19123" lon="-1.8893">
        <ele>11</ele>
        <time>2015-06-21T07:30:21Z</time>
      </trkpt>
      <trkpt lat="47.19139" lon="-1.88915">
        <ele>11</ele>
        <time>2015-06-21T07:30:28Z</time>
      </trkpt>
      <trkpt lat="47.19148" lon="-1.88895">
        <ele>11</ele>
        <time>2015-06-21T07:30:33Z</time>
      </trkpt>
      <trkpt lat="47.19146" lon="-1.88885">
        <ele>11</ele>
        <time>2015-06-21T07:30:37Z</time>
      </trkpt>
      <trkpt lat="47.19139" lon="-1.88881">
        <ele>11</ele>
        <time>2015-06-21T07:30:41Z</time>
      </trkpt>
      <trkpt lat="47.19124" lon="-1.88874">
        <ele>10</ele>
        <time>2015-06-21T07:30:48Z</time>
      </trkpt>
      <trkpt lat="47.19115" lon="-1.88869">
        <ele>10</ele>
        <time>2015-06-21T07:30:51Z</time>
      </trkpt>
      <trkpt lat="47.19098" lon="-1.88857">
        <ele>10</ele>
        <time>2015-06-21T07:30:59Z</time>
      </trkpt>
      <trkpt lat="47.19093" lon="-1.88856">
        <ele>10</ele>
        <time>2015-06-21T07:31:01Z</time>
      </trkpt>
      <trkpt lat="47.19085" lon="-1.88848">
        <ele>10</ele>
        <time>2015-06-21T07:31:06Z</time>
      </trkpt>
      <trkpt lat="47.19089" lon="-1.8882">
        <ele>10</ele>
        <time>2015-06-21T07:31:13Z</time>
      </trkpt>
      <trkpt lat="47.19087" lon="-1.88798">
        <ele>9</ele>
        <time>2015-06-21T07:31:18Z</time>
      </trkpt>
      <trkpt lat="47.19107" lon="-1.8879">
        <ele>9</ele>
        <time>2015-06-21T07:31:25Z</time>
      </trkpt>
      <trkpt lat="47.19111" lon="-1.88786">
        <ele>9</ele>
        <time>2015-06-21T07:31:26Z</time>
      </trkpt>
      <trkpt lat="47.1912" lon="-1.88776">
        <ele>9</ele>
        <time>2015-06-21T07:31:31Z</time>
      </trkpt>
      <trkpt lat="47.19141" lon="-1.88771">
        <ele>9</ele>
        <time>2015-06-21T07:31:39Z</time>
      </trkpt>
      <trkpt lat="47.19145" lon="-1.88771">
        <ele>10</ele>
        <time>2015-06-21T07:31:41Z</time>
      </trkpt>
      <trkpt lat="47.19151" lon="-1.88771">
        <ele>10</ele>
        <time>2015-06-21T07:31:47Z</time>
      </trkpt>
      <trkpt lat="47.19159" lon="-1.88777">
        <ele>10</ele>
        <time>2015-06-21T07:31:53Z</time>
      </trkpt>
      <trkpt lat="47.19163" lon="-1.8878">
        <ele>10</ele>
        <time>2015-06-21T07:31:56Z</time>
      </trkpt>
      <trkpt lat="47.19174" lon="-1.88778">
        <ele>10</ele>
        <time>2015-06-21T07:32:02Z</time>
      </trkpt>
      <trkpt lat="47.19191" lon="-1.88769">
        <ele>11</ele>
        <time>2015-06-21T07:32:09Z</time>
      </trkpt>
      <trkpt lat="47.19193" lon="-1.88764">
        <ele>11</ele>
        <time>2015-06-21T07:32:11Z</time>
      </trkpt>
      <trkpt lat="47.19202" lon="-1.88756">
        <ele>11</ele>
        <time>2015-06-21T07:32:17Z</time>
      </trkpt>
      <trkpt lat="47.19211" lon="-1.88757">
        <ele>12</ele>
        <time>2015-06-21T07:32:22Z</time>
      </trkpt>
      <trkpt lat="47.19219" lon="-1.88758">
        <ele>12</ele>
        <time>2015-06-21T07:32:26Z</time>
      </trkpt>
      <trkpt lat="47.19234" lon="-1.88742">
        <ele>13</ele>
        <time>2015-06-21T07:32:34Z</time>
      </trkpt>
      <trkpt lat="47.19235" lon="-1.88735">
        <ele>13</ele>
        <time>2015-06-21T07:32:36Z</time>
      </trkpt>
      <trkpt lat="47.19237" lon="-1.8872">
        <ele>13</ele>
        <time>2015-06-21T07:32:42Z</time>
      </trkpt>
      <trkpt lat="47.19242" lon="-1.88707">
        <ele>12</ele>
        <time>2015-06-21T07:32:46Z</time>
      </trkpt>
      <trkpt lat="47.19251" lon="-1.88678">
        <ele>12</ele>
        <time>2015-06-21T07:32:53Z</time>
      </trkpt>
      <trkpt lat="47.19252" lon="-1.88669">
        <ele>12</ele>
        <time>2015-06-21T07:32:56Z</time>
      </trkpt>
      <trkpt lat="47.1925" lon="-1.8865">
        <ele>12</ele>
        <time>2015-06-21T07:33:01Z</time>
      </trkpt>
      <trkpt lat="47.19242" lon="-1.8863">
        <ele>12</ele>
        <time>2015-06-21T07:33:06Z</time>
      </trkpt>
      <trkpt lat="47.19231" lon="-1.8862">
        <ele>12</ele>
        <time>2015-06-21T07:33:11Z</time>
      </trkpt>
      <trkpt lat="47.19223" lon="-1.88614">
        <ele>11</ele>
        <time>2015-06-21T07:33:16Z</time>
      </trkpt>
      <trkpt lat="47.19207" lon="-1.88591">
        <ele>11</ele>
        <time>2015-06-21T07:33:25Z</time>
      </trkpt>
      <trkpt lat="47.19206" lon="-1.88589">
        <ele>11</ele>
        <time>2015-06-21T07:33:26Z</time>
      </trkpt>
      <trkpt lat="47.19198" lon="-1.88578">
        <ele>10</ele>
        <time>2015-06-21T07:33:31Z</time>
      </trkpt>
      <trkpt lat="47.19198" lon="-1.8858">
        <ele>10</ele>
        <time>2015-06-21T07:33:36Z</time>
      </trkpt>
      <trkpt lat="47.19206" lon="-1.88571">
        <ele>10</ele>
        <time>2015-06-21T07:33:43Z</time>
      </trkpt>
      <trkpt lat="47.19208" lon="-1.88563">
        <ele>10</ele>
        <time>2015-06-21T07:33:46Z</time>
      </trkpt>
      <trkpt lat="47.19209" lon="-1.88548">
        <ele>10</ele>
        <time>2015-06-21T07:33:51Z</time>
      </trkpt>
      <trkpt lat="47.19211" lon="-1.88527">
        <ele>10</ele>
        <time>2015-06-21T07:33:56Z</time>
      </trkpt>
      <trkpt lat="47.19225" lon="-1.88513">
        <ele>9</ele>
        <time>2015-06-21T07:34:02Z</time>
      </trkpt>
      <trkpt lat="47.19228" lon="-1.88489">
        <ele>9</ele>
        <time>2015-06-21T07:34:06Z</time>
      </trkpt>
      <trkpt lat="47.19229" lon="-1.88445">
        <ele>8</ele>
        <time>2015-06-21T07:34:14Z</time>
      </trkpt>
      <trkpt lat="47.19226" lon="-1.8843">
        <ele>8</ele>
        <time>2015-06-21T07:34:17Z</time>
      </trkpt>
      <trkpt lat="47.19214" lon="-1.88417">
        <ele>7</ele>
        <time>2015-06-21T07:34:21Z</time>
      </trkpt>
      <trkpt lat="47.1921" lon="-1.884">
        <ele>7</ele>
        <time>2015-06-21T07:34:28Z</time>
      </trkpt>
      <trkpt lat="47.19223" lon="-1.88397">
        <ele>7</ele>
        <time>2015-06-21T07:34:33Z</time>
      </trkpt>
      <trkpt lat="47.19225" lon="-1.884">
        <ele>7</ele>
        <time>2015-06-21T07:34:36Z</time>
      </trkpt>
      <trkpt lat="47.19235" lon="-1.88412">
        <ele>7</ele>
        <time>2015-06-21T07:34:42Z</time>
      </trkpt>
      <trkpt lat="47.19242" lon="-1.88425">
        <ele>7</ele>
        <time>2015-06-21T07:34:50Z</time>
      </trkpt>
      <trkpt lat="47.19251" lon="-1.88429">
        <ele>8</ele>
        <time>2015-06-21T07:34:53Z</time>
      </trkpt>
      <trkpt lat="47.19256" lon="-1.88437">
        <ele>8</ele>
        <time>2015-06-21T07:34:56Z</time>
      </trkpt>
      <trkpt lat="47.19268" lon="-1.88444">
        <ele>8</ele>
        <time>2015-06-21T07:35:03Z</time>
      </trkpt>
      <trkpt lat="47.1927" lon="-1.88451">
        <ele>8</ele>
        <time>2015-06-21T07:35:06Z</time>
      </trkpt>
      <trkpt lat="47.19277" lon="-1.88464">
        <ele>8</ele>
        <time>2015-06-21T07:35:11Z</time>
      </trkpt>
      <trkpt lat="47.19284" lon="-1.88476">
        <ele>8</ele>
        <time>2015-06-21T07:35:16Z</time>
      </trkpt>
      <trkpt lat="47.19291" lon="-1.88488">
        <ele>8</ele>
        <time>2015-06-21T07:35:21Z</time>
      </trkpt>
      <trkpt lat="47.19304" lon="-1.88504">
        <ele>8</ele>
        <time>2015-06-21T07:35:27Z</time>
      </trkpt>
      <trkpt lat="47.19305" lon="-1.88513">
        <ele>8</ele>
        <time>2015-06-21T07:35:32Z</time>
      </trkpt>
      <trkpt lat="47.19309" lon="-1.88525">
        <ele>8</ele>
        <time>2015-06-21T07:35:36Z</time>
      </trkpt>
      <trkpt lat="47.19321" lon="-1.88543">
        <ele>9</ele>
        <time>2015-06-21T07:35:41Z</time>
      </trkpt>
      <trkpt lat="47.19337" lon="-1.88559">
        <ele>9</ele>
        <time>2015-06-21T07:35:47Z</time>
      </trkpt>
      <trkpt lat="47.1935" lon="-1.88576">
        <ele>8</ele>
        <time>2015-06-21T07:35:51Z</time>
      </trkpt>
      <trkpt lat="47.19361" lon="-1.88591">
        <ele>8</ele>
        <time>2015-06-21T07:36:00Z</time>
      </trkpt>
      <trkpt lat="47.19363" lon="-1.88595">
        <ele>8</ele>
        <time>2015-06-21T07:36:02Z</time>
      </trkpt>
      <trkpt lat="47.19365" lon="-1.88603">
        <ele>9</ele>
        <time>2015-06-21T07:36:06Z</time>
      </trkpt>
      <trkpt lat="47.19371" lon="-1.88616">
        <ele>9</ele>
        <time>2015-06-21T07:36:11Z</time>
      </trkpt>
      <trkpt lat="47.1938" lon="-1.88626">
        <ele>8</ele>
        <time>2015-06-21T07:36:17Z</time>
      </trkpt>
      <trkpt lat="47.19389" lon="-1.88637">
        <ele>8</ele>
        <time>2015-06-21T07:36:23Z</time>
      </trkpt>
      <trkpt lat="47.19397" lon="-1.88635">
        <ele>8</ele>
        <time>2015-06-21T07:36:27Z</time>
      </trkpt>
      <trkpt lat="47.19403" lon="-1.88635">
        <ele>8</ele>
        <time>2015-06-21T07:36:32Z</time>
      </trkpt>
      <trkpt lat="47.19406" lon="-1.88639">
        <ele>8</ele>
        <time>2015-06-21T07:36:36Z</time>
      </trkpt>
      <trkpt lat="47.19404" lon="-1.88644">
        <ele>8</ele>
        <time>2015-06-21T07:36:41Z</time>
      </trkpt>
      <trkpt lat="47.19407" lon="-1.8866">
        <ele>8</ele>
        <time>2015-06-21T07:36:47Z</time>
      </trkpt>
      <trkpt lat="47.19414" lon="-1.88672">
        <ele>9</ele>
        <time>2015-06-21T07:36:52Z</time>
      </trkpt>
      <trkpt lat="47.19421" lon="-1.8869">
        <ele>9</ele>
        <time>2015-06-21T07:36:56Z</time>
      </trkpt>
      <trkpt lat="47.19424" lon="-1.88717">
        <ele>10</ele>
        <time>2015-06-21T07:37:03Z</time>
      </trkpt>
      <trkpt lat="47.19422" lon="-1.88723">
        <ele>10</ele>
        <time>2015-06-21T07:37:06Z</time>
      </trkpt>
      <trkpt lat="47.19413" lon="-1.88739">
        <ele>11</ele>
        <time>2015-06-21T07:37:15Z</time>
      </trkpt>
      <trkpt lat="47.19411" lon="-1.88741">
        <ele>11</ele>
        <time>2015-06-21T07:37:17Z</time>
      </trkpt>
      <trkpt lat="47.19407" lon="-1.88753">
        <ele>12</ele>
        <time>2015-06-21T07:37:25Z</time>
      </trkpt>
      <trkpt lat="47.19407" lon="-1.88755">
        <ele>12</ele>
        <time>2015-06-21T07:37:26Z</time>
      </trkpt>
      <trkpt lat="47.19406" lon="-1.88764">
        <ele>12</ele>
        <time>2015-06-21T07:37:31Z</time>
      </trkpt>
      <trkpt lat="47.19401" lon="-1.88781">
        <ele>12</ele>
        <time>2015-06-21T07:37:36Z</time>
      </trkpt>
      <trkpt lat="47.19395" lon="-1.88796">
        <ele>13</ele>
        <time>2015-06-21T07:37:41Z</time>
      </trkpt>
      <trkpt lat="47.19391" lon="-1.88827">
        <ele>13</ele>
        <time>2015-06-21T07:37:49Z</time>
      </trkpt>
      <trkpt lat="47.19391" lon="-1.88838">
        <ele>13</ele>
        <time>2015-06-21T07:37:52Z</time>
      </trkpt>
      <trkpt lat="47.19386" lon="-1.88862">
        <ele>12</ele>
        <time>2015-06-21T07:37:58Z</time>
      </trkpt>
      <trkpt lat="47.19385" lon="-1.88873">
        <ele>12</ele>
        <time>2015-06-21T07:38:01Z</time>
      </trkpt>
      <trkpt lat="47.19391" lon="-1.88889">
        <ele>11</ele>
        <time>2015-06-21T07:38:09Z</time>
      </trkpt>
      <trkpt lat="47.1939" lon="-1.88888">
        <ele>12</ele>
        <time>2015-06-21T07:38:13Z</time>
      </trkpt>
      <trkpt lat="47.19379" lon="-1.88899">
        <ele>11</ele>
        <time>2015-06-21T07:38:19Z</time>
      </trkpt>
      <trkpt lat="47.1937" lon="-1.88911">
        <ele>11</ele>
        <time>2015-06-21T07:38:23Z</time>
      </trkpt>
      <trkpt lat="47.19364" lon="-1.88928">
        <ele>10</ele>
        <time>2015-06-21T07:38:26Z</time>
      </trkpt>
      <trkpt lat="47.19353" lon="-1.8895">
        <ele>10</ele>
        <time>2015-06-21T07:38:33Z</time>
      </trkpt>
      <trkpt lat="47.19349" lon="-1.88962">
        <ele>9</ele>
        <time>2015-06-21T07:38:36Z</time>
      </trkpt>
      <trkpt lat="47.19352" lon="-1.88992">
        <ele>9</ele>
        <time>2015-06-21T07:38:43Z</time>
      </trkpt>
      <trkpt lat="47.19352" lon="-1.89005">
        <ele>8</ele>
        <time>2015-06-21T07:38:46Z</time>
      </trkpt>
      <trkpt lat="47.1935" lon="-1.89022">
        <ele>8</ele>
        <time>2015-06-21T07:38:51Z</time>
      </trkpt>
      <trkpt lat="47.19354" lon="-1.89041">
        <ele>8</ele>
        <time>2015-06-21T07:38:56Z</time>
      </trkpt>
      <trkpt lat="47.19351" lon="-1.89058">
        <ele>8</ele>
        <time>2015-06-21T07:39:01Z</time>
      </trkpt>
      <trkpt lat="47.19356" lon="-1.891">
        <ele>7</ele>
        <time>2015-06-21T07:39:09Z</time>
      </trkpt>
      <trkpt lat="47.19356" lon="-1.89127">
        <ele>7</ele>
        <time>2015-06-21T07:39:13Z</time>
      </trkpt>
      <trkpt lat="47.19347" lon="-1.89152">
        <ele>8</ele>
        <time>2015-06-21T07:39:16Z</time>
      </trkpt>
      <trkpt lat="47.19336" lon="-1.89195">
        <ele>8</ele>
        <time>2015-06-21T07:39:22Z</time>
      </trkpt>
      <trkpt lat="47.19327" lon="-1.89223">
        <ele>8</ele>
        <time>2015-06-21T07:39:26Z</time>
      </trkpt>
      <trkpt lat="47.19321" lon="-1.89263">
        <ele>8</ele>
        <time>2015-06-21T07:39:32Z</time>
      </trkpt>
      <trkpt lat="47.19309" lon="-1.89298">
        <ele>8</ele>
        <time>2015-06-21T07:39:38Z</time>
      </trkpt>
      <trkpt lat="47.19297" lon="-1.89344">
        <ele>8</ele>
        <time>2015-06-21T07:39:45Z</time>
      </trkpt>
      <trkpt lat="47.19294" lon="-1.89377">
        <ele>8</ele>
        <time>2015-06-21T07:39:49Z</time>
      </trkpt>
      <trkpt lat="47.1929" lon="-1.89402">
        <ele>8</ele>
        <time>2015-06-21T07:39:52Z</time>
      </trkpt>
      <trkpt lat="47.19282" lon="-1.89434">
        <ele>9</ele>
        <time>2015-06-21T07:39:56Z</time>
      </trkpt>
      <trkpt lat="47.19272" lon="-1.89471">
        <ele>9</ele>
        <time>2015-06-21T07:40:01Z</time>
      </trkpt>
      <trkpt lat="47.19261" lon="-1.89511">
        <ele>9</ele>
        <time>2015-06-21T07:40:06Z</time>
      </trkpt>
      <trkpt lat="47.19247" lon="-1.89574">
        <ele>9</ele>
        <time>2015-06-21T07:40:14Z</time>
      </trkpt>
      <trkpt lat="47.19241" lon="-1.8961">
        <ele>10</ele>
        <time>2015-06-21T07:40:18Z</time>
      </trkpt>
      <trkpt lat="47.19235" lon="-1.89632">
        <ele>10</ele>
        <time>2015-06-21T07:40:21Z</time>
      </trkpt>
      <trkpt lat="47.19225" lon="-1.89666">
        <ele>11</ele>
        <time>2015-06-21T07:40:26Z</time>
      </trkpt>
      <trkpt lat="47.19215" lon="-1.897">
        <ele>11</ele>
        <time>2015-06-21T07:40:31Z</time>
      </trkpt>
      <trkpt lat="47.1921" lon="-1.8975">
        <ele>10</ele>
        <time>2015-06-21T07:40:37Z</time>
      </trkpt>
      <trkpt lat="47.19201" lon="-1.89799">
        <ele>11</ele>
        <time>2015-06-21T07:40:43Z</time>
      </trkpt>
      <trkpt lat="47.19197" lon="-1.89824">
        <ele>11</ele>
        <time>2015-06-21T07:40:46Z</time>
      </trkpt>
      <trkpt lat="47.19188" lon="-1.89871">
        <ele>11</ele>
        <time>2015-06-21T07:40:52Z</time>
      </trkpt>
      <trkpt lat="47.19172" lon="-1.89929">
        <ele>13</ele>
        <time>2015-06-21T07:41:00Z</time>
      </trkpt>
      <trkpt lat="47.19168" lon="-1.89974">
        <ele>13</ele>
        <time>2015-06-21T07:41:05Z</time>
      </trkpt>
      <trkpt lat="47.19162" lon="-1.90013">
        <ele>13</ele>
        <time>2015-06-21T07:41:10Z</time>
      </trkpt>
      <trkpt lat="47.19159" lon="-1.90032">
        <ele>13</ele>
        <time>2015-06-21T07:41:12Z</time>
      </trkpt>
      <trkpt lat="47.19154" lon="-1.90063">
        <ele>14</ele>
        <time>2015-06-21T07:41:16Z</time>
      </trkpt>
      <trkpt lat="47.19144" lon="-1.90096">
        <ele>14</ele>
        <time>2015-06-21T07:41:21Z</time>
      </trkpt>
      <trkpt lat="47.19132" lon="-1.9013">
        <ele>14</ele>
        <time>2015-06-21T07:41:26Z</time>
      </trkpt>
      <trkpt lat="47.19113" lon="-1.90176">
        <ele>15</ele>
        <time>2015-06-21T07:41:33Z</time>
      </trkpt>
      <trkpt lat="47.19093" lon="-1.90208">
        <ele>15</ele>
        <time>2015-06-21T07:41:39Z</time>
      </trkpt>
      <trkpt lat="47.19087" lon="-1.90234">
        <ele>15</ele>
        <time>2015-06-21T07:41:42Z</time>
      </trkpt>
      <trkpt lat="47.19067" lon="-1.90255">
        <ele>16</ele>
        <time>2015-06-21T07:41:47Z</time>
      </trkpt>
      <trkpt lat="47.19053" lon="-1.90279">
        <ele>16</ele>
        <time>2015-06-21T07:41:51Z</time>
      </trkpt>
      <trkpt lat="47.19021" lon="-1.90325">
        <ele>18</ele>
        <time>2015-06-21T07:42:00Z</time>
      </trkpt>
      <trkpt lat="47.1901" lon="-1.9034">
        <ele>18</ele>
        <time>2015-06-21T07:42:03Z</time>
      </trkpt>
      <trkpt lat="47.18999" lon="-1.90356">
        <ele>19</ele>
        <time>2015-06-21T07:42:06Z</time>
      </trkpt>
      <trkpt lat="47.1898" lon="-1.90384">
        <ele>20</ele>
        <time>2015-06-21T07:42:11Z</time>
      </trkpt>
      <trkpt lat="47.18964" lon="-1.9041">
        <ele>22</ele>
        <time>2015-06-21T07:42:16Z</time>
      </trkpt>
      <trkpt lat="47.18948" lon="-1.90434">
        <ele>23</ele>
        <time>2015-06-21T07:42:21Z</time>
      </trkpt>
      <trkpt lat="47.18933" lon="-1.90466">
        <ele>24</ele>
        <time>2015-06-21T07:42:28Z</time>
      </trkpt>
      <trkpt lat="47.18926" lon="-1.90482">
        <ele>25</ele>
        <time>2015-06-21T07:42:31Z</time>
      </trkpt>
      <trkpt lat="47.18907" lon="-1.90489">
        <ele>27</ele>
        <time>2015-06-21T07:42:37Z</time>
      </trkpt>
      <trkpt lat="47.18894" lon="-1.90492">
        <ele>29</ele>
        <time>2015-06-21T07:42:44Z</time>
      </trkpt>
      <trkpt lat="47.18888" lon="-1.90494">
        <ele>30</ele>
        <time>2015-06-21T07:42:46Z</time>
      </trkpt>
      <trkpt lat="47.18872" lon="-1.90492">
        <ele>32</ele>
        <time>2015-06-21T07:42:54Z</time>
      </trkpt>
      <trkpt lat="47.18866" lon="-1.90494">
        <ele>32</ele>
        <time>2015-06-21T07:42:56Z</time>
      </trkpt>
      <trkpt lat="47.18842" lon="-1.90499">
        <ele>34</ele>
        <time>2015-06-21T07:43:04Z</time>
      </trkpt>
      <trkpt lat="47.1883" lon="-1.90504">
        <ele>35</ele>
        <time>2015-06-21T07:43:08Z</time>
      </trkpt>
      <trkpt lat="47.18813" lon="-1.90508">
        <ele>37</ele>
        <time>2015-06-21T07:43:15Z</time>
      </trkpt>
      <trkpt lat="47.1881" lon="-1.90508">
        <ele>37</ele>
        <time>2015-06-21T07:43:16Z</time>
      </trkpt>
      <trkpt lat="47.18793" lon="-1.90511">
        <ele>37</ele>
        <time>2015-06-21T07:43:21Z</time>
      </trkpt>
      <trkpt lat="47.18759" lon="-1.90511">
        <ele>39</ele>
        <time>2015-06-21T07:43:30Z</time>
      </trkpt>
      <trkpt lat="47.18746" lon="-1.90503">
        <ele>39</ele>
        <time>2015-06-21T07:43:35Z</time>
      </trkpt>
      <trkpt lat="47.18741" lon="-1.90501">
        <ele>39</ele>
        <time>2015-06-21T07:43:37Z</time>
      </trkpt>
      <trkpt lat="47.18731" lon="-1.90497">
        <ele>40</ele>
        <time>2015-06-21T07:43:41Z</time>
      </trkpt>
      <trkpt lat="47.18703" lon="-1.90497">
        <ele>41</ele>
        <time>2015-06-21T07:43:47Z</time>
      </trkpt>
      <trkpt lat="47.18679" lon="-1.90493">
        <ele>41</ele>
        <time>2015-06-21T07:43:53Z</time>
      </trkpt>
      <trkpt lat="47.18666" lon="-1.90493">
        <ele>42</ele>
        <time>2015-06-21T07:43:56Z</time>
      </trkpt>
      <trkpt lat="47.18646" lon="-1.90486">
        <ele>42</ele>
        <time>2015-06-21T07:44:03Z</time>
      </trkpt>
      <trkpt lat="47.18629" lon="-1.90486">
        <ele>42</ele>
        <time>2015-06-21T07:44:07Z</time>
      </trkpt>
      <trkpt lat="47.18614" lon="-1.90486">
        <ele>42</ele>
        <time>2015-06-21T07:44:11Z</time>
      </trkpt>
      <trkpt lat="47.18596" lon="-1.90486">
        <ele>43</ele>
        <time>2015-06-21T07:44:16Z</time>
      </trkpt>
      <trkpt lat="47.18573" lon="-1.9049">
        <ele>43</ele>
        <time>2015-06-21T07:44:22Z</time>
      </trkpt>
      <trkpt lat="47.18546" lon="-1.90488">
        <ele>43</ele>
        <time>2015-06-21T07:44:28Z</time>
      </trkpt>
      <trkpt lat="47.18533" lon="-1.90487">
        <ele>44</ele>
        <time>2015-06-21T07:44:31Z</time>
      </trkpt>
      <trkpt lat="47.18511" lon="-1.90486">
        <ele>44</ele>
        <time>2015-06-21T07:44:36Z</time>
      </trkpt>
      <trkpt lat="47.18493" lon="-1.90481">
        <ele>44</ele>
        <time>2015-06-21T07:44:41Z</time>
      </trkpt>
      <trkpt lat="47.18471" lon="-1.90486">
        <ele>44</ele>
        <time>2015-06-21T07:44:47Z</time>
      </trkpt>
      <trkpt lat="47.18474" lon="-1.90508">
        <ele>43</ele>
        <time>2015-06-21T07:44:51Z</time>
      </trkpt>
      <trkpt lat="47.18511" lon="-1.90567">
        <ele>43</ele>
        <time>2015-06-21T07:45:00Z</time>
      </trkpt>
      <trkpt lat="47.18515" lon="-1.90574">
        <ele>43</ele>
        <time>2015-06-21T07:45:01Z</time>
      </trkpt>
      <trkpt lat="47.18549" lon="-1.90628">
        <ele>42</ele>
        <time>2015-06-21T07:45:09Z</time>
      </trkpt>
      <trkpt lat="47.18583" lon="-1.90659">
        <ele>43</ele>
        <time>2015-06-21T07:45:15Z</time>
      </trkpt>
      <trkpt lat="47.18594" lon="-1.90668">
        <ele>43</ele>
        <time>2015-06-21T07:45:17Z</time>
      </trkpt>
      <trkpt lat="47.18618" lon="-1.90685">
        <ele>42</ele>
        <time>2015-06-21T07:45:21Z</time>
      </trkpt>
      <trkpt lat="47.1866" lon="-1.90717">
        <ele>41</ele>
        <time>2015-06-21T07:45:28Z</time>
      </trkpt>
      <trkpt lat="47.18684" lon="-1.90739">
        <ele>40</ele>
        <time>2015-06-21T07:45:32Z</time>
      </trkpt>
      <trkpt lat="47.18704" lon="-1.90767">
        <ele>39</ele>
        <time>2015-06-21T07:45:36Z</time>
      </trkpt>
      <trkpt lat="47.18724" lon="-1.90802">
        <ele>38</ele>
        <time>2015-06-21T07:45:41Z</time>
      </trkpt>
      <trkpt lat="47.18749" lon="-1.90833">
        <ele>37</ele>
        <time>2015-06-21T07:45:46Z</time>
      </trkpt>
      <trkpt lat="47.18774" lon="-1.90871">
        <ele>35</ele>
        <time>2015-06-21T07:45:52Z</time>
      </trkpt>
      <trkpt lat="47.1879" lon="-1.90888">
        <ele>33</ele>
        <time>2015-06-21T07:45:56Z</time>
      </trkpt>
      <trkpt lat="47.18819" lon="-1.90892">
        <ele>33</ele>
        <time>2015-06-21T07:46:01Z</time>
      </trkpt>
      <trkpt lat="47.18845" lon="-1.90903">
        <ele>32</ele>
        <time>2015-06-21T07:46:06Z</time>
      </trkpt>
      <trkpt lat="47.18892" lon="-1.90928">
        <ele>31</ele>
        <time>2015-06-21T07:46:14Z</time>
      </trkpt>
      <trkpt lat="47.18896" lon="-1.90933">
        <ele>31</ele>
        <time>2015-06-21T07:46:16Z</time>
      </trkpt>
      <trkpt lat="47.18922" lon="-1.90968">
        <ele>29</ele>
        <time>2015-06-21T07:46:23Z</time>
      </trkpt>
      <trkpt lat="47.18959" lon="-1.9096">
        <ele>26</ele>
        <time>2015-06-21T07:46:28Z</time>
      </trkpt>
      <trkpt lat="47.18987" lon="-1.90957">
        <ele>24</ele>
        <time>2015-06-21T07:46:31Z</time>
      </trkpt>
      <trkpt lat="47.19068" lon="-1.90926">
        <ele>16</ele>
        <time>2015-06-21T07:46:40Z</time>
      </trkpt>
      <trkpt lat="47.19092" lon="-1.90917">
        <ele>14</ele>
        <time>2015-06-21T07:46:44Z</time>
      </trkpt>
      <trkpt lat="47.19132" lon="-1.90903">
        <ele>11</ele>
        <time>2015-06-21T07:46:50Z</time>
      </trkpt>
      <trkpt lat="47.19137" lon="-1.90902">
        <ele>11</ele>
        <time>2015-06-21T07:46:51Z</time>
      </trkpt>
      <trkpt lat="47.19148" lon="-1.90926">
        <ele>10</ele>
        <time>2015-06-21T07:46:56Z</time>
      </trkpt>
      <trkpt lat="47.19154" lon="-1.90971">
        <ele>10</ele>
        <time>2015-06-21T07:47:01Z</time>
      </trkpt>
      <trkpt lat="47.19169" lon="-1.90999">
        <ele>9</ele>
        <time>2015-06-21T07:47:09Z</time>
      </trkpt>
      <trkpt lat="47.19161" lon="-1.90989">
        <ele>9</ele>
        <time>2015-06-21T07:47:11Z</time>
      </trkpt>
      <trkpt lat="47.19132" lon="-1.90979">
        <ele>10</ele>
        <time>2015-06-21T07:47:19Z</time>
      </trkpt>
      <trkpt lat="47.19123" lon="-1.90982">
        <ele>10</ele>
        <time>2015-06-21T07:47:23Z</time>
      </trkpt>
      <trkpt lat="47.19113" lon="-1.90986">
        <ele>11</ele>
        <time>2015-06-21T07:47:26Z</time>
      </trkpt>
      <trkpt lat="47.19085" lon="-1.90996">
        <ele>12</ele>
        <time>2015-06-21T07:47:34Z</time>
      </trkpt>
      <trkpt lat="47.19076" lon="-1.90996">
        <ele>13</ele>
        <time>2015-06-21T07:47:36Z</time>
      </trkpt>
      <trkpt lat="47.1905" lon="-1.90996">
        <ele>15</ele>
        <time>2015-06-21T07:47:42Z</time>
      </trkpt>
      <trkpt lat="47.19032" lon="-1.91">
        <ele>17</ele>
        <time>2015-06-21T07:47:46Z</time>
      </trkpt>
      <trkpt lat="47.19006" lon="-1.91002">
        <ele>19</ele>
        <time>2015-06-21T07:47:53Z</time>
      </trkpt>
      <trkpt lat="47.18999" lon="-1.91004">
        <ele>20</ele>
        <time>2015-06-21T07:47:56Z</time>
      </trkpt>
      <trkpt lat="47.18986" lon="-1.91013">
        <ele>21</ele>
        <time>2015-06-21T07:48:01Z</time>
      </trkpt>
      <trkpt lat="47.18962" lon="-1.9102">
        <ele>24</ele>
        <time>2015-06-21T07:48:09Z</time>
      </trkpt>
      <trkpt lat="47.18956" lon="-1.9102">
        <ele>25</ele>
        <time>2015-06-21T07:48:11Z</time>
      </trkpt>
      <trkpt lat="47.18935" lon="-1.91035">
        <ele>26</ele>
        <time>2015-06-21T07:48:20Z</time>
      </trkpt>
      <trkpt lat="47.18922" lon="-1.9104">
        <ele>27</ele>
        <time>2015-06-21T07:48:25Z</time>
      </trkpt>
      <trkpt lat="47.1892" lon="-1.91041">
        <ele>27</ele>
        <time>2015-06-21T07:48:26Z</time>
      </trkpt>
      <trkpt lat="47.18901" lon="-1.91048">
        <ele>28</ele>
        <time>2015-06-21T07:48:34Z</time>
      </trkpt>
      <trkpt lat="47.18899" lon="-1.91076">
        <ele>26</ele>
        <time>2015-06-21T07:48:40Z</time>
      </trkpt>
      <trkpt lat="47.189" lon="-1.91082">
        <ele>25</ele>
        <time>2015-06-21T07:48:41Z</time>
      </trkpt>
      <trkpt lat="47.18881" lon="-1.91111">
        <ele>23</ele>
        <time>2015-06-21T07:48:50Z</time>
      </trkpt>
      <trkpt lat="47.18868" lon="-1.9111">
        <ele>23</ele>
        <time>2015-06-21T07:48:54Z</time>
      </trkpt>
      <trkpt lat="47.18853" lon="-1.91113">
        <ele>23</ele>
        <time>2015-06-21T07:48:58Z</time>
      </trkpt>
      <trkpt lat="47.18841" lon="-1.91117">
        <ele>22</ele>
        <time>2015-06-21T07:49:01Z</time>
      </trkpt>
      <trkpt lat="47.18826" lon="-1.91121">
        <ele>22</ele>
        <time>2015-06-21T07:49:06Z</time>
      </trkpt>
      <trkpt lat="47.18816" lon="-1.91147">
        <ele>19</ele>
        <time>2015-06-21T07:49:11Z</time>
      </trkpt>
      <trkpt lat="47.18831" lon="-1.91228">
        <ele>15</ele>
        <time>2015-06-21T07:49:20Z</time>
      </trkpt>
      <trkpt lat="47.18835" lon="-1.91231">
        <ele>14</ele>
        <time>2015-06-21T07:49:21Z</time>
      </trkpt>
      <trkpt lat="47.18846" lon="-1.91237">
        <ele>14</ele>
        <time>2015-06-21T07:49:30Z</time>
      </trkpt>
      <trkpt lat="47.18847" lon="-1.9124">
        <ele>14</ele>
        <time>2015-06-21T07:49:31Z</time>
      </trkpt>
      <trkpt lat="47.1886" lon="-1.91245">
        <ele>15</ele>
        <time>2015-06-21T07:49:38Z</time>
      </trkpt>
      <trkpt lat="47.18872" lon="-1.91267">
        <ele>16</ele>
        <time>2015-06-21T07:49:43Z</time>
      </trkpt>
      <trkpt lat="47.18892" lon="-1.91269">
        <ele>17</ele>
        <time>2015-06-21T07:49:48Z</time>
      </trkpt>
      <trkpt lat="47.18904" lon="-1.91258">
        <ele>17</ele>
        <time>2015-06-21T07:49:52Z</time>
      </trkpt>
      <trkpt lat="47.18916" lon="-1.91253">
        <ele>17</ele>
        <time>2015-06-21T07:49:56Z</time>
      </trkpt>
      <trkpt lat="47.18934" lon="-1.91254">
        <ele>18</ele>
        <time>2015-06-21T07:50:01Z</time>
      </trkpt>
      <trkpt lat="47.18951" lon="-1.91239">
        <ele>17</ele>
        <time>2015-06-21T07:50:06Z</time>
      </trkpt>
      <trkpt lat="47.18983" lon="-1.91209">
        <ele>14</ele>
        <time>2015-06-21T07:50:14Z</time>
      </trkpt>
      <trkpt lat="47.18989" lon="-1.91204">
        <ele>13</ele>
        <time>2015-06-21T07:50:16Z</time>
      </trkpt>
      <trkpt lat="47.19004" lon="-1.91195">
        <ele>13</ele>
        <time>2015-06-21T07:50:21Z</time>
      </trkpt>
      <trkpt lat="47.19018" lon="-1.91184">
        <ele>13</ele>
        <time>2015-06-21T07:50:26Z</time>
      </trkpt>
      <trkpt lat="47.19046" lon="-1.91161">
        <ele>12</ele>
        <time>2015-06-21T07:50:35Z</time>
      </trkpt>
      <trkpt lat="47.19049" lon="-1.91158">
        <ele>12</ele>
        <time>2015-06-21T07:50:36Z</time>
      </trkpt>
      <trkpt lat="47.19055" lon="-1.91122">
        <ele>10</ele>
        <time>2015-06-21T07:50:43Z</time>
      </trkpt>
      <trkpt lat="47.19059" lon="-1.91101">
        <ele>9</ele>
        <time>2015-06-21T07:50:47Z</time>
      </trkpt>
      <trkpt lat="47.1907" lon="-1.91093">
        <ele>9</ele>
        <time>2015-06-21T07:50:53Z</time>
      </trkpt>
      <trkpt lat="47.19079" lon="-1.91083">
        <ele>9</ele>
        <time>2015-06-21T07:50:56Z</time>
      </trkpt>
      <trkpt lat="47.19108" lon="-1.91059">
        <ele>9</ele>
        <time>2015-06-21T07:51:03Z</time>
      </trkpt>
      <trkpt lat="47.19119" lon="-1.91045">
        <ele>9</ele>
        <time>2015-06-21T07:51:06Z</time>
      </trkpt>
      <trkpt lat="47.19144" lon="-1.91049">
        <ele>9</ele>
        <time>2015-06-21T07:51:11Z</time>
      </trkpt>
      <trkpt lat="47.19165" lon="-1.91073">
        <ele>9</ele>
        <time>2015-06-21T07:51:17Z</time>
      </trkpt>
      <trkpt lat="47.19188" lon="-1.91082">
        <ele>9</ele>
        <time>2015-06-21T07:51:25Z</time>
      </trkpt>
      <trkpt lat="47.19195" lon="-1.9108">
        <ele>9</ele>
        <time>2015-06-21T07:51:28Z</time>
      </trkpt>
      <trkpt lat="47.19204" lon="-1.91096">
        <ele>9</ele>
        <time>2015-06-21T07:51:35Z</time>
      </trkpt>
      <trkpt lat="47.19208" lon="-1.91103">
        <ele>10</ele>
        <time>2015-06-21T07:51:37Z</time>
      </trkpt>
      <trkpt lat="47.19223" lon="-1.91105">
        <ele>10</ele>
        <time>2015-06-21T07:51:41Z</time>
      </trkpt>
      <trkpt lat="47.19244" lon="-1.91086">
        <ele>10</ele>
        <time>2015-06-21T07:51:47Z</time>
      </trkpt>
      <trkpt lat="47.19274" lon="-1.91062">
        <ele>10</ele>
        <time>2015-06-21T07:51:54Z</time>
      </trkpt>
      <trkpt lat="47.19295" lon="-1.91043">
        <ele>10</ele>
        <time>2015-06-21T07:51:59Z</time>
      </trkpt>
      <trkpt lat="47.19303" lon="-1.91034">
        <ele>10</ele>
        <time>2015-06-21T07:52:01Z</time>
      </trkpt>
      <trkpt lat="47.19324" lon="-1.9101">
        <ele>9</ele>
        <time>2015-06-21T07:52:06Z</time>
      </trkpt>
      <trkpt lat="47.19344" lon="-1.90981">
        <ele>9</ele>
        <time>2015-06-21T07:52:11Z</time>
      </trkpt>
      <trkpt lat="47.19362" lon="-1.90955">
        <ele>9</ele>
        <time>2015-06-21T07:52:16Z</time>
      </trkpt>
      <trkpt lat="47.1938" lon="-1.90927">
        <ele>8</ele>
        <time>2015-06-21T07:52:21Z</time>
      </trkpt>
      <trkpt lat="47.19394" lon="-1.909">
        <ele>8</ele>
        <time>2015-06-21T07:52:26Z</time>
      </trkpt>
      <trkpt lat="47.19421" lon="-1.90856">
        <ele>8</ele>
        <time>2015-06-21T07:52:35Z</time>
      </trkpt>
      <trkpt lat="47.19424" lon="-1.90848">
        <ele>8</ele>
        <time>2015-06-21T07:52:36Z</time>
      </trkpt>
      <trkpt lat="47.1946" lon="-1.90828">
        <ele>8</ele>
        <time>2015-06-21T07:52:45Z</time>
      </trkpt>
      <trkpt lat="47.19465" lon="-1.90825">
        <ele>8</ele>
        <time>2015-06-21T07:52:46Z</time>
      </trkpt>
      <trkpt lat="47.19489" lon="-1.90823">
        <ele>8</ele>
        <time>2015-06-21T07:52:51Z</time>
      </trkpt>
      <trkpt lat="47.19524" lon="-1.90836">
        <ele>8</ele>
        <time>2015-06-21T07:53:00Z</time>
      </trkpt>
      <trkpt lat="47.19526" lon="-1.90843">
        <ele>8</ele>
        <time>2015-06-21T07:53:01Z</time>
      </trkpt>
      <trkpt lat="47.19535" lon="-1.90875">
        <ele>7</ele>
        <time>2015-06-21T07:53:06Z</time>
      </trkpt>
      <trkpt lat="47.1955" lon="-1.90906">
        <ele>8</ele>
        <time>2015-06-21T07:53:11Z</time>
      </trkpt>
      <trkpt lat="47.1958" lon="-1.9093">
        <ele>8</ele>
        <time>2015-06-21T07:53:18Z</time>
      </trkpt>
      <trkpt lat="47.19589" lon="-1.90944">
        <ele>8</ele>
        <time>2015-06-21T07:53:21Z</time>
      </trkpt>
      <trkpt lat="47.19605" lon="-1.90971">
        <ele>9</ele>
        <time>2015-06-21T07:53:26Z</time>
      </trkpt>
      <trkpt lat="47.19622" lon="-1.91001">
        <ele>10</ele>
        <time>2015-06-21T07:53:32Z</time>
      </trkpt>
      <trkpt lat="47.19633" lon="-1.91021">
        <ele>10</ele>
        <time>2015-06-21T07:53:36Z</time>
      </trkpt>
      <trkpt lat="47.19648" lon="-1.91049">
        <ele>11</ele>
        <time>2015-06-21T07:53:42Z</time>
      </trkpt>
      <trkpt lat="47.19662" lon="-1.91073">
        <ele>12</ele>
        <time>2015-06-21T07:53:48Z</time>
      </trkpt>
      <trkpt lat="47.1967" lon="-1.91084">
        <ele>12</ele>
        <time>2015-06-21T07:53:51Z</time>
      </trkpt>
      <trkpt lat="47.19683" lon="-1.91105">
        <ele>12</ele>
        <time>2015-06-21T07:53:56Z</time>
      </trkpt>
      <trkpt lat="47.1968" lon="-1.91126">
        <ele>12</ele>
        <time>2015-06-21T07:54:01Z</time>
      </trkpt>
      <trkpt lat="47.19669" lon="-1.91152">
        <ele>12</ele>
        <time>2015-06-21T07:54:06Z</time>
      </trkpt>
      <trkpt lat="47.19659" lon="-1.9118">
        <ele>13</ele>
        <time>2015-06-21T07:54:11Z</time>
      </trkpt>
      <trkpt lat="47.19653" lon="-1.91212">
        <ele>13</ele>
        <time>2015-06-21T07:54:16Z</time>
      </trkpt>
      <trkpt lat="47.19651" lon="-1.91247">
        <ele>13</ele>
        <time>2015-06-21T07:54:21Z</time>
      </trkpt>
      <trkpt lat="47.19644" lon="-1.91276">
        <ele>13</ele>
        <time>2015-06-21T07:54:26Z</time>
      </trkpt>
      <trkpt lat="47.19636" lon="-1.91323">
        <ele>14</ele>
        <time>2015-06-21T07:54:33Z</time>
      </trkpt>
      <trkpt lat="47.19628" lon="-1.91339">
        <ele>14</ele>
        <time>2015-06-21T07:54:36Z</time>
      </trkpt>
      <trkpt lat="47.19615" lon="-1.91363">
        <ele>14</ele>
        <time>2015-06-21T07:54:41Z</time>
      </trkpt>
      <trkpt lat="47.19598" lon="-1.91391">
        <ele>14</ele>
        <time>2015-06-21T07:54:47Z</time>
      </trkpt>
      <trkpt lat="47.19586" lon="-1.91409">
        <ele>14</ele>
        <time>2015-06-21T07:54:51Z</time>
      </trkpt>
      <trkpt lat="47.19571" lon="-1.91434">
        <ele>14</ele>
        <time>2015-06-21T07:54:56Z</time>
      </trkpt>
      <trkpt lat="47.19556" lon="-1.91459">
        <ele>14</ele>
        <time>2015-06-21T07:55:01Z</time>
      </trkpt>
      <trkpt lat="47.19542" lon="-1.91485">
        <ele>14</ele>
        <time>2015-06-21T07:55:06Z</time>
      </trkpt>
      <trkpt lat="47.19529" lon="-1.91513">
        <ele>15</ele>
        <time>2015-06-21T07:55:11Z</time>
      </trkpt>
      <trkpt lat="47.19509" lon="-1.91549">
        <ele>15</ele>
        <time>2015-06-21T07:55:17Z</time>
      </trkpt>
      <trkpt lat="47.19496" lon="-1.9157">
        <ele>15</ele>
        <time>2015-06-21T07:55:21Z</time>
      </trkpt>
      <trkpt lat="47.1948" lon="-1.916">
        <ele>15</ele>
        <time>2015-06-21T07:55:26Z</time>
      </trkpt>
      <trkpt lat="47.19464" lon="-1.91625">
        <ele>16</ele>
        <time>2015-06-21T07:55:31Z</time>
      </trkpt>
      <trkpt lat="47.19448" lon="-1.9166">
        <ele>17</ele>
        <time>2015-06-21T07:55:37Z</time>
      </trkpt>
      <trkpt lat="47.19425" lon="-1.91677">
        <ele>17</ele>
        <time>2015-06-21T07:55:43Z</time>
      </trkpt>
      <trkpt lat="47.19404" lon="-1.91645">
        <ele>15</ele>
        <time>2015-06-21T07:55:49Z</time>
      </trkpt>
      <trkpt lat="47.19387" lon="-1.91586">
        <ele>14</ele>
        <time>2015-06-21T07:55:56Z</time>
      </trkpt>
      <trkpt lat="47.19385" lon="-1.91577">
        <ele>14</ele>
        <time>2015-06-21T07:55:57Z</time>
      </trkpt>
      <trkpt lat="47.19371" lon="-1.91525">
        <ele>12</ele>
        <time>2015-06-21T07:56:03Z</time>
      </trkpt>
      <trkpt lat="47.1935" lon="-1.91468">
        <ele>13</ele>
        <time>2015-06-21T07:56:10Z</time>
      </trkpt>
      <trkpt lat="47.19342" lon="-1.91452">
        <ele>14</ele>
        <time>2015-06-21T07:56:12Z</time>
      </trkpt>
      <trkpt lat="47.19318" lon="-1.91405">
        <ele>14</ele>
        <time>2015-06-21T07:56:19Z</time>
      </trkpt>
      <trkpt lat="47.19305" lon="-1.91377">
        <ele>15</ele>
        <time>2015-06-21T07:56:23Z</time>
      </trkpt>
      <trkpt lat="47.19287" lon="-1.91331">
        <ele>16</ele>
        <time>2015-06-21T07:56:30Z</time>
      </trkpt>
      <trkpt lat="47.19278" lon="-1.91324">
        <ele>16</ele>
        <time>2015-06-21T07:56:32Z</time>
      </trkpt>
      <trkpt lat="47.19256" lon="-1.91336">
        <ele>16</ele>
        <time>2015-06-21T07:56:37Z</time>
      </trkpt>
      <trkpt lat="47.19233" lon="-1.9135">
        <ele>17</ele>
        <time>2015-06-21T07:56:42Z</time>
      </trkpt>
      <trkpt lat="47.19208" lon="-1.91364">
        <ele>17</ele>
        <time>2015-06-21T07:56:47Z</time>
      </trkpt>
      <trkpt lat="47.19186" lon="-1.91377">
        <ele>18</ele>
        <time>2015-06-21T07:56:52Z</time>
      </trkpt>
      <trkpt lat="47.19164" lon="-1.91388">
        <ele>19</ele>
        <time>2015-06-21T07:56:57Z</time>
      </trkpt>
      <trkpt lat="47.19134" lon="-1.91405">
        <ele>21</ele>
        <time>2015-06-21T07:57:04Z</time>
      </trkpt>
      <trkpt lat="47.19114" lon="-1.91419">
        <ele>22</ele>
        <time>2015-06-21T07:57:09Z</time>
      </trkpt>
      <trkpt lat="47.19101" lon="-1.91426">
        <ele>23</ele>
        <time>2015-06-21T07:57:12Z</time>
      </trkpt>
      <trkpt lat="47.19082" lon="-1.91437">
        <ele>24</ele>
        <time>2015-06-21T07:57:17Z</time>
      </trkpt>
      <trkpt lat="47.1906" lon="-1.91447">
        <ele>25</ele>
        <time>2015-06-21T07:57:23Z</time>
      </trkpt>
      <trkpt lat="47.19045" lon="-1.91452">
        <ele>26</ele>
        <time>2015-06-21T07:57:27Z</time>
      </trkpt>
      <trkpt lat="47.19017" lon="-1.91469">
        <ele>27</ele>
        <time>2015-06-21T07:57:35Z</time>
      </trkpt>
      <trkpt lat="47.19006" lon="-1.91475">
        <ele>27</ele>
        <time>2015-06-21T07:57:38Z</time>
      </trkpt>
      <trkpt lat="47.18991" lon="-1.91484">
        <ele>28</ele>
        <time>2015-06-21T07:57:42Z</time>
      </trkpt>
      <trkpt lat="47.18969" lon="-1.91498">
        <ele>28</ele>
        <time>2015-06-21T07:57:48Z</time>
      </trkpt>
      <trkpt lat="47.18954" lon="-1.91505">
        <ele>28</ele>
        <time>2015-06-21T07:57:52Z</time>
      </trkpt>
      <trkpt lat="47.18926" lon="-1.91523">
        <ele>28</ele>
        <time>2015-06-21T07:58:00Z</time>
      </trkpt>
      <trkpt lat="47.18915" lon="-1.9153">
        <ele>28</ele>
        <time>2015-06-21T07:58:03Z</time>
      </trkpt>
      <trkpt lat="47.18899" lon="-1.91531">
        <ele>28</ele>
        <time>2015-06-21T07:58:07Z</time>
      </trkpt>
      <trkpt lat="47.18885" lon="-1.91503">
        <ele>27</ele>
        <time>2015-06-21T07:58:12Z</time>
      </trkpt>
      <trkpt lat="47.18861" lon="-1.91446">
        <ele>26</ele>
        <time>2015-06-21T07:58:21Z</time>
      </trkpt>
      <trkpt lat="47.18857" lon="-1.91431">
        <ele>25</ele>
        <time>2015-06-21T07:58:23Z</time>
      </trkpt>
      <trkpt lat="47.18848" lon="-1.91399">
        <ele>24</ele>
        <time>2015-06-21T07:58:31Z</time>
      </trkpt>
      <trkpt lat="47.18848" lon="-1.91397">
        <ele>24</ele>
        <time>2015-06-21T07:58:32Z</time>
      </trkpt>
      <trkpt lat="47.1884" lon="-1.91399">
        <ele>24</ele>
        <time>2015-06-21T07:58:38Z</time>
      </trkpt>
      <trkpt lat="47.18832" lon="-1.91385">
        <ele>23</ele>
        <time>2015-06-21T07:58:43Z</time>
      </trkpt>
      <trkpt lat="47.18826" lon="-1.91377">
        <ele>22</ele>
        <time>2015-06-21T07:58:47Z</time>
      </trkpt>
      <trkpt lat="47.18813" lon="-1.91373">
        <ele>21</ele>
        <time>2015-06-21T07:58:52Z</time>
      </trkpt>
      <trkpt lat="47.18799" lon="-1.9137">
        <ele>21</ele>
        <time>2015-06-21T07:58:57Z</time>
      </trkpt>
      <trkpt lat="47.18786" lon="-1.91382">
        <ele>21</ele>
        <time>2015-06-21T07:59:02Z</time>
      </trkpt>
      <trkpt lat="47.18772" lon="-1.91389">
        <ele>21</ele>
        <time>2015-06-21T07:59:09Z</time>
      </trkpt>
      <trkpt lat="47.18765" lon="-1.9139">
        <ele>20</ele>
        <time>2015-06-21T07:59:12Z</time>
      </trkpt>
      <trkpt lat="47.18752" lon="-1.91394">
        <ele>20</ele>
        <time>2015-06-21T07:59:17Z</time>
      </trkpt>
      <trkpt lat="47.18734" lon="-1.91406">
        <ele>20</ele>
        <time>2015-06-21T07:59:24Z</time>
      </trkpt>
      <trkpt lat="47.18721" lon="-1.91418">
        <ele>19</ele>
        <time>2015-06-21T07:59:30Z</time>
      </trkpt>
      <trkpt lat="47.18718" lon="-1.91423">
        <ele>19</ele>
        <time>2015-06-21T07:59:32Z</time>
      </trkpt>
      <trkpt lat="47.18708" lon="-1.91437">
        <ele>19</ele>
        <time>2015-06-21T07:59:37Z</time>
      </trkpt>
      <trkpt lat="47.18695" lon="-1.91455">
        <ele>18</ele>
        <time>2015-06-21T07:59:44Z</time>
      </trkpt>
      <trkpt lat="47.1869" lon="-1.91462">
        <ele>18</ele>
        <time>2015-06-21T07:59:47Z</time>
      </trkpt>
      <trkpt lat="47.18688" lon="-1.91475">
        <ele>18</ele>
        <time>2015-06-21T07:59:52Z</time>
      </trkpt>
      <trkpt lat="47.18694" lon="-1.91487">
        <ele>19</ele>
        <time>2015-06-21T07:59:57Z</time>
      </trkpt>
      <trkpt lat="47.18697" lon="-1.91496">
        <ele>20</ele>
        <time>2015-06-21T08:00:06Z</time>
      </trkpt>
      <trkpt lat="47.18697" lon="-1.91497">
        <ele>20</ele>
        <time>2015-06-21T08:00:07Z</time>
      </trkpt>
      <trkpt lat="47.18693" lon="-1.91507">
        <ele>19</ele>
        <time>2015-06-21T08:00:16Z</time>
      </trkpt>
      <trkpt lat="47.1869" lon="-1.91511">
        <ele>19</ele>
        <time>2015-06-21T08:00:19Z</time>
      </trkpt>
      <trkpt lat="47.18686" lon="-1.91513">
        <ele>19</ele>
        <time>2015-06-21T08:00:22Z</time>
      </trkpt>
      <trkpt lat="47.18678" lon="-1.9151">
        <ele>18</ele>
        <time>2015-06-21T08:00:27Z</time>
      </trkpt>
      <trkpt lat="47.18669" lon="-1.91515">
        <ele>17</ele>
        <time>2015-06-21T08:00:32Z</time>
      </trkpt>
      <trkpt lat="47.18673" lon="-1.91531">
        <ele>18</ele>
        <time>2015-06-21T08:00:37Z</time>
      </trkpt>
      <trkpt lat="47.18685" lon="-1.91539">
        <ele>20</ele>
        <time>2015-06-21T08:00:42Z</time>
      </trkpt>
      <trkpt lat="47.18698" lon="-1.91549">
        <ele>22</ele>
        <time>2015-06-21T08:00:48Z</time>
      </trkpt>
      <trkpt lat="47.18707" lon="-1.91561">
        <ele>22</ele>
        <time>2015-06-21T08:00:56Z</time>
      </trkpt>
      <trkpt lat="47.18707" lon="-1.91555">
        <ele>22</ele>
        <time>2015-06-21T08:01:01Z</time>
      </trkpt>
      <trkpt lat="47.18707" lon="-1.91549">
        <ele>22</ele>
        <time>2015-06-21T08:01:05Z</time>
      </trkpt>
      <trkpt lat="47.18709" lon="-1.91547">
        <ele>22</ele>
        <time>2015-06-21T08:01:08Z</time>
      </trkpt>
      <trkpt lat="47.18714" lon="-1.91549">
        <ele>22</ele>
        <time>2015-06-21T08:01:13Z</time>
      </trkpt>
      <trkpt lat="47.18718" lon="-1.91555">
        <ele>23</ele>
        <time>2015-06-21T08:01:20Z</time>
      </trkpt>
      <trkpt lat="47.1872" lon="-1.91556">
        <ele>23</ele>
        <time>2015-06-21T08:01:22Z</time>
      </trkpt>
      <trkpt lat="47.18722" lon="-1.91562">
        <ele>23</ele>
        <time>2015-06-21T08:01:28Z</time>
      </trkpt>
      <trkpt lat="47.18728" lon="-1.9157">
        <ele>24</ele>
        <time>2015-06-21T08:01:36Z</time>
      </trkpt>
      <trkpt lat="47.18732" lon="-1.91575">
        <ele>24</ele>
        <time>2015-06-21T08:01:40Z</time>
      </trkpt>
      <trkpt lat="47.18737" lon="-1.9158">
        <ele>24</ele>
        <time>2015-06-21T08:01:45Z</time>
      </trkpt>
      <trkpt lat="47.18737" lon="-1.91583">
        <ele>24</ele>
        <time>2015-06-21T08:01:47Z</time>
      </trkpt>
      <trkpt lat="47.1874" lon="-1.91589">
        <ele>25</ele>
        <time>2015-06-21T08:01:52Z</time>
      </trkpt>
      <trkpt lat="47.18745" lon="-1.91595">
        <ele>25</ele>
        <time>2015-06-21T08:01:57Z</time>
      </trkpt>
      <trkpt lat="47.18752" lon="-1.91602">
        <ele>25</ele>
        <time>2015-06-21T08:02:03Z</time>
      </trkpt>
      <trkpt lat="47.1876" lon="-1.9161">
        <ele>25</ele>
        <time>2015-06-21T08:02:09Z</time>
      </trkpt>
      <trkpt lat="47.18763" lon="-1.91617">
        <ele>25</ele>
        <time>2015-06-21T08:02:13Z</time>
      </trkpt>
      <trkpt lat="47.18763" lon="-1.91625">
        <ele>26</ele>
        <time>2015-06-21T08:02:17Z</time>
      </trkpt>
      <trkpt lat="47.18763" lon="-1.91637">
        <ele>26</ele>
        <time>2015-06-21T08:02:23Z</time>
      </trkpt>
      <trkpt lat="47.18767" lon="-1.91645">
        <ele>26</ele>
        <time>2015-06-21T08:02:27Z</time>
      </trkpt>
      <trkpt lat="47.18779" lon="-1.91651">
        <ele>27</ele>
        <time>2015-06-21T08:02:33Z</time>
      </trkpt>
      <trkpt lat="47.18781" lon="-1.91659">
        <ele>27</ele>
        <time>2015-06-21T08:02:37Z</time>
      </trkpt>
      <trkpt lat="47.18779" lon="-1.91668">
        <ele>28</ele>
        <time>2015-06-21T08:02:42Z</time>
      </trkpt>
      <trkpt lat="47.18775" lon="-1.91672">
        <ele>28</ele>
        <time>2015-06-21T08:02:47Z</time>
      </trkpt>
      <trkpt lat="47.18758" lon="-1.91672">
        <ele>27</ele>
        <time>2015-06-21T08:02:53Z</time>
      </trkpt>
      <trkpt lat="47.18748" lon="-1.91677">
        <ele>27</ele>
        <time>2015-06-21T08:02:58Z</time>
      </trkpt>
      <trkpt lat="47.18744" lon="-1.91671">
        <ele>27</ele>
        <time>2015-06-21T08:03:02Z</time>
      </trkpt>
      <trkpt lat="47.18732" lon="-1.91675">
        <ele>27</ele>
        <time>2015-06-21T08:03:07Z</time>
      </trkpt>
      <trkpt lat="47.18719" lon="-1.91683">
        <ele>27</ele>
        <time>2015-06-21T08:03:16Z</time>
      </trkpt>
      <trkpt lat="47.18722" lon="-1.91679">
        <ele>27</ele>
        <time>2015-06-21T08:03:21Z</time>
      </trkpt>
      <trkpt lat="47.18722" lon="-1.91679">
        <ele>27</ele>
        <time>2015-06-21T08:03:22Z</time>
      </trkpt>
      <trkpt lat="47.18723" lon="-1.91679">
        <ele>27</ele>
        <time>2015-06-21T08:03:27Z</time>
      </trkpt>
      <trkpt lat="47.1873" lon="-1.91666">
        <ele>27</ele>
        <time>2015-06-21T08:03:32Z</time>
      </trkpt>
      <trkpt lat="47.18737" lon="-1.91647">
        <ele>26</ele>
        <time>2015-06-21T08:03:37Z</time>
      </trkpt>
      <trkpt lat="47.18736" lon="-1.9162">
        <ele>25</ele>
        <time>2015-06-21T08:03:43Z</time>
      </trkpt>
      <trkpt lat="47.18725" lon="-1.91615">
        <ele>25</ele>
        <time>2015-06-21T08:03:47Z</time>
      </trkpt>
      <trkpt lat="47.18711" lon="-1.91601">
        <ele>24</ele>
        <time>2015-06-21T08:03:54Z</time>
      </trkpt>
      <trkpt lat="47.1872" lon="-1.91599">
        <ele>24</ele>
        <time>2015-06-21T08:03:57Z</time>
      </trkpt>
      <trkpt lat="47.18734" lon="-1.91589">
        <ele>24</ele>
        <time>2015-06-21T08:04:04Z</time>
      </trkpt>
      <trkpt lat="47.1873" lon="-1.91587">
        <ele>24</ele>
        <time>2015-06-21T08:04:07Z</time>
      </trkpt>
      <trkpt lat="47.18707" lon="-1.91595">
        <ele>24</ele>
        <time>2015-06-21T08:04:15Z</time>
      </trkpt>
      <trkpt lat="47.18699" lon="-1.91594">
        <ele>23</ele>
        <time>2015-06-21T08:04:17Z</time>
      </trkpt>
      <trkpt lat="47.18691" lon="-1.91583">
        <ele>22</ele>
        <time>2015-06-21T08:04:23Z</time>
      </trkpt>
      <trkpt lat="47.18687" lon="-1.91576">
        <ele>22</ele>
        <time>2015-06-21T08:04:28Z</time>
      </trkpt>
      <trkpt lat="47.18678" lon="-1.9157">
        <ele>21</ele>
        <time>2015-06-21T08:04:33Z</time>
      </trkpt>
      <trkpt lat="47.18673" lon="-1.91562">
        <ele>20</ele>
        <time>2015-06-21T08:04:38Z</time>
      </trkpt>
      <trkpt lat="47.18671" lon="-1.91574">
        <ele>20</ele>
        <time>2015-06-21T08:04:43Z</time>
      </trkpt>
      <trkpt lat="47.18667" lon="-1.91583">
        <ele>20</ele>
        <time>2015-06-21T08:04:47Z</time>
      </trkpt>
      <trkpt lat="47.18667" lon="-1.916">
        <ele>21</ele>
        <time>2015-06-21T08:04:54Z</time>
      </trkpt>
      <trkpt lat="47.18669" lon="-1.91606">
        <ele>21</ele>
        <time>2015-06-21T08:04:57Z</time>
      </trkpt>
      <trkpt lat="47.18664" lon="-1.91622">
        <ele>21</ele>
        <time>2015-06-21T08:05:04Z</time>
      </trkpt>
      <trkpt lat="47.18662" lon="-1.91635">
        <ele>21</ele>
        <time>2015-06-21T08:05:07Z</time>
      </trkpt>
      <trkpt lat="47.18652" lon="-1.91659">
        <ele>21</ele>
        <time>2015-06-21T08:05:12Z</time>
      </trkpt>
      <trkpt lat="47.18655" lon="-1.9169">
        <ele>24</ele>
        <time>2015-06-21T08:05:21Z</time>
      </trkpt>
      <trkpt lat="47.18657" lon="-1.91692">
        <ele>24</ele>
        <time>2015-06-21T08:05:22Z</time>
      </trkpt>
      <trkpt lat="47.18678" lon="-1.91708">
        <ele>26</ele>
        <time>2015-06-21T08:05:31Z</time>
      </trkpt>
      <trkpt lat="47.18695" lon="-1.91709">
        <ele>27</ele>
        <time>2015-06-21T08:05:36Z</time>
      </trkpt>
      <trkpt lat="47.18701" lon="-1.91709">
        <ele>27</ele>
        <time>2015-06-21T08:05:38Z</time>
      </trkpt>
      <trkpt lat="47.18715" lon="-1.91707">
        <ele>27</ele>
        <time>2015-06-21T08:05:43Z</time>
      </trkpt>
      <trkpt lat="47.18733" lon="-1.91702">
        <ele>28</ele>
        <time>2015-06-21T08:05:47Z</time>
      </trkpt>
      <trkpt lat="47.18767" lon="-1.91702">
        <ele>29</ele>
        <time>2015-06-21T08:05:55Z</time>
      </trkpt>
      <trkpt lat="47.18776" lon="-1.91702">
        <ele>29</ele>
        <time>2015-06-21T08:05:57Z</time>
      </trkpt>
      <trkpt lat="47.18805" lon="-1.91712">
        <ele>30</ele>
        <time>2015-06-21T08:06:04Z</time>
      </trkpt>
      <trkpt lat="47.18827" lon="-1.91713">
        <ele>30</ele>
        <time>2015-06-21T08:06:09Z</time>
      </trkpt>
      <trkpt lat="47.18839" lon="-1.91714">
        <ele>30</ele>
        <time>2015-06-21T08:06:12Z</time>
      </trkpt>
      <trkpt lat="47.18866" lon="-1.91715">
        <ele>30</ele>
        <time>2015-06-21T08:06:19Z</time>
      </trkpt>
      <trkpt lat="47.18882" lon="-1.91707">
        <ele>30</ele>
        <time>2015-06-21T08:06:23Z</time>
      </trkpt>
      <trkpt lat="47.18899" lon="-1.91693">
        <ele>30</ele>
        <time>2015-06-21T08:06:27Z</time>
      </trkpt>
      <trkpt lat="47.18931" lon="-1.91682">
        <ele>31</ele>
        <time>2015-06-21T08:06:35Z</time>
      </trkpt>
      <trkpt lat="47.18943" lon="-1.9168">
        <ele>31</ele>
        <time>2015-06-21T08:06:38Z</time>
      </trkpt>
      <trkpt lat="47.18969" lon="-1.91685">
        <ele>32</ele>
        <time>2015-06-21T08:06:44Z</time>
      </trkpt>
      <trkpt lat="47.18991" lon="-1.91686">
        <ele>32</ele>
        <time>2015-06-21T08:06:49Z</time>
      </trkpt>
      <trkpt lat="47.1901" lon="-1.9168">
        <ele>31</ele>
        <time>2015-06-21T08:06:53Z</time>
      </trkpt>
      <trkpt lat="47.19032" lon="-1.91668">
        <ele>30</ele>
        <time>2015-06-21T08:06:57Z</time>
      </trkpt>
      <trkpt lat="47.19067" lon="-1.91648">
        <ele>28</ele>
        <time>2015-06-21T08:07:02Z</time>
      </trkpt>
      <trkpt lat="47.19116" lon="-1.91624">
        <ele>24</ele>
        <time>2015-06-21T08:07:08Z</time>
      </trkpt>
      <trkpt lat="47.19178" lon="-1.91617">
        <ele>20</ele>
        <time>2015-06-21T08:07:15Z</time>
      </trkpt>
      <trkpt lat="47.19196" lon="-1.91617">
        <ele>18</ele>
        <time>2015-06-21T08:07:17Z</time>
      </trkpt>
      <trkpt lat="47.1924" lon="-1.91633">
        <ele>16</ele>
        <time>2015-06-21T08:07:22Z</time>
      </trkpt>
      <trkpt lat="47.19287" lon="-1.91649">
        <ele>15</ele>
        <time>2015-06-21T08:07:28Z</time>
      </trkpt>
      <trkpt lat="47.19298" lon="-1.91676">
        <ele>15</ele>
        <time>2015-06-21T08:07:35Z</time>
      </trkpt>
      <trkpt lat="47.19294" lon="-1.9169">
        <ele>15</ele>
        <time>2015-06-21T08:07:38Z</time>
      </trkpt>
      <trkpt lat="47.19287" lon="-1.91727">
        <ele>16</ele>
        <time>2015-06-21T08:07:44Z</time>
      </trkpt>
      <trkpt lat="47.19283" lon="-1.91744">
        <ele>17</ele>
        <time>2015-06-21T08:07:47Z</time>
      </trkpt>
      <trkpt lat="47.19274" lon="-1.91767">
        <ele>17</ele>
        <time>2015-06-21T08:07:52Z</time>
      </trkpt>
      <trkpt lat="47.1926" lon="-1.91803">
        <ele>18</ele>
        <time>2015-06-21T08:08:00Z</time>
      </trkpt>
      <trkpt lat="47.19252" lon="-1.91837">
        <ele>18</ele>
        <time>2015-06-21T08:08:03Z</time>
      </trkpt>
      <trkpt lat="47.19234" lon="-1.91863">
        <ele>19</ele>
        <time>2015-06-21T08:08:10Z</time>
      </trkpt>
      <trkpt lat="47.19226" lon="-1.91864">
        <ele>19</ele>
        <time>2015-06-21T08:08:13Z</time>
      </trkpt>
      <trkpt lat="47.19216" lon="-1.91871">
        <ele>19</ele>
        <time>2015-06-21T08:08:17Z</time>
      </trkpt>
      <trkpt lat="47.19198" lon="-1.91884">
        <ele>20</ele>
        <time>2015-06-21T08:08:26Z</time>
      </trkpt>
      <trkpt lat="47.19196" lon="-1.91885">
        <ele>20</ele>
        <time>2015-06-21T08:08:27Z</time>
      </trkpt>
      <trkpt lat="47.19178" lon="-1.91898">
        <ele>20</ele>
        <time>2015-06-21T08:08:36Z</time>
      </trkpt>
      <trkpt lat="47.19166" lon="-1.919">
        <ele>21</ele>
        <time>2015-06-21T08:08:41Z</time>
      </trkpt>
      <trkpt lat="47.19158" lon="-1.9192">
        <ele>22</ele>
        <time>2015-06-21T08:08:46Z</time>
      </trkpt>
      <trkpt lat="47.19162" lon="-1.91936">
        <ele>22</ele>
        <time>2015-06-21T08:08:48Z</time>
      </trkpt>
      <trkpt lat="47.19182" lon="-1.92016">
        <ele>21</ele>
        <time>2015-06-21T08:08:56Z</time>
      </trkpt>
      <trkpt lat="47.19183" lon="-1.92022">
        <ele>21</ele>
        <time>2015-06-21T08:08:57Z</time>
      </trkpt>
      <trkpt lat="47.19184" lon="-1.92058">
        <ele>21</ele>
        <time>2015-06-21T08:09:02Z</time>
      </trkpt>
      <trkpt lat="47.19181" lon="-1.92093">
        <ele>22</ele>
        <time>2015-06-21T08:09:07Z</time>
      </trkpt>
      <trkpt lat="47.19188" lon="-1.92125">
        <ele>22</ele>
        <time>2015-06-21T08:09:12Z</time>
      </trkpt>
      <trkpt lat="47.19196" lon="-1.92154">
        <ele>23</ele>
        <time>2015-06-21T08:09:17Z</time>
      </trkpt>
      <trkpt lat="47.19187" lon="-1.92167">
        <ele>23</ele>
        <time>2015-06-21T08:09:22Z</time>
      </trkpt>
      <trkpt lat="47.19169" lon="-1.92182">
        <ele>24</ele>
        <time>2015-06-21T08:09:28Z</time>
      </trkpt>
      <trkpt lat="47.19156" lon="-1.92197">
        <ele>25</ele>
        <time>2015-06-21T08:09:32Z</time>
      </trkpt>
      <trkpt lat="47.19143" lon="-1.92218">
        <ele>26</ele>
        <time>2015-06-21T08:09:37Z</time>
      </trkpt>
      <trkpt lat="47.1913" lon="-1.92237">
        <ele>27</ele>
        <time>2015-06-21T08:09:42Z</time>
      </trkpt>
      <trkpt lat="47.19118" lon="-1.9226">
        <ele>28</ele>
        <time>2015-06-21T08:09:47Z</time>
      </trkpt>
      <trkpt lat="47.191" lon="-1.92299">
        <ele>29</ele>
        <time>2015-06-21T08:09:56Z</time>
      </trkpt>
      <trkpt lat="47.19099" lon="-1.92304">
        <ele>29</ele>
        <time>2015-06-21T08:09:57Z</time>
      </trkpt>
      <trkpt lat="47.1909" lon="-1.92318">
        <ele>29</ele>
        <time>2015-06-21T08:10:02Z</time>
      </trkpt>
      <trkpt lat="47.1908" lon="-1.92331">
        <ele>30</ele>
        <time>2015-06-21T08:10:07Z</time>
      </trkpt>
      <trkpt lat="47.1907" lon="-1.92344">
        <ele>31</ele>
        <time>2015-06-21T08:10:12Z</time>
      </trkpt>
      <trkpt lat="47.19061" lon="-1.92365">
        <ele>31</ele>
        <time>2015-06-21T08:10:18Z</time>
      </trkpt>
      <trkpt lat="47.1905" lon="-1.92373">
        <ele>32</ele>
        <time>2015-06-21T08:10:22Z</time>
      </trkpt>
      <trkpt lat="47.1902" lon="-1.92393">
        <ele>33</ele>
        <time>2015-06-21T08:10:30Z</time>
      </trkpt>
      <trkpt lat="47.19013" lon="-1.92395">
        <ele>34</ele>
        <time>2015-06-21T08:10:32Z</time>
      </trkpt>
      <trkpt lat="47.18991" lon="-1.92401">
        <ele>35</ele>
        <time>2015-06-21T08:10:38Z</time>
      </trkpt>
      <trkpt lat="47.18979" lon="-1.92411">
        <ele>36</ele>
        <time>2015-06-21T08:10:44Z</time>
      </trkpt>
      <trkpt lat="47.18961" lon="-1.92425">
        <ele>37</ele>
        <time>2015-06-21T08:10:50Z</time>
      </trkpt>
      <trkpt lat="47.18955" lon="-1.92427">
        <ele>37</ele>
        <time>2015-06-21T08:10:52Z</time>
      </trkpt>
      <trkpt lat="47.1894" lon="-1.92434">
        <ele>37</ele>
        <time>2015-06-21T08:10:57Z</time>
      </trkpt>
      <trkpt lat="47.18924" lon="-1.92438">
        <ele>38</ele>
        <time>2015-06-21T08:11:02Z</time>
      </trkpt>
      <trkpt lat="47.18909" lon="-1.92446">
        <ele>38</ele>
        <time>2015-06-21T08:11:07Z</time>
      </trkpt>
      <trkpt lat="47.18892" lon="-1.92455">
        <ele>39</ele>
        <time>2015-06-21T08:11:12Z</time>
      </trkpt>
      <trkpt lat="47.18873" lon="-1.92466">
        <ele>39</ele>
        <time>2015-06-21T08:11:17Z</time>
      </trkpt>
      <trkpt lat="47.18853" lon="-1.92475">
        <ele>39</ele>
        <time>2015-06-21T08:11:22Z</time>
      </trkpt>
      <trkpt lat="47.18835" lon="-1.92491">
        <ele>40</ele>
        <time>2015-06-21T08:11:27Z</time>
      </trkpt>
      <trkpt lat="47.1881" lon="-1.92501">
        <ele>40</ele>
        <time>2015-06-21T08:11:33Z</time>
      </trkpt>
      <trkpt lat="47.18784" lon="-1.92513">
        <ele>39</ele>
        <time>2015-06-21T08:11:39Z</time>
      </trkpt>
      <trkpt lat="47.1877" lon="-1.9252">
        <ele>39</ele>
        <time>2015-06-21T08:11:42Z</time>
      </trkpt>
      <trkpt lat="47.18746" lon="-1.92526">
        <ele>39</ele>
        <time>2015-06-21T08:11:47Z</time>
      </trkpt>
      <trkpt lat="47.18718" lon="-1.92529">
        <ele>39</ele>
        <time>2015-06-21T08:11:52Z</time>
      </trkpt>
      <trkpt lat="47.18688" lon="-1.92541">
        <ele>38</ele>
        <time>2015-06-21T08:11:57Z</time>
      </trkpt>
      <trkpt lat="47.18658" lon="-1.92542">
        <ele>38</ele>
        <time>2015-06-21T08:12:02Z</time>
      </trkpt>
      <trkpt lat="47.18613" lon="-1.92559">
        <ele>38</ele>
        <time>2015-06-21T08:12:10Z</time>
      </trkpt>
      <trkpt lat="47.18609" lon="-1.92557">
        <ele>37</ele>
        <time>2015-06-21T08:12:14Z</time>
      </trkpt>
      <trkpt lat="47.18612" lon="-1.9254">
        <ele>37</ele>
        <time>2015-06-21T08:12:20Z</time>
      </trkpt>
      <trkpt lat="47.18616" lon="-1.92532">
        <ele>37</ele>
        <time>2015-06-21T08:12:24Z</time>
      </trkpt>
      <trkpt lat="47.18613" lon="-1.9252">
        <ele>36</ele>
        <time>2015-06-21T08:12:30Z</time>
      </trkpt>
      <trkpt lat="47.18613" lon="-1.92516">
        <ele>36</ele>
        <time>2015-06-21T08:12:32Z</time>
      </trkpt>
      <trkpt lat="47.18606" lon="-1.92475">
        <ele>36</ele>
        <time>2015-06-21T08:12:40Z</time>
      </trkpt>
      <trkpt lat="47.18599" lon="-1.92448">
        <ele>35</ele>
        <time>2015-06-21T08:12:46Z</time>
      </trkpt>
      <trkpt lat="47.18599" lon="-1.92445">
        <ele>35</ele>
        <time>2015-06-21T08:12:47Z</time>
      </trkpt>
      <trkpt lat="47.18595" lon="-1.92426">
        <ele>34</ele>
        <time>2015-06-21T08:12:55Z</time>
      </trkpt>
      <trkpt lat="47.18594" lon="-1.92422">
        <ele>34</ele>
        <time>2015-06-21T08:12:57Z</time>
      </trkpt>
      <trkpt lat="47.18583" lon="-1.92403">
        <ele>34</ele>
        <time>2015-06-21T08:13:03Z</time>
      </trkpt>
      <trkpt lat="47.18574" lon="-1.92395">
        <ele>33</ele>
        <time>2015-06-21T08:13:07Z</time>
      </trkpt>
      <trkpt lat="47.18558" lon="-1.924">
        <ele>33</ele>
        <time>2015-06-21T08:13:13Z</time>
      </trkpt>
      <trkpt lat="47.18557" lon="-1.92407">
        <ele>33</ele>
        <time>2015-06-21T08:13:17Z</time>
      </trkpt>
      <trkpt lat="47.18558" lon="-1.92417">
        <ele>33</ele>
        <time>2015-06-21T08:13:24Z</time>
      </trkpt>
      <trkpt lat="47.18555" lon="-1.92422">
        <ele>33</ele>
        <time>2015-06-21T08:13:31Z</time>
      </trkpt>
      <trkpt lat="47.18553" lon="-1.92416">
        <ele>33</ele>
        <time>2015-06-21T08:13:36Z</time>
      </trkpt>
      <trkpt lat="47.18548" lon="-1.92407">
        <ele>33</ele>
        <time>2015-06-21T08:13:40Z</time>
      </trkpt>
      <trkpt lat="47.18546" lon="-1.92403">
        <ele>33</ele>
        <time>2015-06-21T08:13:42Z</time>
      </trkpt>
      <trkpt lat="47.18534" lon="-1.92392">
        <ele>32</ele>
        <time>2015-06-21T08:13:51Z</time>
      </trkpt>
      <trkpt lat="47.18531" lon="-1.9239">
        <ele>32</ele>
        <time>2015-06-21T08:13:52Z</time>
      </trkpt>
      <trkpt lat="47.18512" lon="-1.92393">
        <ele>32</ele>
        <time>2015-06-21T08:13:59Z</time>
      </trkpt>
      <trkpt lat="47.1852" lon="-1.92406">
        <ele>33</ele>
        <time>2015-06-21T08:14:05Z</time>
      </trkpt>
      <trkpt lat="47.18524" lon="-1.92409">
        <ele>33</ele>
        <time>2015-06-21T08:14:07Z</time>
      </trkpt>
      <trkpt lat="47.18536" lon="-1.9243">
        <ele>33</ele>
        <time>2015-06-21T08:14:16Z</time>
      </trkpt>
      <trkpt lat="47.18536" lon="-1.92433">
        <ele>34</ele>
        <time>2015-06-21T08:14:17Z</time>
      </trkpt>
      <trkpt lat="47.1854" lon="-1.92439">
        <ele>34</ele>
        <time>2015-06-21T08:14:22Z</time>
      </trkpt>
      <trkpt lat="47.18552" lon="-1.92444">
        <ele>34</ele>
        <time>2015-06-21T08:14:29Z</time>
      </trkpt>
      <trkpt lat="47.18546" lon="-1.92441">
        <ele>34</ele>
        <time>2015-06-21T08:14:32Z</time>
      </trkpt>
      <trkpt lat="47.18541" lon="-1.92443">
        <ele>34</ele>
        <time>2015-06-21T08:14:37Z</time>
      </trkpt>
      <trkpt lat="47.18537" lon="-1.9245">
        <ele>34</ele>
        <time>2015-06-21T08:14:43Z</time>
      </trkpt>
      <trkpt lat="47.18528" lon="-1.92453">
        <ele>34</ele>
        <time>2015-06-21T08:14:51Z</time>
      </trkpt>
      <trkpt lat="47.18524" lon="-1.92455">
        <ele>34</ele>
        <time>2015-06-21T08:14:56Z</time>
      </trkpt>
      <trkpt lat="47.18517" lon="-1.9246">
        <ele>34</ele>
        <time>2015-06-21T08:15:01Z</time>
      </trkpt>
      <trkpt lat="47.18514" lon="-1.92466">
        <ele>35</ele>
        <time>2015-06-21T08:15:04Z</time>
      </trkpt>
      <trkpt lat="47.18504" lon="-1.92478">
        <ele>35</ele>
        <time>2015-06-21T08:15:07Z</time>
      </trkpt>
      <trkpt lat="47.18496" lon="-1.92492">
        <ele>36</ele>
        <time>2015-06-21T08:15:15Z</time>
      </trkpt>
      <trkpt lat="47.1849" lon="-1.92496">
        <ele>36</ele>
        <time>2015-06-21T08:15:17Z</time>
      </trkpt>
      <trkpt lat="47.18479" lon="-1.92499">
        <ele>36</ele>
        <time>2015-06-21T08:15:25Z</time>
      </trkpt>
      <trkpt lat="47.18478" lon="-1.92498">
        <ele>36</ele>
        <time>2015-06-21T08:15:27Z</time>
      </trkpt>
      <trkpt lat="47.1846" lon="-1.92488">
        <ele>36</ele>
        <time>2015-06-21T08:15:35Z</time>
      </trkpt>
      <trkpt lat="47.18454" lon="-1.92486">
        <ele>36</ele>
        <time>2015-06-21T08:15:37Z</time>
      </trkpt>
      <trkpt lat="47.18445" lon="-1.92497">
        <ele>37</ele>
        <time>2015-06-21T08:15:43Z</time>
      </trkpt>
      <trkpt lat="47.18442" lon="-1.92492">
        <ele>37</ele>
        <time>2015-06-21T08:15:48Z</time>
      </trkpt>
      <trkpt lat="47.18441" lon="-1.92486">
        <ele>37</ele>
        <time>2015-06-21T08:15:52Z</time>
      </trkpt>
      <trkpt lat="47.18435" lon="-1.92476">
        <ele>37</ele>
        <time>2015-06-21T08:15:59Z</time>
      </trkpt>
      <trkpt lat="47.18431" lon="-1.92469">
        <ele>37</ele>
        <time>2015-06-21T08:16:03Z</time>
      </trkpt>
      <trkpt lat="47.18429" lon="-1.9247">
        <ele>37</ele>
        <time>2015-06-21T08:16:07Z</time>
      </trkpt>
      <trkpt lat="47.1842" lon="-1.92469">
        <ele>37</ele>
        <time>2015-06-21T08:16:13Z</time>
      </trkpt>
      <trkpt lat="47.18411" lon="-1.92467">
        <ele>38</ele>
        <time>2015-06-21T08:16:17Z</time>
      </trkpt>
      <trkpt lat="47.18407" lon="-1.92473">
        <ele>38</ele>
        <time>2015-06-21T08:16:25Z</time>
      </trkpt>
      <trkpt lat="47.18399" lon="-1.92468">
        <ele>39</ele>
        <time>2015-06-21T08:16:29Z</time>
      </trkpt>
      <trkpt lat="47.18385" lon="-1.92466">
        <ele>40</ele>
        <time>2015-06-21T08:16:35Z</time>
      </trkpt>
      <trkpt lat="47.18378" lon="-1.9247">
        <ele>40</ele>
        <time>2015-06-21T08:16:38Z</time>
      </trkpt>
      <trkpt lat="47.18375" lon="-1.92473">
        <ele>41</ele>
        <time>2015-06-21T08:16:44Z</time>
      </trkpt>
      <trkpt lat="47.18374" lon="-1.92473">
        <ele>41</ele>
        <time>2015-06-21T08:16:47Z</time>
      </trkpt>
      <trkpt lat="47.18367" lon="-1.92483">
        <ele>41</ele>
        <time>2015-06-21T08:16:55Z</time>
      </trkpt>
      <trkpt lat="47.18365" lon="-1.92486">
        <ele>41</ele>
        <time>2015-06-21T08:16:57Z</time>
      </trkpt>
      <trkpt lat="47.18373" lon="-1.92503">
        <ele>41</ele>
        <time>2015-06-21T08:17:02Z</time>
      </trkpt>
      <trkpt lat="47.1838" lon="-1.92508">
        <ele>41</ele>
        <time>2015-06-21T08:17:07Z</time>
      </trkpt>
      <trkpt lat="47.18397" lon="-1.92516">
        <ele>40</ele>
        <time>2015-06-21T08:17:14Z</time>
      </trkpt>
      <trkpt lat="47.18404" lon="-1.92516">
        <ele>39</ele>
        <time>2015-06-21T08:17:17Z</time>
      </trkpt>
      <trkpt lat="47.18421" lon="-1.92554">
        <ele>40</ele>
        <time>2015-06-21T08:17:26Z</time>
      </trkpt>
      <trkpt lat="47.18424" lon="-1.92563">
        <ele>40</ele>
        <time>2015-06-21T08:17:28Z</time>
      </trkpt>
      <trkpt lat="47.18427" lon="-1.92573">
        <ele>40</ele>
        <time>2015-06-21T08:17:32Z</time>
      </trkpt>
      <trkpt lat="47.18433" lon="-1.92594">
        <ele>40</ele>
        <time>2015-06-21T08:17:37Z</time>
      </trkpt>
      <trkpt lat="47.18441" lon="-1.92616">
        <ele>40</ele>
        <time>2015-06-21T08:17:43Z</time>
      </trkpt>
      <trkpt lat="47.18448" lon="-1.92629">
        <ele>41</ele>
        <time>2015-06-21T08:17:48Z</time>
      </trkpt>
      <trkpt lat="47.18463" lon="-1.92629">
        <ele>41</ele>
        <time>2015-06-21T08:17:51Z</time>
      </trkpt>
      <trkpt lat="47.18485" lon="-1.92621">
        <ele>40</ele>
        <time>2015-06-21T08:17:57Z</time>
      </trkpt>
      <trkpt lat="47.18492" lon="-1.92632">
        <ele>40</ele>
        <time>2015-06-21T08:18:01Z</time>
      </trkpt>
      <trkpt lat="47.18484" lon="-1.92641">
        <ele>41</ele>
        <time>2015-06-21T08:18:09Z</time>
      </trkpt>
      <trkpt lat="47.18482" lon="-1.92643">
        <ele>41</ele>
        <time>2015-06-21T08:18:13Z</time>
      </trkpt>
      <trkpt lat="47.18483" lon="-1.92643">
        <ele>41</ele>
        <time>2015-06-21T08:18:17Z</time>
      </trkpt>
      <trkpt lat="47.18482" lon="-1.92643">
        <ele>41</ele>
        <time>2015-06-21T08:18:24Z</time>
      </trkpt>
      <trkpt lat="47.1848" lon="-1.92647">
        <ele>41</ele>
        <time>2015-06-21T08:20:34Z</time>
      </trkpt>
      <trkpt lat="47.1848" lon="-1.92647">
        <ele>41</ele>
        <time>2015-06-21T08:20:35Z</time>
      </trkpt>
      <trkpt lat="47.1848" lon="-1.92647">
        <ele>41</ele>
        <time>2015-06-21T08:20:40Z</time>
      </trkpt>
      <trkpt lat="47.1848" lon="-1.92647">
        <ele>41</ele>
        <time>2015-06-21T08:20:45Z</time>
      </trkpt>
      <trkpt lat="47.18483" lon="-1.92649">
        <ele>41</ele>
        <time>2015-06-21T08:20:50Z</time>
      </trkpt>
      <trkpt lat="47.18491" lon="-1.92637">
        <ele>40</ele>
        <time>2015-06-21T08:20:58Z</time>
      </trkpt>
      <trkpt lat="47.18489" lon="-1.92627">
        <ele>40</ele>
        <time>2015-06-21T08:21:01Z</time>
      </trkpt>
      <trkpt lat="47.18481" lon="-1.92625">
        <ele>40</ele>
        <time>2015-06-21T08:21:05Z</time>
      </trkpt>
      <trkpt lat="47.18468" lon="-1.92627">
        <ele>40</ele>
        <time>2015-06-21T08:21:10Z</time>
      </trkpt>
      <trkpt lat="47.18453" lon="-1.92629">
        <ele>41</ele>
        <time>2015-06-21T08:21:15Z</time>
      </trkpt>
      <trkpt lat="47.18435" lon="-1.92638">
        <ele>41</ele>
        <time>2015-06-21T08:21:20Z</time>
      </trkpt>
      <trkpt lat="47.18418" lon="-1.9265">
        <ele>41</ele>
        <time>2015-06-21T08:21:25Z</time>
      </trkpt>
      <trkpt lat="47.184" lon="-1.92663">
        <ele>42</ele>
        <time>2015-06-21T08:21:30Z</time>
      </trkpt>
      <trkpt lat="47.18381" lon="-1.92672">
        <ele>42</ele>
        <time>2015-06-21T08:21:35Z</time>
      </trkpt>
      <trkpt lat="47.1836" lon="-1.92677">
        <ele>43</ele>
        <time>2015-06-21T08:21:41Z</time>
      </trkpt>
      <trkpt lat="47.18347" lon="-1.92686">
        <ele>43</ele>
        <time>2015-06-21T08:21:45Z</time>
      </trkpt>
      <trkpt lat="47.18329" lon="-1.92694">
        <ele>44</ele>
        <time>2015-06-21T08:21:50Z</time>
      </trkpt>
      <trkpt lat="47.1831" lon="-1.92703">
        <ele>44</ele>
        <time>2015-06-21T08:21:55Z</time>
      </trkpt>
      <trkpt lat="47.18291" lon="-1.92712">
        <ele>44</ele>
        <time>2015-06-21T08:22:00Z</time>
      </trkpt>
      <trkpt lat="47.18259" lon="-1.92724">
        <ele>45</ele>
        <time>2015-06-21T08:22:09Z</time>
      </trkpt>
      <trkpt lat="47.18256" lon="-1.92728">
        <ele>45</ele>
        <time>2015-06-21T08:22:10Z</time>
      </trkpt>
      <trkpt lat="47.18259" lon="-1.92784">
        <ele>45</ele>
        <time>2015-06-21T08:22:19Z</time>
      </trkpt>
      <trkpt lat="47.18261" lon="-1.9279">
        <ele>45</ele>
        <time>2015-06-21T08:22:20Z</time>
      </trkpt>
      <trkpt lat="47.18282" lon="-1.92826">
        <ele>44</ele>
        <time>2015-06-21T08:22:27Z</time>
      </trkpt>
      <trkpt lat="47.18308" lon="-1.92843">
        <ele>44</ele>
        <time>2015-06-21T08:22:32Z</time>
      </trkpt>
      <trkpt lat="47.18336" lon="-1.92864">
        <ele>44</ele>
        <time>2015-06-21T08:22:38Z</time>
      </trkpt>
      <trkpt lat="47.18359" lon="-1.92885">
        <ele>43</ele>
        <time>2015-06-21T08:22:43Z</time>
      </trkpt>
      <trkpt lat="47.18391" lon="-1.92909">
        <ele>43</ele>
        <time>2015-06-21T08:22:49Z</time>
      </trkpt>
      <trkpt lat="47.18403" lon="-1.92916">
        <ele>43</ele>
        <time>2015-06-21T08:22:51Z</time>
      </trkpt>
      <trkpt lat="47.18429" lon="-1.92927">
        <ele>43</ele>
        <time>2015-06-21T08:22:55Z</time>
      </trkpt>
      <trkpt lat="47.18458" lon="-1.92937">
        <ele>43</ele>
        <time>2015-06-21T08:23:00Z</time>
      </trkpt>
      <trkpt lat="47.18482" lon="-1.92962">
        <ele>43</ele>
        <time>2015-06-21T08:23:05Z</time>
      </trkpt>
      <trkpt lat="47.185" lon="-1.92999">
        <ele>43</ele>
        <time>2015-06-21T08:23:10Z</time>
      </trkpt>
      <trkpt lat="47.18519" lon="-1.9304">
        <ele>42</ele>
        <time>2015-06-21T08:23:15Z</time>
      </trkpt>
      <trkpt lat="47.18538" lon="-1.93078">
        <ele>41</ele>
        <time>2015-06-21T08:23:20Z</time>
      </trkpt>
      <trkpt lat="47.18572" lon="-1.9315">
        <ele>40</ele>
        <time>2015-06-21T08:23:28Z</time>
      </trkpt>
      <trkpt lat="47.18581" lon="-1.93168">
        <ele>39</ele>
        <time>2015-06-21T08:23:30Z</time>
      </trkpt>
      <trkpt lat="47.18603" lon="-1.93218">
        <ele>37</ele>
        <time>2015-06-21T08:23:35Z</time>
      </trkpt>
      <trkpt lat="47.18619" lon="-1.93272">
        <ele>35</ele>
        <time>2015-06-21T08:23:40Z</time>
      </trkpt>
      <trkpt lat="47.18646" lon="-1.93335">
        <ele>32</ele>
        <time>2015-06-21T08:23:46Z</time>
      </trkpt>
      <trkpt lat="47.18647" lon="-1.9336">
        <ele>32</ele>
        <time>2015-06-21T08:23:50Z</time>
      </trkpt>
      <trkpt lat="47.18644" lon="-1.9343">
        <ele>31</ele>
        <time>2015-06-21T08:23:59Z</time>
      </trkpt>
      <trkpt lat="47.18659" lon="-1.93458">
        <ele>26</ele>
        <time>2015-06-21T08:24:02Z</time>
      </trkpt>
      <trkpt lat="47.18681" lon="-1.93502">
        <ele>21</ele>
        <time>2015-06-21T08:24:06Z</time>
      </trkpt>
      <trkpt lat="47.18675" lon="-1.93552">
        <ele>25</ele>
        <time>2015-06-21T08:24:13Z</time>
      </trkpt>
      <trkpt lat="47.18663" lon="-1.93587">
        <ele>30</ele>
        <time>2015-06-21T08:24:19Z</time>
      </trkpt>
      <trkpt lat="47.18663" lon="-1.93591">
        <ele>30</ele>
        <time>2015-06-21T08:24:20Z</time>
      </trkpt>
      <trkpt lat="47.1866" lon="-1.93616">
        <ele>33</ele>
        <time>2015-06-21T08:24:26Z</time>
      </trkpt>
      <trkpt lat="47.18645" lon="-1.93625">
        <ele>34</ele>
        <time>2015-06-21T08:24:32Z</time>
      </trkpt>
      <trkpt lat="47.18633" lon="-1.93642">
        <ele>35</ele>
        <time>2015-06-21T08:24:37Z</time>
      </trkpt>
      <trkpt lat="47.18617" lon="-1.93663">
        <ele>37</ele>
        <time>2015-06-21T08:24:43Z</time>
      </trkpt>
      <trkpt lat="47.18613" lon="-1.93665">
        <ele>37</ele>
        <time>2015-06-21T08:24:45Z</time>
      </trkpt>
      <trkpt lat="47.18602" lon="-1.93683">
        <ele>38</ele>
        <time>2015-06-21T08:24:53Z</time>
      </trkpt>
      <trkpt lat="47.18597" lon="-1.93686">
        <ele>39</ele>
        <time>2015-06-21T08:24:55Z</time>
      </trkpt>
      <trkpt lat="47.18584" lon="-1.93689">
        <ele>39</ele>
        <time>2015-06-21T08:25:00Z</time>
      </trkpt>
      <trkpt lat="47.1857" lon="-1.93695">
        <ele>40</ele>
        <time>2015-06-21T08:25:05Z</time>
      </trkpt>
      <trkpt lat="47.18541" lon="-1.93712">
        <ele>40</ele>
        <time>2015-06-21T08:25:13Z</time>
      </trkpt>
      <trkpt lat="47.18533" lon="-1.93714">
        <ele>40</ele>
        <time>2015-06-21T08:25:15Z</time>
      </trkpt>
      <trkpt lat="47.18507" lon="-1.93731">
        <ele>41</ele>
        <time>2015-06-21T08:25:22Z</time>
      </trkpt>
      <trkpt lat="47.18483" lon="-1.93759">
        <ele>41</ele>
        <time>2015-06-21T08:25:29Z</time>
      </trkpt>
      <trkpt lat="47.18479" lon="-1.93763">
        <ele>41</ele>
        <time>2015-06-21T08:25:30Z</time>
      </trkpt>
      <trkpt lat="47.18443" lon="-1.93804">
        <ele>42</ele>
        <time>2015-06-21T08:25:39Z</time>
      </trkpt>
      <trkpt lat="47.18428" lon="-1.93821">
        <ele>42</ele>
        <time>2015-06-21T08:25:44Z</time>
      </trkpt>
      <trkpt lat="47.1842" lon="-1.93846">
        <ele>42</ele>
        <time>2015-06-21T08:25:49Z</time>
      </trkpt>
      <trkpt lat="47.1842" lon="-1.93856">
        <ele>43</ele>
        <time>2015-06-21T08:25:51Z</time>
      </trkpt>
      <trkpt lat="47.18421" lon="-1.93884">
        <ele>43</ele>
        <time>2015-06-21T08:25:57Z</time>
      </trkpt>
      <trkpt lat="47.18424" lon="-1.93896">
        <ele>44</ele>
        <time>2015-06-21T08:26:00Z</time>
      </trkpt>
      <trkpt lat="47.18431" lon="-1.93931">
        <ele>45</ele>
        <time>2015-06-21T08:26:05Z</time>
      </trkpt>
      <trkpt lat="47.18445" lon="-1.93965">
        <ele>45</ele>
        <time>2015-06-21T08:26:10Z</time>
      </trkpt>
      <trkpt lat="47.18456" lon="-1.94">
        <ele>46</ele>
        <time>2015-06-21T08:26:15Z</time>
      </trkpt>
      <trkpt lat="47.18473" lon="-1.94032">
        <ele>46</ele>
        <time>2015-06-21T08:26:22Z</time>
      </trkpt>
      <trkpt lat="47.18488" lon="-1.94029">
        <ele>46</ele>
        <time>2015-06-21T08:26:25Z</time>
      </trkpt>
      <trkpt lat="47.18523" lon="-1.94012">
        <ele>44</ele>
        <time>2015-06-21T08:26:32Z</time>
      </trkpt>
      <trkpt lat="47.18553" lon="-1.93996">
        <ele>42</ele>
        <time>2015-06-21T08:26:37Z</time>
      </trkpt>
      <trkpt lat="47.18576" lon="-1.93996">
        <ele>41</ele>
        <time>2015-06-21T08:26:41Z</time>
      </trkpt>
      <trkpt lat="47.18608" lon="-1.93985">
        <ele>40</ele>
        <time>2015-06-21T08:26:47Z</time>
      </trkpt>
      <trkpt lat="47.18634" lon="-1.93981">
        <ele>38</ele>
        <time>2015-06-21T08:26:51Z</time>
      </trkpt>
      <trkpt lat="47.18672" lon="-1.93979">
        <ele>37</ele>
        <time>2015-06-21T08:26:57Z</time>
      </trkpt>
      <trkpt lat="47.18692" lon="-1.93973">
        <ele>36</ele>
        <time>2015-06-21T08:27:01Z</time>
      </trkpt>
      <trkpt lat="47.18718" lon="-1.93959">
        <ele>36</ele>
        <time>2015-06-21T08:27:07Z</time>
      </trkpt>
      <trkpt lat="47.18747" lon="-1.9395">
        <ele>36</ele>
        <time>2015-06-21T08:27:15Z</time>
      </trkpt>
      <trkpt lat="47.1875" lon="-1.93951">
        <ele>35</ele>
        <time>2015-06-21T08:27:16Z</time>
      </trkpt>
      <trkpt lat="47.18765" lon="-1.93957">
        <ele>34</ele>
        <time>2015-06-21T08:27:21Z</time>
      </trkpt>
      <trkpt lat="47.18814" lon="-1.93949">
        <ele>30</ele>
        <time>2015-06-21T08:27:28Z</time>
      </trkpt>
      <trkpt lat="47.18851" lon="-1.93954">
        <ele>28</ele>
        <time>2015-06-21T08:27:35Z</time>
      </trkpt>
      <trkpt lat="47.18867" lon="-1.93952">
        <ele>27</ele>
        <time>2015-06-21T08:27:38Z</time>
      </trkpt>
      <trkpt lat="47.18878" lon="-1.93948">
        <ele>27</ele>
        <time>2015-06-21T08:27:41Z</time>
      </trkpt>
      <trkpt lat="47.1892" lon="-1.93954">
        <ele>25</ele>
        <time>2015-06-21T08:27:50Z</time>
      </trkpt>
      <trkpt lat="47.18924" lon="-1.93954">
        <ele>25</ele>
        <time>2015-06-21T08:27:51Z</time>
      </trkpt>
      <trkpt lat="47.18946" lon="-1.93951">
        <ele>24</ele>
        <time>2015-06-21T08:27:56Z</time>
      </trkpt>
      <trkpt lat="47.18968" lon="-1.93955">
        <ele>23</ele>
        <time>2015-06-21T08:28:01Z</time>
      </trkpt>
      <trkpt lat="47.18981" lon="-1.93967">
        <ele>23</ele>
        <time>2015-06-21T08:28:06Z</time>
      </trkpt>
      <trkpt lat="47.19005" lon="-1.93966">
        <ele>22</ele>
        <time>2015-06-21T08:28:11Z</time>
      </trkpt>
      <trkpt lat="47.19073" lon="-1.93937">
        <ele>20</ele>
        <time>2015-06-21T08:28:19Z</time>
      </trkpt>
      <trkpt lat="47.19086" lon="-1.93932">
        <ele>19</ele>
        <time>2015-06-21T08:28:21Z</time>
      </trkpt>
      <trkpt lat="47.19138" lon="-1.93906">
        <ele>16</ele>
        <time>2015-06-21T08:28:30Z</time>
      </trkpt>
      <trkpt lat="47.19148" lon="-1.93904">
        <ele>16</ele>
        <time>2015-06-21T08:28:34Z</time>
      </trkpt>
      <trkpt lat="47.19148" lon="-1.93904">
        <ele>16</ele>
        <time>2015-06-21T08:28:37Z</time>
      </trkpt>
      <trkpt lat="47.19158" lon="-1.93896">
        <ele>15</ele>
        <time>2015-06-21T08:28:41Z</time>
      </trkpt>
      <trkpt lat="47.19176" lon="-1.93872">
        <ele>15</ele>
        <time>2015-06-21T08:28:46Z</time>
      </trkpt>
      <trkpt lat="47.19199" lon="-1.93847">
        <ele>14</ele>
        <time>2015-06-21T08:28:51Z</time>
      </trkpt>
      <trkpt lat="47.1923" lon="-1.93807">
        <ele>13</ele>
        <time>2015-06-21T08:29:00Z</time>
      </trkpt>
      <trkpt lat="47.19233" lon="-1.93803">
        <ele>13</ele>
        <time>2015-06-21T08:29:01Z</time>
      </trkpt>
      <trkpt lat="47.19245" lon="-1.9378">
        <ele>13</ele>
        <time>2015-06-21T08:29:06Z</time>
      </trkpt>
      <trkpt lat="47.19262" lon="-1.93755">
        <ele>12</ele>
        <time>2015-06-21T08:29:13Z</time>
      </trkpt>
      <trkpt lat="47.19271" lon="-1.93758">
        <ele>12</ele>
        <time>2015-06-21T08:29:17Z</time>
      </trkpt>
      <trkpt lat="47.19289" lon="-1.93758">
        <ele>12</ele>
        <time>2015-06-21T08:29:22Z</time>
      </trkpt>
      <trkpt lat="47.19306" lon="-1.93754">
        <ele>11</ele>
        <time>2015-06-21T08:29:26Z</time>
      </trkpt>
      <trkpt lat="47.19337" lon="-1.93741">
        <ele>10</ele>
        <time>2015-06-21T08:29:34Z</time>
      </trkpt>
      <trkpt lat="47.19351" lon="-1.93729">
        <ele>10</ele>
        <time>2015-06-21T08:29:37Z</time>
      </trkpt>
      <trkpt lat="47.19369" lon="-1.93712">
        <ele>10</ele>
        <time>2015-06-21T08:29:41Z</time>
      </trkpt>
      <trkpt lat="47.19384" lon="-1.93698">
        <ele>9</ele>
        <time>2015-06-21T08:29:46Z</time>
      </trkpt>
      <trkpt lat="47.19412" lon="-1.93685">
        <ele>9</ele>
        <time>2015-06-21T08:29:51Z</time>
      </trkpt>
      <trkpt lat="47.19447" lon="-1.93674">
        <ele>9</ele>
        <time>2015-06-21T08:29:59Z</time>
      </trkpt>
      <trkpt lat="47.19467" lon="-1.93655">
        <ele>10</ele>
        <time>2015-06-21T08:30:05Z</time>
      </trkpt>
      <trkpt lat="47.1948" lon="-1.93655">
        <ele>10</ele>
        <time>2015-06-21T08:30:08Z</time>
      </trkpt>
      <trkpt lat="47.19496" lon="-1.93673">
        <ele>11</ele>
        <time>2015-06-21T08:30:13Z</time>
      </trkpt>
      <trkpt lat="47.19505" lon="-1.93687">
        <ele>11</ele>
        <time>2015-06-21T08:30:16Z</time>
      </trkpt>
      <trkpt lat="47.19514" lon="-1.93685">
        <ele>12</ele>
        <time>2015-06-21T08:30:21Z</time>
      </trkpt>
      <trkpt lat="47.19511" lon="-1.93668">
        <ele>11</ele>
        <time>2015-06-21T08:30:27Z</time>
      </trkpt>
      <trkpt lat="47.19507" lon="-1.93657">
        <ele>10</ele>
        <time>2015-06-21T08:30:35Z</time>
      </trkpt>
      <trkpt lat="47.19505" lon="-1.93656">
        <ele>10</ele>
        <time>2015-06-21T08:30:38Z</time>
      </trkpt>
      <trkpt lat="47.19512" lon="-1.93657">
        <ele>11</ele>
        <time>2015-06-21T08:30:45Z</time>
      </trkpt>
      <trkpt lat="47.19512" lon="-1.93658">
        <ele>11</ele>
        <time>2015-06-21T08:30:46Z</time>
      </trkpt>
      <trkpt lat="47.19514" lon="-1.93658">
        <ele>11</ele>
        <time>2015-06-21T08:30:53Z</time>
      </trkpt>
      <trkpt lat="47.19514" lon="-1.93657">
        <ele>11</ele>
        <time>2015-06-21T08:30:56Z</time>
      </trkpt>
      <trkpt lat="47.19516" lon="-1.93658">
        <ele>11</ele>
        <time>2015-06-21T08:31:01Z</time>
      </trkpt>
      <trkpt lat="47.19523" lon="-1.93662">
        <ele>12</ele>
        <time>2015-06-21T08:31:06Z</time>
      </trkpt>
      <trkpt lat="47.19531" lon="-1.93657">
        <ele>12</ele>
        <time>2015-06-21T08:31:15Z</time>
      </trkpt>
      <trkpt lat="47.1953" lon="-1.93656">
        <ele>12</ele>
        <time>2015-06-21T08:31:16Z</time>
      </trkpt>
      <trkpt lat="47.19533" lon="-1.93643">
        <ele>12</ele>
        <time>2015-06-21T08:31:25Z</time>
      </trkpt>
      <trkpt lat="47.19533" lon="-1.93643">
        <ele>12</ele>
        <time>2015-06-21T08:31:26Z</time>
      </trkpt>
      <trkpt lat="47.19534" lon="-1.93641">
        <ele>12</ele>
        <time>2015-06-21T08:31:32Z</time>
      </trkpt>
      <trkpt lat="47.19534" lon="-1.9364">
        <ele>12</ele>
        <time>2015-06-21T08:31:36Z</time>
      </trkpt>
      <trkpt lat="47.19534" lon="-1.93641">
        <ele>12</ele>
        <time>2015-06-21T08:31:45Z</time>
      </trkpt>
      <trkpt lat="47.19534" lon="-1.93641">
        <ele>12</ele>
        <time>2015-06-21T08:31:46Z</time>
      </trkpt>
      <trkpt lat="47.19535" lon="-1.9364">
        <ele>12</ele>
        <time>2015-06-21T08:31:51Z</time>
      </trkpt>
      <trkpt lat="47.19557" lon="-1.93623">
        <ele>13</ele>
        <time>2015-06-21T08:31:59Z</time>
      </trkpt>
      <trkpt lat="47.19562" lon="-1.93619">
        <ele>13</ele>
        <time>2015-06-21T08:32:02Z</time>
      </trkpt>
      <trkpt lat="47.19564" lon="-1.93613">
        <ele>13</ele>
        <time>2015-06-21T08:32:06Z</time>
      </trkpt>
      <trkpt lat="47.19571" lon="-1.93599">
        <ele>13</ele>
        <time>2015-06-21T08:32:15Z</time>
      </trkpt>
      <trkpt lat="47.19575" lon="-1.93595">
        <ele>13</ele>
        <time>2015-06-21T08:32:18Z</time>
      </trkpt>
      <trkpt lat="47.19574" lon="-1.93594">
        <ele>12</ele>
        <time>2015-06-21T08:32:22Z</time>
      </trkpt>
      <trkpt lat="47.19575" lon="-1.93594">
        <ele>13</ele>
        <time>2015-06-21T08:32:27Z</time>
      </trkpt>
      <trkpt lat="47.19575" lon="-1.93594">
        <ele>13</ele>
        <time>2015-06-21T08:32:31Z</time>
      </trkpt>
      <trkpt lat="47.19579" lon="-1.93591">
        <ele>13</ele>
        <time>2015-06-21T08:32:36Z</time>
      </trkpt>
      <trkpt lat="47.19608" lon="-1.93578">
        <ele>12</ele>
        <time>2015-06-21T08:32:43Z</time>
      </trkpt>
      <trkpt lat="47.19621" lon="-1.93573">
        <ele>12</ele>
        <time>2015-06-21T08:32:46Z</time>
      </trkpt>
      <trkpt lat="47.19643" lon="-1.93566">
        <ele>12</ele>
        <time>2015-06-21T08:32:52Z</time>
      </trkpt>
      <trkpt lat="47.19665" lon="-1.93558">
        <ele>12</ele>
        <time>2015-06-21T08:33:00Z</time>
      </trkpt>
      <trkpt lat="47.19667" lon="-1.93556">
        <ele>12</ele>
        <time>2015-06-21T08:33:01Z</time>
      </trkpt>
      <trkpt lat="47.1967" lon="-1.93566">
        <ele>13</ele>
        <time>2015-06-21T08:33:09Z</time>
      </trkpt>
      <trkpt lat="47.19671" lon="-1.93571">
        <ele>13</ele>
        <time>2015-06-21T08:33:11Z</time>
      </trkpt>
      <trkpt lat="47.19678" lon="-1.93598">
        <ele>14</ele>
        <time>2015-06-21T08:33:19Z</time>
      </trkpt>
      <trkpt lat="47.19679" lon="-1.93605">
        <ele>14</ele>
        <time>2015-06-21T08:33:21Z</time>
      </trkpt>
      <trkpt lat="47.19689" lon="-1.93637">
        <ele>15</ele>
        <time>2015-06-21T08:33:29Z</time>
      </trkpt>
      <trkpt lat="47.19699" lon="-1.93654">
        <ele>15</ele>
        <time>2015-06-21T08:33:34Z</time>
      </trkpt>
      <trkpt lat="47.197" lon="-1.93662">
        <ele>15</ele>
        <time>2015-06-21T08:33:36Z</time>
      </trkpt>
      <trkpt lat="47.19703" lon="-1.93681">
        <ele>15</ele>
        <time>2015-06-21T08:33:44Z</time>
      </trkpt>
      <trkpt lat="47.19707" lon="-1.93695">
        <ele>16</ele>
        <time>2015-06-21T08:33:48Z</time>
      </trkpt>
      <trkpt lat="47.19717" lon="-1.93716">
        <ele>15</ele>
        <time>2015-06-21T08:33:54Z</time>
      </trkpt>
      <trkpt lat="47.19727" lon="-1.93737">
        <ele>15</ele>
        <time>2015-06-21T08:33:59Z</time>
      </trkpt>
      <trkpt lat="47.19729" lon="-1.93746">
        <ele>15</ele>
        <time>2015-06-21T08:34:04Z</time>
      </trkpt>
      <trkpt lat="47.19732" lon="-1.93755">
        <ele>15</ele>
        <time>2015-06-21T08:34:07Z</time>
      </trkpt>
      <trkpt lat="47.19737" lon="-1.93763">
        <ele>15</ele>
        <time>2015-06-21T08:34:11Z</time>
      </trkpt>
      <trkpt lat="47.1974" lon="-1.93781">
        <ele>15</ele>
        <time>2015-06-21T08:34:17Z</time>
      </trkpt>
      <trkpt lat="47.19747" lon="-1.93791">
        <ele>15</ele>
        <time>2015-06-21T08:34:21Z</time>
      </trkpt>
      <trkpt lat="47.19758" lon="-1.93806">
        <ele>15</ele>
        <time>2015-06-21T08:34:27Z</time>
      </trkpt>
      <trkpt lat="47.19771" lon="-1.93805">
        <ele>15</ele>
        <time>2015-06-21T08:34:31Z</time>
      </trkpt>
      <trkpt lat="47.19784" lon="-1.93803">
        <ele>15</ele>
        <time>2015-06-21T08:34:37Z</time>
      </trkpt>
      <trkpt lat="47.19797" lon="-1.93809">
        <ele>14</ele>
        <time>2015-06-21T08:34:42Z</time>
      </trkpt>
      <trkpt lat="47.19801" lon="-1.93825">
        <ele>14</ele>
        <time>2015-06-21T08:34:48Z</time>
      </trkpt>
      <trkpt lat="47.19806" lon="-1.93841">
        <ele>14</ele>
        <time>2015-06-21T08:34:53Z</time>
      </trkpt>
      <trkpt lat="47.19808" lon="-1.93854">
        <ele>15</ele>
        <time>2015-06-21T08:34:56Z</time>
      </trkpt>
      <trkpt lat="47.19824" lon="-1.93882">
        <ele>15</ele>
        <time>2015-06-21T08:35:04Z</time>
      </trkpt>
      <trkpt lat="47.19842" lon="-1.93909">
        <ele>15</ele>
        <time>2015-06-21T08:35:10Z</time>
      </trkpt>
      <trkpt lat="47.19848" lon="-1.93922">
        <ele>15</ele>
        <time>2015-06-21T08:35:13Z</time>
      </trkpt>
      <trkpt lat="47.19854" lon="-1.93933">
        <ele>15</ele>
        <time>2015-06-21T08:35:16Z</time>
      </trkpt>
      <trkpt lat="47.19885" lon="-1.93984">
        <ele>15</ele>
        <time>2015-06-21T08:35:25Z</time>
      </trkpt>
      <trkpt lat="47.19891" lon="-1.93994">
        <ele>15</ele>
        <time>2015-06-21T08:35:27Z</time>
      </trkpt>
      <trkpt lat="47.19918" lon="-1.94041">
        <ele>15</ele>
        <time>2015-06-21T08:35:35Z</time>
      </trkpt>
      <trkpt lat="47.19922" lon="-1.94048">
        <ele>15</ele>
        <time>2015-06-21T08:35:36Z</time>
      </trkpt>
      <trkpt lat="47.19935" lon="-1.94072">
        <ele>15</ele>
        <time>2015-06-21T08:35:41Z</time>
      </trkpt>
      <trkpt lat="47.1995" lon="-1.94101">
        <ele>16</ele>
        <time>2015-06-21T08:35:46Z</time>
      </trkpt>
      <trkpt lat="47.19967" lon="-1.94132">
        <ele>17</ele>
        <time>2015-06-21T08:35:51Z</time>
      </trkpt>
      <trkpt lat="47.19986" lon="-1.94174">
        <ele>18</ele>
        <time>2015-06-21T08:35:58Z</time>
      </trkpt>
      <trkpt lat="47.19994" lon="-1.94215">
        <ele>18</ele>
        <time>2015-06-21T08:36:04Z</time>
      </trkpt>
      <trkpt lat="47.19994" lon="-1.94229">
        <ele>18</ele>
        <time>2015-06-21T08:36:06Z</time>
      </trkpt>
      <trkpt lat="47.19998" lon="-1.94286">
        <ele>18</ele>
        <time>2015-06-21T08:36:14Z</time>
      </trkpt>
      <trkpt lat="47.19999" lon="-1.943">
        <ele>18</ele>
        <time>2015-06-21T08:36:16Z</time>
      </trkpt>
      <trkpt lat="47.20003" lon="-1.94337">
        <ele>17</ele>
        <time>2015-06-21T08:36:21Z</time>
      </trkpt>
      <trkpt lat="47.20012" lon="-1.94372">
        <ele>16</ele>
        <time>2015-06-21T08:36:26Z</time>
      </trkpt>
      <trkpt lat="47.20002" lon="-1.9441">
        <ele>15</ele>
        <time>2015-06-21T08:36:34Z</time>
      </trkpt>
      <trkpt lat="47.1999" lon="-1.94411">
        <ele>15</ele>
        <time>2015-06-21T08:36:36Z</time>
      </trkpt>
      <trkpt lat="47.19948" lon="-1.94424">
        <ele>17</ele>
        <time>2015-06-21T08:36:44Z</time>
      </trkpt>
      <trkpt lat="47.19937" lon="-1.94428">
        <ele>17</ele>
        <time>2015-06-21T08:36:46Z</time>
      </trkpt>
      <trkpt lat="47.19912" lon="-1.94434">
        <ele>18</ele>
        <time>2015-06-21T08:36:51Z</time>
      </trkpt>
      <trkpt lat="47.19875" lon="-1.94461">
        <ele>20</ele>
        <time>2015-06-21T08:36:58Z</time>
      </trkpt>
      <trkpt lat="47.1986" lon="-1.94468">
        <ele>21</ele>
        <time>2015-06-21T08:37:01Z</time>
      </trkpt>
      <trkpt lat="47.19837" lon="-1.94478">
        <ele>21</ele>
        <time>2015-06-21T08:37:06Z</time>
      </trkpt>
      <trkpt lat="47.19813" lon="-1.9449">
        <ele>21</ele>
        <time>2015-06-21T08:37:11Z</time>
      </trkpt>
      <trkpt lat="47.19783" lon="-1.94504">
        <ele>21</ele>
        <time>2015-06-21T08:37:17Z</time>
      </trkpt>
      <trkpt lat="47.19766" lon="-1.94516">
        <ele>21</ele>
        <time>2015-06-21T08:37:21Z</time>
      </trkpt>
      <trkpt lat="47.19727" lon="-1.9453">
        <ele>21</ele>
        <time>2015-06-21T08:37:29Z</time>
      </trkpt>
      <trkpt lat="47.19711" lon="-1.94551">
        <ele>21</ele>
        <time>2015-06-21T08:37:33Z</time>
      </trkpt>
      <trkpt lat="47.19691" lon="-1.94575">
        <ele>21</ele>
        <time>2015-06-21T08:37:39Z</time>
      </trkpt>
      <trkpt lat="47.1968" lon="-1.94589">
        <ele>21</ele>
        <time>2015-06-21T08:37:43Z</time>
      </trkpt>
      <trkpt lat="47.19667" lon="-1.94601">
        <ele>21</ele>
        <time>2015-06-21T08:37:46Z</time>
      </trkpt>
      <trkpt lat="47.19633" lon="-1.94625">
        <ele>21</ele>
        <time>2015-06-21T08:37:53Z</time>
      </trkpt>
      <trkpt lat="47.19619" lon="-1.94632">
        <ele>21</ele>
        <time>2015-06-21T08:37:56Z</time>
      </trkpt>
      <trkpt lat="47.19571" lon="-1.94648">
        <ele>20</ele>
        <time>2015-06-21T08:38:05Z</time>
      </trkpt>
      <trkpt lat="47.19549" lon="-1.94654">
        <ele>20</ele>
        <time>2015-06-21T08:38:09Z</time>
      </trkpt>
      <trkpt lat="47.19537" lon="-1.94657">
        <ele>21</ele>
        <time>2015-06-21T08:38:11Z</time>
      </trkpt>
      <trkpt lat="47.195" lon="-1.94664">
        <ele>21</ele>
        <time>2015-06-21T08:38:17Z</time>
      </trkpt>
      <trkpt lat="47.19472" lon="-1.94671">
        <ele>21</ele>
        <time>2015-06-21T08:38:21Z</time>
      </trkpt>
      <trkpt lat="47.19402" lon="-1.94686">
        <ele>19</ele>
        <time>2015-06-21T08:38:30Z</time>
      </trkpt>
      <trkpt lat="47.19362" lon="-1.94694">
        <ele>18</ele>
        <time>2015-06-21T08:38:35Z</time>
      </trkpt>
      <trkpt lat="47.19334" lon="-1.94699">
        <ele>18</ele>
        <time>2015-06-21T08:38:39Z</time>
      </trkpt>
      <trkpt lat="47.1932" lon="-1.94701">
        <ele>17</ele>
        <time>2015-06-21T08:38:41Z</time>
      </trkpt>
      <trkpt lat="47.19294" lon="-1.94749">
        <ele>17</ele>
        <time>2015-06-21T08:38:49Z</time>
      </trkpt>
      <trkpt lat="47.19293" lon="-1.94767">
        <ele>17</ele>
        <time>2015-06-21T08:38:51Z</time>
      </trkpt>
      <trkpt lat="47.19297" lon="-1.94844">
        <ele>17</ele>
        <time>2015-06-21T08:38:59Z</time>
      </trkpt>
      <trkpt lat="47.193" lon="-1.94891">
        <ele>17</ele>
        <time>2015-06-21T08:39:04Z</time>
      </trkpt>
      <trkpt lat="47.19311" lon="-1.94939">
        <ele>18</ele>
        <time>2015-06-21T08:39:10Z</time>
      </trkpt>
      <trkpt lat="47.19313" lon="-1.94946">
        <ele>18</ele>
        <time>2015-06-21T08:39:11Z</time>
      </trkpt>
      <trkpt lat="47.19336" lon="-1.95002">
        <ele>17</ele>
        <time>2015-06-21T08:39:19Z</time>
      </trkpt>
      <trkpt lat="47.19343" lon="-1.95016">
        <ele>17</ele>
        <time>2015-06-21T08:39:21Z</time>
      </trkpt>
      <trkpt lat="47.19372" lon="-1.95075">
        <ele>15</ele>
        <time>2015-06-21T08:39:29Z</time>
      </trkpt>
      <trkpt lat="47.19381" lon="-1.95098">
        <ele>15</ele>
        <time>2015-06-21T08:39:32Z</time>
      </trkpt>
      <trkpt lat="47.19408" lon="-1.95151">
        <ele>16</ele>
        <time>2015-06-21T08:39:39Z</time>
      </trkpt>
      <trkpt lat="47.19418" lon="-1.95171">
        <ele>16</ele>
        <time>2015-06-21T08:39:42Z</time>
      </trkpt>
      <trkpt lat="47.19428" lon="-1.95196">
        <ele>16</ele>
        <time>2015-06-21T08:39:46Z</time>
      </trkpt>
      <trkpt lat="47.19446" lon="-1.95231">
        <ele>15</ele>
        <time>2015-06-21T08:39:51Z</time>
      </trkpt>
      <trkpt lat="47.19467" lon="-1.95275">
        <ele>15</ele>
        <time>2015-06-21T08:39:58Z</time>
      </trkpt>
      <trkpt lat="47.19467" lon="-1.95298">
        <ele>16</ele>
        <time>2015-06-21T08:40:04Z</time>
      </trkpt>
      <trkpt lat="47.19473" lon="-1.95322">
        <ele>16</ele>
        <time>2015-06-21T08:40:08Z</time>
      </trkpt>
      <trkpt lat="47.19483" lon="-1.9535">
        <ele>17</ele>
        <time>2015-06-21T08:40:12Z</time>
      </trkpt>
      <trkpt lat="47.1949" lon="-1.95372">
        <ele>18</ele>
        <time>2015-06-21T08:40:16Z</time>
      </trkpt>
      <trkpt lat="47.19512" lon="-1.95409">
        <ele>21</ele>
        <time>2015-06-21T08:40:23Z</time>
      </trkpt>
      <trkpt lat="47.19517" lon="-1.95422">
        <ele>22</ele>
        <time>2015-06-21T08:40:26Z</time>
      </trkpt>
      <trkpt lat="47.19527" lon="-1.95455">
        <ele>23</ele>
        <time>2015-06-21T08:40:33Z</time>
      </trkpt>
      <trkpt lat="47.19532" lon="-1.95467">
        <ele>23</ele>
        <time>2015-06-21T08:40:36Z</time>
      </trkpt>
      <trkpt lat="47.19538" lon="-1.95492">
        <ele>23</ele>
        <time>2015-06-21T08:40:41Z</time>
      </trkpt>
      <trkpt lat="47.19542" lon="-1.95515">
        <ele>24</ele>
        <time>2015-06-21T08:40:46Z</time>
      </trkpt>
      <trkpt lat="47.19554" lon="-1.95544">
        <ele>24</ele>
        <time>2015-06-21T08:40:51Z</time>
      </trkpt>
      <trkpt lat="47.19568" lon="-1.95587">
        <ele>24</ele>
        <time>2015-06-21T08:41:00Z</time>
      </trkpt>
      <trkpt lat="47.19571" lon="-1.95593">
        <ele>24</ele>
        <time>2015-06-21T08:41:01Z</time>
      </trkpt>
      <trkpt lat="47.19595" lon="-1.95653">
        <ele>24</ele>
        <time>2015-06-21T08:41:10Z</time>
      </trkpt>
      <trkpt lat="47.19602" lon="-1.95666">
        <ele>24</ele>
        <time>2015-06-21T08:41:12Z</time>
      </trkpt>
      <trkpt lat="47.19625" lon="-1.95713">
        <ele>24</ele>
        <time>2015-06-21T08:41:20Z</time>
      </trkpt>
      <trkpt lat="47.1963" lon="-1.95724">
        <ele>24</ele>
        <time>2015-06-21T08:41:22Z</time>
      </trkpt>
      <trkpt lat="47.19642" lon="-1.95744">
        <ele>24</ele>
        <time>2015-06-21T08:41:26Z</time>
      </trkpt>
      <trkpt lat="47.19651" lon="-1.95783">
        <ele>25</ele>
        <time>2015-06-21T08:41:34Z</time>
      </trkpt>
      <trkpt lat="47.19657" lon="-1.95794">
        <ele>25</ele>
        <time>2015-06-21T08:41:36Z</time>
      </trkpt>
      <trkpt lat="47.19671" lon="-1.95837">
        <ele>25</ele>
        <time>2015-06-21T08:41:45Z</time>
      </trkpt>
      <trkpt lat="47.19673" lon="-1.95843">
        <ele>25</ele>
        <time>2015-06-21T08:41:46Z</time>
      </trkpt>
      <trkpt lat="47.19684" lon="-1.95874">
        <ele>24</ele>
        <time>2015-06-21T08:41:52Z</time>
      </trkpt>
      <trkpt lat="47.19687" lon="-1.95894">
        <ele>24</ele>
        <time>2015-06-21T08:41:56Z</time>
      </trkpt>
      <trkpt lat="47.19694" lon="-1.95959">
        <ele>23</ele>
        <time>2015-06-21T08:42:04Z</time>
      </trkpt>
      <trkpt lat="47.19697" lon="-1.95976">
        <ele>23</ele>
        <time>2015-06-21T08:42:06Z</time>
      </trkpt>
      <trkpt lat="47.19698" lon="-1.96021">
        <ele>22</ele>
        <time>2015-06-21T08:42:12Z</time>
      </trkpt>
      <trkpt lat="47.19696" lon="-1.9605">
        <ele>22</ele>
        <time>2015-06-21T08:42:16Z</time>
      </trkpt>
      <trkpt lat="47.19704" lon="-1.96092">
        <ele>22</ele>
        <time>2015-06-21T08:42:21Z</time>
      </trkpt>
      <trkpt lat="47.19713" lon="-1.96142">
        <ele>23</ele>
        <time>2015-06-21T08:42:29Z</time>
      </trkpt>
      <trkpt lat="47.19725" lon="-1.96176">
        <ele>23</ele>
        <time>2015-06-21T08:42:33Z</time>
      </trkpt>
      <trkpt lat="47.19732" lon="-1.96209">
        <ele>24</ele>
        <time>2015-06-21T08:42:38Z</time>
      </trkpt>
      <trkpt lat="47.19732" lon="-1.96219">
        <ele>24</ele>
        <time>2015-06-21T08:42:41Z</time>
      </trkpt>
      <trkpt lat="47.1973" lon="-1.96222">
        <ele>24</ele>
        <time>2015-06-21T08:42:46Z</time>
      </trkpt>
      <trkpt lat="47.19704" lon="-1.96215">
        <ele>24</ele>
        <time>2015-06-21T08:42:53Z</time>
      </trkpt>
      <trkpt lat="47.19693" lon="-1.96217">
        <ele>24</ele>
        <time>2015-06-21T08:42:56Z</time>
      </trkpt>
      <trkpt lat="47.19664" lon="-1.9622">
        <ele>25</ele>
        <time>2015-06-21T08:43:03Z</time>
      </trkpt>
      <trkpt lat="47.19646" lon="-1.96213">
        <ele>25</ele>
        <time>2015-06-21T08:43:08Z</time>
      </trkpt>
      <trkpt lat="47.19637" lon="-1.96214">
        <ele>26</ele>
        <time>2015-06-21T08:43:11Z</time>
      </trkpt>
      <trkpt lat="47.19608" lon="-1.96209">
        <ele>26</ele>
        <time>2015-06-21T08:43:19Z</time>
      </trkpt>
      <trkpt lat="47.19593" lon="-1.96205">
        <ele>27</ele>
        <time>2015-06-21T08:43:23Z</time>
      </trkpt>
      <trkpt lat="47.19575" lon="-1.96199">
        <ele>27</ele>
        <time>2015-06-21T08:43:27Z</time>
      </trkpt>
      <trkpt lat="47.19558" lon="-1.96203">
        <ele>28</ele>
        <time>2015-06-21T08:43:31Z</time>
      </trkpt>
      <trkpt lat="47.19522" lon="-1.96201">
        <ele>28</ele>
        <time>2015-06-21T08:43:40Z</time>
      </trkpt>
      <trkpt lat="47.19516" lon="-1.96201">
        <ele>28</ele>
        <time>2015-06-21T08:43:42Z</time>
      </trkpt>
      <trkpt lat="47.1949" lon="-1.96181">
        <ele>28</ele>
        <time>2015-06-21T08:43:50Z</time>
      </trkpt>
      <trkpt lat="47.19487" lon="-1.96178">
        <ele>28</ele>
        <time>2015-06-21T08:43:51Z</time>
      </trkpt>
      <trkpt lat="47.19451" lon="-1.9615">
        <ele>28</ele>
        <time>2015-06-21T08:44:00Z</time>
      </trkpt>
      <trkpt lat="47.19427" lon="-1.96132">
        <ele>27</ele>
        <time>2015-06-21T08:44:05Z</time>
      </trkpt>
      <trkpt lat="47.19421" lon="-1.96127">
        <ele>27</ele>
        <time>2015-06-21T08:44:06Z</time>
      </trkpt>
      <trkpt lat="47.19398" lon="-1.96106">
        <ele>26</ele>
        <time>2015-06-21T08:44:11Z</time>
      </trkpt>
      <trkpt lat="47.1936" lon="-1.96093">
        <ele>25</ele>
        <time>2015-06-21T08:44:16Z</time>
      </trkpt>
      <trkpt lat="47.19327" lon="-1.96091">
        <ele>24</ele>
        <time>2015-06-21T08:44:21Z</time>
      </trkpt>
      <trkpt lat="47.19296" lon="-1.96091">
        <ele>23</ele>
        <time>2015-06-21T08:44:26Z</time>
      </trkpt>
      <trkpt lat="47.1924" lon="-1.96086">
        <ele>24</ele>
        <time>2015-06-21T08:44:35Z</time>
      </trkpt>
      <trkpt lat="47.19208" lon="-1.96086">
        <ele>25</ele>
        <time>2015-06-21T08:44:40Z</time>
      </trkpt>
      <trkpt lat="47.19202" lon="-1.96086">
        <ele>25</ele>
        <time>2015-06-21T08:44:41Z</time>
      </trkpt>
      <trkpt lat="47.19155" lon="-1.96084">
        <ele>27</ele>
        <time>2015-06-21T08:44:49Z</time>
      </trkpt>
      <trkpt lat="47.19144" lon="-1.96083">
        <ele>28</ele>
        <time>2015-06-21T08:44:51Z</time>
      </trkpt>
      <trkpt lat="47.19119" lon="-1.96086">
        <ele>28</ele>
        <time>2015-06-21T08:44:56Z</time>
      </trkpt>
      <trkpt lat="47.19094" lon="-1.96095">
        <ele>29</ele>
        <time>2015-06-21T08:45:01Z</time>
      </trkpt>
      <trkpt lat="47.19071" lon="-1.96104">
        <ele>30</ele>
        <time>2015-06-21T08:45:06Z</time>
      </trkpt>
      <trkpt lat="47.19044" lon="-1.96113">
        <ele>31</ele>
        <time>2015-06-21T08:45:14Z</time>
      </trkpt>
      <trkpt lat="47.19039" lon="-1.96114">
        <ele>31</ele>
        <time>2015-06-21T08:45:16Z</time>
      </trkpt>
      <trkpt lat="47.19025" lon="-1.96119">
        <ele>32</ele>
        <time>2015-06-21T08:45:21Z</time>
      </trkpt>
      <trkpt lat="47.19021" lon="-1.96103">
        <ele>32</ele>
        <time>2015-06-21T08:45:26Z</time>
      </trkpt>
      <trkpt lat="47.19017" lon="-1.96066">
        <ele>32</ele>
        <time>2015-06-21T08:45:32Z</time>
      </trkpt>
      <trkpt lat="47.19014" lon="-1.96034">
        <ele>32</ele>
        <time>2015-06-21T08:45:36Z</time>
      </trkpt>
      <trkpt lat="47.19006" lon="-1.95989">
        <ele>31</ele>
        <time>2015-06-21T08:45:41Z</time>
      </trkpt>
      <trkpt lat="47.18998" lon="-1.95945">
        <ele>31</ele>
        <time>2015-06-21T08:45:46Z</time>
      </trkpt>
      <trkpt lat="47.18976" lon="-1.95912">
        <ele>31</ele>
        <time>2015-06-21T08:45:52Z</time>
      </trkpt>
      <trkpt lat="47.18948" lon="-1.95893">
        <ele>32</ele>
        <time>2015-06-21T08:45:59Z</time>
      </trkpt>
      <trkpt lat="47.18937" lon="-1.95893">
        <ele>32</ele>
        <time>2015-06-21T08:46:02Z</time>
      </trkpt>
      <trkpt lat="47.18904" lon="-1.95897">
        <ele>34</ele>
        <time>2015-06-21T08:46:10Z</time>
      </trkpt>
      <trkpt lat="47.18885" lon="-1.95903">
        <ele>35</ele>
        <time>2015-06-21T08:46:15Z</time>
      </trkpt>
      <trkpt lat="47.18878" lon="-1.95906">
        <ele>35</ele>
        <time>2015-06-21T08:46:17Z</time>
      </trkpt>
      <trkpt lat="47.18851" lon="-1.95915">
        <ele>38</ele>
        <time>2015-06-21T08:46:25Z</time>
      </trkpt>
      <trkpt lat="47.18845" lon="-1.95915">
        <ele>38</ele>
        <time>2015-06-21T08:46:27Z</time>
      </trkpt>
      <trkpt lat="47.18831" lon="-1.9592">
        <ele>39</ele>
        <time>2015-06-21T08:46:31Z</time>
      </trkpt>
      <trkpt lat="47.18814" lon="-1.95927">
        <ele>41</ele>
        <time>2015-06-21T08:46:36Z</time>
      </trkpt>
      <trkpt lat="47.18791" lon="-1.95943">
        <ele>42</ele>
        <time>2015-06-21T08:46:44Z</time>
      </trkpt>
      <trkpt lat="47.18786" lon="-1.95946">
        <ele>43</ele>
        <time>2015-06-21T08:46:46Z</time>
      </trkpt>
      <trkpt lat="47.18775" lon="-1.95929">
        <ele>44</ele>
        <time>2015-06-21T08:46:54Z</time>
      </trkpt>
      <trkpt lat="47.18772" lon="-1.95924">
        <ele>45</ele>
        <time>2015-06-21T08:46:56Z</time>
      </trkpt>
      <trkpt lat="47.1876" lon="-1.95912">
        <ele>46</ele>
        <time>2015-06-21T08:47:02Z</time>
      </trkpt>
      <trkpt lat="47.18745" lon="-1.95916">
        <ele>48</ele>
        <time>2015-06-21T08:47:08Z</time>
      </trkpt>
      <trkpt lat="47.18731" lon="-1.95928">
        <ele>49</ele>
        <time>2015-06-21T08:47:15Z</time>
      </trkpt>
      <trkpt lat="47.1873" lon="-1.95929">
        <ele>49</ele>
        <time>2015-06-21T08:47:16Z</time>
      </trkpt>
      <trkpt lat="47.18723" lon="-1.95933">
        <ele>50</ele>
        <time>2015-06-21T08:47:21Z</time>
      </trkpt>
      <trkpt lat="47.18715" lon="-1.95943">
        <ele>51</ele>
        <time>2015-06-21T08:47:26Z</time>
      </trkpt>
      <trkpt lat="47.18713" lon="-1.95963">
        <ele>51</ele>
        <time>2015-06-21T08:47:31Z</time>
      </trkpt>
      <trkpt lat="47.1872" lon="-1.95986">
        <ele>50</ele>
        <time>2015-06-21T08:47:36Z</time>
      </trkpt>
      <trkpt lat="47.18727" lon="-1.96022">
        <ele>49</ele>
        <time>2015-06-21T08:47:45Z</time>
      </trkpt>
      <trkpt lat="47.18723" lon="-1.96024">
        <ele>49</ele>
        <time>2015-06-21T08:47:46Z</time>
      </trkpt>
      <trkpt lat="47.18715" lon="-1.96045">
        <ele>49</ele>
        <time>2015-06-21T08:47:52Z</time>
      </trkpt>
      <trkpt lat="47.18712" lon="-1.96064">
        <ele>49</ele>
        <time>2015-06-21T08:47:56Z</time>
      </trkpt>
      <trkpt lat="47.18701" lon="-1.9607">
        <ele>50</ele>
        <time>2015-06-21T08:48:02Z</time>
      </trkpt>
      <trkpt lat="47.18694" lon="-1.96074">
        <ele>50</ele>
        <time>2015-06-21T08:48:06Z</time>
      </trkpt>
      <trkpt lat="47.18681" lon="-1.96086">
        <ele>51</ele>
        <time>2015-06-21T08:48:14Z</time>
      </trkpt>
      <trkpt lat="47.18679" lon="-1.96088">
        <ele>51</ele>
        <time>2015-06-21T08:48:18Z</time>
      </trkpt>
      <trkpt lat="47.18677" lon="-1.96088">
        <ele>52</ele>
        <time>2015-06-21T08:48:23Z</time>
      </trkpt>
      <trkpt lat="47.18676" lon="-1.96088">
        <ele>52</ele>
        <time>2015-06-21T08:48:27Z</time>
      </trkpt>
      <trkpt lat="47.18676" lon="-1.96088">
        <ele>52</ele>
        <time>2015-06-21T08:48:32Z</time>
      </trkpt>
      <trkpt lat="47.18676" lon="-1.96074">
        <ele>52</ele>
        <time>2015-06-21T08:48:36Z</time>
      </trkpt>
      <trkpt lat="47.18678" lon="-1.9605">
        <ele>52</ele>
        <time>2015-06-21T08:48:41Z</time>
      </trkpt>
      <trkpt lat="47.18677" lon="-1.96021">
        <ele>52</ele>
        <time>2015-06-21T08:48:50Z</time>
      </trkpt>
      <trkpt lat="47.18677" lon="-1.96019">
        <ele>52</ele>
        <time>2015-06-21T08:48:51Z</time>
      </trkpt>
      <trkpt lat="47.18685" lon="-1.95971">
        <ele>52</ele>
        <time>2015-06-21T08:49:00Z</time>
      </trkpt>
      <trkpt lat="47.18676" lon="-1.95971">
        <ele>53</ele>
        <time>2015-06-21T08:49:05Z</time>
      </trkpt>
      <trkpt lat="47.18673" lon="-1.95971">
        <ele>53</ele>
        <time>2015-06-21T08:49:08Z</time>
      </trkpt>
      <trkpt lat="47.18669" lon="-1.95971">
        <ele>53</ele>
        <time>2015-06-21T08:49:12Z</time>
      </trkpt>
      <trkpt lat="47.18664" lon="-1.95974">
        <ele>53</ele>
        <time>2015-06-21T08:49:20Z</time>
      </trkpt>
      <trkpt lat="47.18662" lon="-1.95976">
        <ele>53</ele>
        <time>2015-06-21T08:49:21Z</time>
      </trkpt>
      <trkpt lat="47.18653" lon="-1.95986">
        <ele>54</ele>
        <time>2015-06-21T08:49:26Z</time>
      </trkpt>
      <trkpt lat="47.18614" lon="-1.95998">
        <ele>55</ele>
        <time>2015-06-21T08:49:35Z</time>
      </trkpt>
      <trkpt lat="47.18612" lon="-1.96001">
        <ele>56</ele>
        <time>2015-06-21T08:49:36Z</time>
      </trkpt>
      <trkpt lat="47.18616" lon="-1.96039">
        <ele>55</ele>
        <time>2015-06-21T08:49:45Z</time>
      </trkpt>
      <trkpt lat="47.18619" lon="-1.96045">
        <ele>55</ele>
        <time>2015-06-21T08:49:47Z</time>
      </trkpt>
      <trkpt lat="47.18617" lon="-1.96063">
        <ele>55</ele>
        <time>2015-06-21T08:49:55Z</time>
      </trkpt>
      <trkpt lat="47.18616" lon="-1.96068">
        <ele>55</ele>
        <time>2015-06-21T08:49:58Z</time>
      </trkpt>
      <trkpt lat="47.18621" lon="-1.96078">
        <ele>55</ele>
        <time>2015-06-21T08:50:03Z</time>
      </trkpt>
      <trkpt lat="47.18621" lon="-1.96083">
        <ele>55</ele>
        <time>2015-06-21T08:50:08Z</time>
      </trkpt>
      <trkpt lat="47.18617" lon="-1.96085">
        <ele>55</ele>
        <time>2015-06-21T08:50:11Z</time>
      </trkpt>
      <trkpt lat="47.18605" lon="-1.96103">
        <ele>56</ele>
        <time>2015-06-21T08:50:18Z</time>
      </trkpt>
      <trkpt lat="47.18605" lon="-1.96118">
        <ele>56</ele>
        <time>2015-06-21T08:50:21Z</time>
      </trkpt>
      <trkpt lat="47.18609" lon="-1.96144">
        <ele>56</ele>
        <time>2015-06-21T08:50:26Z</time>
      </trkpt>
      <trkpt lat="47.18624" lon="-1.96163">
        <ele>55</ele>
        <time>2015-06-21T08:50:32Z</time>
      </trkpt>
      <trkpt lat="47.18632" lon="-1.9619">
        <ele>54</ele>
        <time>2015-06-21T08:50:40Z</time>
      </trkpt>
      <trkpt lat="47.18637" lon="-1.96198">
        <ele>54</ele>
        <time>2015-06-21T08:50:42Z</time>
      </trkpt>
      <trkpt lat="47.18657" lon="-1.96212">
        <ele>52</ele>
        <time>2015-06-21T08:50:48Z</time>
      </trkpt>
      <trkpt lat="47.18665" lon="-1.96193">
        <ele>52</ele>
        <time>2015-06-21T08:50:54Z</time>
      </trkpt>
      <trkpt lat="47.18668" lon="-1.96194">
        <ele>51</ele>
        <time>2015-06-21T08:50:57Z</time>
      </trkpt>
      <trkpt lat="47.18683" lon="-1.96196">
        <ele>51</ele>
        <time>2015-06-21T08:51:02Z</time>
      </trkpt>
      <trkpt lat="47.18699" lon="-1.96214">
        <ele>50</ele>
        <time>2015-06-21T08:51:09Z</time>
      </trkpt>
      <trkpt lat="47.187" lon="-1.9622">
        <ele>50</ele>
        <time>2015-06-21T08:51:11Z</time>
      </trkpt>
      <trkpt lat="47.18708" lon="-1.96247">
        <ele>50</ele>
        <time>2015-06-21T08:51:17Z</time>
      </trkpt>
      <trkpt lat="47.18695" lon="-1.96247">
        <ele>51</ele>
        <time>2015-06-21T08:51:21Z</time>
      </trkpt>
      <trkpt lat="47.18678" lon="-1.96243">
        <ele>52</ele>
        <time>2015-06-21T08:51:26Z</time>
      </trkpt>
      <trkpt lat="47.18668" lon="-1.96245">
        <ele>53</ele>
        <time>2015-06-21T08:51:31Z</time>
      </trkpt>
      <trkpt lat="47.18653" lon="-1.96251">
        <ele>54</ele>
        <time>2015-06-21T08:51:36Z</time>
      </trkpt>
      <trkpt lat="47.18618" lon="-1.96271">
        <ele>56</ele>
        <time>2015-06-21T08:51:44Z</time>
      </trkpt>
      <trkpt lat="47.18587" lon="-1.96282">
        <ele>57</ele>
        <time>2015-06-21T08:51:50Z</time>
      </trkpt>
      <trkpt lat="47.18574" lon="-1.96291">
        <ele>58</ele>
        <time>2015-06-21T08:51:53Z</time>
      </trkpt>
      <trkpt lat="47.18562" lon="-1.96298">
        <ele>58</ele>
        <time>2015-06-21T08:51:56Z</time>
      </trkpt>
      <trkpt lat="47.18536" lon="-1.9631">
        <ele>58</ele>
        <time>2015-06-21T08:52:03Z</time>
      </trkpt>
      <trkpt lat="47.18526" lon="-1.96317">
        <ele>58</ele>
        <time>2015-06-21T08:52:06Z</time>
      </trkpt>
      <trkpt lat="47.18507" lon="-1.96328">
        <ele>58</ele>
        <time>2015-06-21T08:52:11Z</time>
      </trkpt>
      <trkpt lat="47.18478" lon="-1.9634">
        <ele>58</ele>
        <time>2015-06-21T08:52:19Z</time>
      </trkpt>
      <trkpt lat="47.18469" lon="-1.96344">
        <ele>58</ele>
        <time>2015-06-21T08:52:21Z</time>
      </trkpt>
      <trkpt lat="47.18451" lon="-1.96352">
        <ele>59</ele>
        <time>2015-06-21T08:52:26Z</time>
      </trkpt>
      <trkpt lat="47.18432" lon="-1.9636">
        <ele>59</ele>
        <time>2015-06-21T08:52:31Z</time>
      </trkpt>
      <trkpt lat="47.18391" lon="-1.96371">
        <ele>58</ele>
        <time>2015-06-21T08:52:39Z</time>
      </trkpt>
      <trkpt lat="47.18356" lon="-1.96381">
        <ele>58</ele>
        <time>2015-06-21T08:52:44Z</time>
      </trkpt>
      <trkpt lat="47.18342" lon="-1.96385">
        <ele>58</ele>
        <time>2015-06-21T08:52:46Z</time>
      </trkpt>
      <trkpt lat="47.18298" lon="-1.9639">
        <ele>57</ele>
        <time>2015-06-21T08:52:52Z</time>
      </trkpt>
      <trkpt lat="47.18246" lon="-1.96397">
        <ele>56</ele>
        <time>2015-06-21T08:52:59Z</time>
      </trkpt>
      <trkpt lat="47.18234" lon="-1.964">
        <ele>56</ele>
        <time>2015-06-21T08:53:01Z</time>
      </trkpt>
      <trkpt lat="47.18173" lon="-1.96412">
        <ele>55</ele>
        <time>2015-06-21T08:53:09Z</time>
      </trkpt>
      <trkpt lat="47.18157" lon="-1.96418">
        <ele>55</ele>
        <time>2015-06-21T08:53:11Z</time>
      </trkpt>
      <trkpt lat="47.18098" lon="-1.96434">
        <ele>54</ele>
        <time>2015-06-21T08:53:18Z</time>
      </trkpt>
      <trkpt lat="47.18047" lon="-1.96447">
        <ele>53</ele>
        <time>2015-06-21T08:53:25Z</time>
      </trkpt>
      <trkpt lat="47.1804" lon="-1.96449">
        <ele>53</ele>
        <time>2015-06-21T08:53:26Z</time>
      </trkpt>
      <trkpt lat="47.18008" lon="-1.96458">
        <ele>53</ele>
        <time>2015-06-21T08:53:31Z</time>
      </trkpt>
      <trkpt lat="47.17963" lon="-1.96471">
        <ele>54</ele>
        <time>2015-06-21T08:53:37Z</time>
      </trkpt>
      <trkpt lat="47.17913" lon="-1.96479">
        <ele>55</ele>
        <time>2015-06-21T08:53:44Z</time>
      </trkpt>
      <trkpt lat="47.17894" lon="-1.96483">
        <ele>55</ele>
        <time>2015-06-21T08:53:47Z</time>
      </trkpt>
      <trkpt lat="47.17859" lon="-1.9649">
        <ele>55</ele>
        <time>2015-06-21T08:53:52Z</time>
      </trkpt>
      <trkpt lat="47.17827" lon="-1.96503">
        <ele>55</ele>
        <time>2015-06-21T08:53:57Z</time>
      </trkpt>
      <trkpt lat="47.17774" lon="-1.96517">
        <ele>55</ele>
        <time>2015-06-21T08:54:05Z</time>
      </trkpt>
      <trkpt lat="47.17737" lon="-1.96542">
        <ele>56</ele>
        <time>2015-06-21T08:54:11Z</time>
      </trkpt>
      <trkpt lat="47.17731" lon="-1.96547">
        <ele>56</ele>
        <time>2015-06-21T08:54:12Z</time>
      </trkpt>
      <trkpt lat="47.177" lon="-1.9656">
        <ele>56</ele>
        <time>2015-06-21T08:54:17Z</time>
      </trkpt>
      <trkpt lat="47.17671" lon="-1.96564">
        <ele>56</ele>
        <time>2015-06-21T08:54:22Z</time>
      </trkpt>
      <trkpt lat="47.1766" lon="-1.9651">
        <ele>54</ele>
        <time>2015-06-21T08:54:28Z</time>
      </trkpt>
      <trkpt lat="47.17649" lon="-1.96462">
        <ele>54</ele>
        <time>2015-06-21T08:54:33Z</time>
      </trkpt>
      <trkpt lat="47.17637" lon="-1.9641">
        <ele>53</ele>
        <time>2015-06-21T08:54:38Z</time>
      </trkpt>
      <trkpt lat="47.17636" lon="-1.96369">
        <ele>53</ele>
        <time>2015-06-21T08:54:42Z</time>
      </trkpt>
      <trkpt lat="47.17614" lon="-1.96288">
        <ele>52</ele>
        <time>2015-06-21T08:54:50Z</time>
      </trkpt>
      <trkpt lat="47.17613" lon="-1.96272">
        <ele>52</ele>
        <time>2015-06-21T08:54:52Z</time>
      </trkpt>
      <trkpt lat="47.17601" lon="-1.96218">
        <ele>52</ele>
        <time>2015-06-21T08:54:57Z</time>
      </trkpt>
      <trkpt lat="47.17593" lon="-1.96127">
        <ele>51</ele>
        <time>2015-06-21T08:55:05Z</time>
      </trkpt>
      <trkpt lat="47.17576" lon="-1.96093">
        <ele>50</ele>
        <time>2015-06-21T08:55:07Z</time>
      </trkpt>
      <trkpt lat="47.1758" lon="-1.9603">
        <ele>50</ele>
        <time>2015-06-21T08:55:13Z</time>
      </trkpt>
      <trkpt lat="47.1758" lon="-1.95956">
        <ele>47</ele>
        <time>2015-06-21T08:55:20Z</time>
      </trkpt>
      <trkpt lat="47.17581" lon="-1.95924">
        <ele>47</ele>
        <time>2015-06-21T08:55:23Z</time>
      </trkpt>
      <trkpt lat="47.17579" lon="-1.95869">
        <ele>46</ele>
        <time>2015-06-21T08:55:28Z</time>
      </trkpt>
      <trkpt lat="47.17586" lon="-1.95761">
        <ele>44</ele>
        <time>2015-06-21T08:55:37Z</time>
      </trkpt>
      <trkpt lat="47.17583" lon="-1.95727">
        <ele>43</ele>
        <time>2015-06-21T08:55:40Z</time>
      </trkpt>
      <trkpt lat="47.17581" lon="-1.95693">
        <ele>43</ele>
        <time>2015-06-21T08:55:43Z</time>
      </trkpt>
      <trkpt lat="47.17576" lon="-1.95622">
        <ele>41</ele>
        <time>2015-06-21T08:55:49Z</time>
      </trkpt>
      <trkpt lat="47.17571" lon="-1.95555">
        <ele>41</ele>
        <time>2015-06-21T08:55:57Z</time>
      </trkpt>
      <trkpt lat="47.17568" lon="-1.95539">
        <ele>42</ele>
        <time>2015-06-21T08:55:59Z</time>
      </trkpt>
      <trkpt lat="47.17556" lon="-1.95475">
        <ele>43</ele>
        <time>2015-06-21T08:56:06Z</time>
      </trkpt>
      <trkpt lat="47.17559" lon="-1.95445">
        <ele>44</ele>
        <time>2015-06-21T08:56:09Z</time>
      </trkpt>
      <trkpt lat="47.17557" lon="-1.95418">
        <ele>45</ele>
        <time>2015-06-21T08:56:13Z</time>
      </trkpt>
      <trkpt lat="47.17542" lon="-1.95378">
        <ele>46</ele>
        <time>2015-06-21T08:56:19Z</time>
      </trkpt>
      <trkpt lat="47.17534" lon="-1.95346">
        <ele>46</ele>
        <time>2015-06-21T08:56:23Z</time>
      </trkpt>
      <trkpt lat="47.17527" lon="-1.95304">
        <ele>47</ele>
        <time>2015-06-21T08:56:29Z</time>
      </trkpt>
      <trkpt lat="47.17522" lon="-1.95279">
        <ele>48</ele>
        <time>2015-06-21T08:56:34Z</time>
      </trkpt>
      <trkpt lat="47.17513" lon="-1.95242">
        <ele>49</ele>
        <time>2015-06-21T08:56:42Z</time>
      </trkpt>
      <trkpt lat="47.1751" lon="-1.9525">
        <ele>49</ele>
        <time>2015-06-21T08:56:44Z</time>
      </trkpt>
      <trkpt lat="47.17515" lon="-1.95285">
        <ele>48</ele>
        <time>2015-06-21T08:56:49Z</time>
      </trkpt>
      <trkpt lat="47.1752" lon="-1.95328">
        <ele>47</ele>
        <time>2015-06-21T08:56:55Z</time>
      </trkpt>
      <trkpt lat="47.17531" lon="-1.9538">
        <ele>46</ele>
        <time>2015-06-21T08:57:01Z</time>
      </trkpt>
      <trkpt lat="47.17534" lon="-1.95401">
        <ele>46</ele>
        <time>2015-06-21T08:57:04Z</time>
      </trkpt>
      <trkpt lat="47.17539" lon="-1.95441">
        <ele>45</ele>
        <time>2015-06-21T08:57:09Z</time>
      </trkpt>
      <trkpt lat="47.17544" lon="-1.95484">
        <ele>43</ele>
        <time>2015-06-21T08:57:14Z</time>
      </trkpt>
      <trkpt lat="47.17552" lon="-1.95527">
        <ele>42</ele>
        <time>2015-06-21T08:57:19Z</time>
      </trkpt>
      <trkpt lat="47.17556" lon="-1.9557">
        <ele>41</ele>
        <time>2015-06-21T08:57:24Z</time>
      </trkpt>
      <trkpt lat="47.17552" lon="-1.95619">
        <ele>41</ele>
        <time>2015-06-21T08:57:30Z</time>
      </trkpt>
      <trkpt lat="47.17543" lon="-1.9563">
        <ele>41</ele>
        <time>2015-06-21T08:57:34Z</time>
      </trkpt>
      <trkpt lat="47.17507" lon="-1.95648">
        <ele>41</ele>
        <time>2015-06-21T08:57:41Z</time>
      </trkpt>
      <trkpt lat="47.17484" lon="-1.95655">
        <ele>41</ele>
        <time>2015-06-21T08:57:45Z</time>
      </trkpt>
      <trkpt lat="47.17455" lon="-1.95658">
        <ele>41</ele>
        <time>2015-06-21T08:57:49Z</time>
      </trkpt>
      <trkpt lat="47.1742" lon="-1.95689">
        <ele>41</ele>
        <time>2015-06-21T08:57:55Z</time>
      </trkpt>
      <trkpt lat="47.17392" lon="-1.95703">
        <ele>41</ele>
        <time>2015-06-21T08:58:00Z</time>
      </trkpt>
      <trkpt lat="47.17375" lon="-1.95723">
        <ele>41</ele>
        <time>2015-06-21T08:58:05Z</time>
      </trkpt>
      <trkpt lat="47.17343" lon="-1.95751">
        <ele>41</ele>
        <time>2015-06-21T08:58:12Z</time>
      </trkpt>
      <trkpt lat="47.17315" lon="-1.95773">
        <ele>40</ele>
        <time>2015-06-21T08:58:18Z</time>
      </trkpt>
      <trkpt lat="47.17304" lon="-1.95777">
        <ele>40</ele>
        <time>2015-06-21T08:58:21Z</time>
      </trkpt>
      <trkpt lat="47.17265" lon="-1.95801">
        <ele>40</ele>
        <time>2015-06-21T08:58:28Z</time>
      </trkpt>
      <trkpt lat="47.17242" lon="-1.95805">
        <ele>39</ele>
        <time>2015-06-21T08:58:33Z</time>
      </trkpt>
      <trkpt lat="47.17225" lon="-1.95823">
        <ele>39</ele>
        <time>2015-06-21T08:58:37Z</time>
      </trkpt>
      <trkpt lat="47.17213" lon="-1.95817">
        <ele>39</ele>
        <time>2015-06-21T08:58:41Z</time>
      </trkpt>
      <trkpt lat="47.1719" lon="-1.95803">
        <ele>39</ele>
        <time>2015-06-21T08:58:47Z</time>
      </trkpt>
      <trkpt lat="47.17175" lon="-1.95805">
        <ele>39</ele>
        <time>2015-06-21T08:58:51Z</time>
      </trkpt>
      <trkpt lat="47.17138" lon="-1.95817">
        <ele>39</ele>
        <time>2015-06-21T08:58:58Z</time>
      </trkpt>
      <trkpt lat="47.17124" lon="-1.95825">
        <ele>39</ele>
        <time>2015-06-21T08:59:01Z</time>
      </trkpt>
      <trkpt lat="47.17109" lon="-1.95867">
        <ele>38</ele>
        <time>2015-06-21T08:59:06Z</time>
      </trkpt>
      <trkpt lat="47.17086" lon="-1.95877">
        <ele>38</ele>
        <time>2015-06-21T08:59:13Z</time>
      </trkpt>
      <trkpt lat="47.17075" lon="-1.95884">
        <ele>38</ele>
        <time>2015-06-21T08:59:16Z</time>
      </trkpt>
      <trkpt lat="47.17043" lon="-1.95889">
        <ele>38</ele>
        <time>2015-06-21T08:59:24Z</time>
      </trkpt>
      <trkpt lat="47.17026" lon="-1.95895">
        <ele>38</ele>
        <time>2015-06-21T08:59:28Z</time>
      </trkpt>
      <trkpt lat="47.17014" lon="-1.959">
        <ele>37</ele>
        <time>2015-06-21T08:59:31Z</time>
      </trkpt>
      <trkpt lat="47.16984" lon="-1.95917">
        <ele>38</ele>
        <time>2015-06-21T08:59:38Z</time>
      </trkpt>
      <trkpt lat="47.16972" lon="-1.95927">
        <ele>39</ele>
        <time>2015-06-21T08:59:42Z</time>
      </trkpt>
      <trkpt lat="47.16964" lon="-1.95928">
        <ele>38</ele>
        <time>2015-06-21T08:59:50Z</time>
      </trkpt>
      <trkpt lat="47.16966" lon="-1.95926">
        <ele>38</ele>
        <time>2015-06-21T08:59:54Z</time>
      </trkpt>
      <trkpt lat="47.16966" lon="-1.95926">
        <ele>38</ele>
        <time>2015-06-21T08:59:58Z</time>
      </trkpt>
      <trkpt lat="47.16967" lon="-1.95926">
        <ele>38</ele>
        <time>2015-06-21T09:00:01Z</time>
      </trkpt>
      <trkpt lat="47.1695" lon="-1.95933">
        <ele>38</ele>
        <time>2015-06-21T09:03:25Z</time>
      </trkpt>
      <trkpt lat="47.16949" lon="-1.95934">
        <ele>38</ele>
        <time>2015-06-21T09:03:30Z</time>
      </trkpt>
      <trkpt lat="47.16949" lon="-1.95933">
        <ele>38</ele>
        <time>2015-06-21T09:03:35Z</time>
      </trkpt>
      <trkpt lat="47.16948" lon="-1.95933">
        <ele>38</ele>
        <time>2015-06-21T09:03:41Z</time>
      </trkpt>
      <trkpt lat="47.16946" lon="-1.95935">
        <ele>38</ele>
        <time>2015-06-21T09:03:46Z</time>
      </trkpt>
      <trkpt lat="47.16942" lon="-1.95939">
        <ele>38</ele>
        <time>2015-06-21T09:03:50Z</time>
      </trkpt>
      <trkpt lat="47.16935" lon="-1.95938">
        <ele>37</ele>
        <time>2015-06-21T09:03:55Z</time>
      </trkpt>
      <trkpt lat="47.16924" lon="-1.95938">
        <ele>37</ele>
        <time>2015-06-21T09:04:00Z</time>
      </trkpt>
      <trkpt lat="47.16907" lon="-1.95935">
        <ele>36</ele>
        <time>2015-06-21T09:04:06Z</time>
      </trkpt>
      <trkpt lat="47.16893" lon="-1.95939">
        <ele>36</ele>
        <time>2015-06-21T09:04:10Z</time>
      </trkpt>
      <trkpt lat="47.16874" lon="-1.95939">
        <ele>36</ele>
        <time>2015-06-21T09:04:15Z</time>
      </trkpt>
      <trkpt lat="47.16859" lon="-1.95938">
        <ele>36</ele>
        <time>2015-06-21T09:04:22Z</time>
      </trkpt>
      <trkpt lat="47.16859" lon="-1.9593">
        <ele>36</ele>
        <time>2015-06-21T09:04:28Z</time>
      </trkpt>
      <trkpt lat="47.16854" lon="-1.95932">
        <ele>36</ele>
        <time>2015-06-21T09:04:32Z</time>
      </trkpt>
      <trkpt lat="47.16851" lon="-1.95932">
        <ele>36</ele>
        <time>2015-06-21T09:04:35Z</time>
      </trkpt>
      <trkpt lat="47.16843" lon="-1.95937">
        <ele>36</ele>
        <time>2015-06-21T09:04:42Z</time>
      </trkpt>
      <trkpt lat="47.16838" lon="-1.95936">
        <ele>36</ele>
        <time>2015-06-21T09:04:45Z</time>
      </trkpt>
      <trkpt lat="47.16824" lon="-1.95929">
        <ele>35</ele>
        <time>2015-06-21T09:04:52Z</time>
      </trkpt>
      <trkpt lat="47.16816" lon="-1.95927">
        <ele>35</ele>
        <time>2015-06-21T09:04:55Z</time>
      </trkpt>
      <trkpt lat="47.16809" lon="-1.95926">
        <ele>35</ele>
        <time>2015-06-21T09:05:00Z</time>
      </trkpt>
      <trkpt lat="47.16795" lon="-1.95927">
        <ele>34</ele>
        <time>2015-06-21T09:05:06Z</time>
      </trkpt>
      <trkpt lat="47.16779" lon="-1.95936">
        <ele>34</ele>
        <time>2015-06-21T09:05:12Z</time>
      </trkpt>
      <trkpt lat="47.16775" lon="-1.95939">
        <ele>34</ele>
        <time>2015-06-21T09:05:15Z</time>
      </trkpt>
      <trkpt lat="47.16743" lon="-1.95937">
        <ele>33</ele>
        <time>2015-06-21T09:05:24Z</time>
      </trkpt>
      <trkpt lat="47.1674" lon="-1.95939">
        <ele>33</ele>
        <time>2015-06-21T09:05:25Z</time>
      </trkpt>
      <trkpt lat="47.16719" lon="-1.95938">
        <ele>33</ele>
        <time>2015-06-21T09:05:32Z</time>
      </trkpt>
      <trkpt lat="47.1671" lon="-1.95937">
        <ele>33</ele>
        <time>2015-06-21T09:05:35Z</time>
      </trkpt>
      <trkpt lat="47.16698" lon="-1.95938">
        <ele>33</ele>
        <time>2015-06-21T09:05:40Z</time>
      </trkpt>
      <trkpt lat="47.16673" lon="-1.95934">
        <ele>33</ele>
        <time>2015-06-21T09:05:48Z</time>
      </trkpt>
      <trkpt lat="47.16659" lon="-1.95939">
        <ele>33</ele>
        <time>2015-06-21T09:05:50Z</time>
      </trkpt>
      <trkpt lat="47.1664" lon="-1.95973">
        <ele>34</ele>
        <time>2015-06-21T09:05:59Z</time>
      </trkpt>
      <trkpt lat="47.16653" lon="-1.95996">
        <ele>35</ele>
        <time>2015-06-21T09:06:04Z</time>
      </trkpt>
      <trkpt lat="47.16669" lon="-1.96004">
        <ele>36</ele>
        <time>2015-06-21T09:06:09Z</time>
      </trkpt>
      <trkpt lat="47.16673" lon="-1.96003">
        <ele>36</ele>
        <time>2015-06-21T09:06:10Z</time>
      </trkpt>
      <trkpt lat="47.16696" lon="-1.96001">
        <ele>36</ele>
        <time>2015-06-21T09:06:15Z</time>
      </trkpt>
      <trkpt lat="47.16735" lon="-1.96001">
        <ele>36</ele>
        <time>2015-06-21T09:06:24Z</time>
      </trkpt>
      <trkpt lat="47.16756" lon="-1.9599">
        <ele>35</ele>
        <time>2015-06-21T09:06:29Z</time>
      </trkpt>
      <trkpt lat="47.1676" lon="-1.95987">
        <ele>35</ele>
        <time>2015-06-21T09:06:30Z</time>
      </trkpt>
      <trkpt lat="47.16782" lon="-1.95983">
        <ele>36</ele>
        <time>2015-06-21T09:06:35Z</time>
      </trkpt>
      <trkpt lat="47.16815" lon="-1.95981">
        <ele>38</ele>
        <time>2015-06-21T09:06:43Z</time>
      </trkpt>
      <trkpt lat="47.16821" lon="-1.95981">
        <ele>38</ele>
        <time>2015-06-21T09:06:45Z</time>
      </trkpt>
      <trkpt lat="47.16841" lon="-1.95981">
        <ele>39</ele>
        <time>2015-06-21T09:06:50Z</time>
      </trkpt>
      <trkpt lat="47.16873" lon="-1.95992">
        <ele>39</ele>
        <time>2015-06-21T09:06:59Z</time>
      </trkpt>
      <trkpt lat="47.16877" lon="-1.95992">
        <ele>39</ele>
        <time>2015-06-21T09:07:00Z</time>
      </trkpt>
      <trkpt lat="47.16901" lon="-1.95988">
        <ele>39</ele>
        <time>2015-06-21T09:07:06Z</time>
      </trkpt>
      <trkpt lat="47.1692" lon="-1.95982">
        <ele>39</ele>
        <time>2015-06-21T09:07:11Z</time>
      </trkpt>
      <trkpt lat="47.16932" lon="-1.95976">
        <ele>39</ele>
        <time>2015-06-21T09:07:15Z</time>
      </trkpt>
      <trkpt lat="47.1693" lon="-1.95987">
        <ele>40</ele>
        <time>2015-06-21T09:07:20Z</time>
      </trkpt>
      <trkpt lat="47.16916" lon="-1.96018">
        <ele>41</ele>
        <time>2015-06-21T09:07:26Z</time>
      </trkpt>
      <trkpt lat="47.16911" lon="-1.96045">
        <ele>42</ele>
        <time>2015-06-21T09:07:30Z</time>
      </trkpt>
      <trkpt lat="47.16903" lon="-1.96071">
        <ele>43</ele>
        <time>2015-06-21T09:07:35Z</time>
      </trkpt>
      <trkpt lat="47.16891" lon="-1.96094">
        <ele>43</ele>
        <time>2015-06-21T09:07:40Z</time>
      </trkpt>
      <trkpt lat="47.16878" lon="-1.96115">
        <ele>43</ele>
        <time>2015-06-21T09:07:45Z</time>
      </trkpt>
      <trkpt lat="47.16863" lon="-1.96133">
        <ele>43</ele>
        <time>2015-06-21T09:07:50Z</time>
      </trkpt>
      <trkpt lat="47.16846" lon="-1.96142">
        <ele>43</ele>
        <time>2015-06-21T09:07:55Z</time>
      </trkpt>
      <trkpt lat="47.16814" lon="-1.96154">
        <ele>42</ele>
        <time>2015-06-21T09:08:04Z</time>
      </trkpt>
      <trkpt lat="47.16809" lon="-1.96156">
        <ele>42</ele>
        <time>2015-06-21T09:08:05Z</time>
      </trkpt>
      <trkpt lat="47.16787" lon="-1.96176">
        <ele>42</ele>
        <time>2015-06-21T09:08:10Z</time>
      </trkpt>
      <trkpt lat="47.1676" lon="-1.96197">
        <ele>42</ele>
        <time>2015-06-21T09:08:15Z</time>
      </trkpt>
      <trkpt lat="47.16731" lon="-1.96216">
        <ele>42</ele>
        <time>2015-06-21T09:08:20Z</time>
      </trkpt>
      <trkpt lat="47.16717" lon="-1.9619">
        <ele>41</ele>
        <time>2015-06-21T09:08:26Z</time>
      </trkpt>
      <trkpt lat="47.16711" lon="-1.96182">
        <ele>41</ele>
        <time>2015-06-21T09:08:30Z</time>
      </trkpt>
      <trkpt lat="47.16693" lon="-1.96185">
        <ele>41</ele>
        <time>2015-06-21T09:08:36Z</time>
      </trkpt>
      <trkpt lat="47.16683" lon="-1.96193">
        <ele>41</ele>
        <time>2015-06-21T09:08:40Z</time>
      </trkpt>
      <trkpt lat="47.16678" lon="-1.96201">
        <ele>41</ele>
        <time>2015-06-21T09:08:45Z</time>
      </trkpt>
      <trkpt lat="47.16671" lon="-1.96212">
        <ele>41</ele>
        <time>2015-06-21T09:08:51Z</time>
      </trkpt>
      <trkpt lat="47.16658" lon="-1.96221">
        <ele>41</ele>
        <time>2015-06-21T09:08:55Z</time>
      </trkpt>
      <trkpt lat="47.16643" lon="-1.96227">
        <ele>41</ele>
        <time>2015-06-21T09:09:00Z</time>
      </trkpt>
      <trkpt lat="47.16624" lon="-1.96245">
        <ele>40</ele>
        <time>2015-06-21T09:09:07Z</time>
      </trkpt>
      <trkpt lat="47.16607" lon="-1.96251">
        <ele>40</ele>
        <time>2015-06-21T09:09:14Z</time>
      </trkpt>
      <trkpt lat="47.16603" lon="-1.96253">
        <ele>39</ele>
        <time>2015-06-21T09:09:15Z</time>
      </trkpt>
      <trkpt lat="47.16583" lon="-1.96268">
        <ele>39</ele>
        <time>2015-06-21T09:09:20Z</time>
      </trkpt>
      <trkpt lat="47.16574" lon="-1.96282">
        <ele>38</ele>
        <time>2015-06-21T09:09:27Z</time>
      </trkpt>
      <trkpt lat="47.16568" lon="-1.96288">
        <ele>38</ele>
        <time>2015-06-21T09:09:30Z</time>
      </trkpt>
      <trkpt lat="47.16544" lon="-1.96306">
        <ele>37</ele>
        <time>2015-06-21T09:09:38Z</time>
      </trkpt>
      <trkpt lat="47.16539" lon="-1.96314">
        <ele>37</ele>
        <time>2015-06-21T09:09:43Z</time>
      </trkpt>
      <trkpt lat="47.16534" lon="-1.96316">
        <ele>37</ele>
        <time>2015-06-21T09:09:46Z</time>
      </trkpt>
      <trkpt lat="47.16521" lon="-1.96327">
        <ele>36</ele>
        <time>2015-06-21T09:09:54Z</time>
      </trkpt>
      <trkpt lat="47.16518" lon="-1.96329">
        <ele>36</ele>
        <time>2015-06-21T09:09:55Z</time>
      </trkpt>
      <trkpt lat="47.16503" lon="-1.96331">
        <ele>36</ele>
        <time>2015-06-21T09:10:01Z</time>
      </trkpt>
      <trkpt lat="47.16499" lon="-1.96351">
        <ele>36</ele>
        <time>2015-06-21T09:10:05Z</time>
      </trkpt>
      <trkpt lat="47.16488" lon="-1.96366">
        <ele>35</ele>
        <time>2015-06-21T09:10:11Z</time>
      </trkpt>
      <trkpt lat="47.16453" lon="-1.96359">
        <ele>33</ele>
        <time>2015-06-21T09:10:19Z</time>
      </trkpt>
      <trkpt lat="47.16444" lon="-1.96358">
        <ele>33</ele>
        <time>2015-06-21T09:10:21Z</time>
      </trkpt>
      <trkpt lat="47.16428" lon="-1.96357">
        <ele>32</ele>
        <time>2015-06-21T09:10:25Z</time>
      </trkpt>
      <trkpt lat="47.16401" lon="-1.96363">
        <ele>31</ele>
        <time>2015-06-21T09:10:34Z</time>
      </trkpt>
      <trkpt lat="47.16397" lon="-1.96365">
        <ele>31</ele>
        <time>2015-06-21T09:10:35Z</time>
      </trkpt>
      <trkpt lat="47.16358" lon="-1.96355">
        <ele>29</ele>
        <time>2015-06-21T09:10:44Z</time>
      </trkpt>
      <trkpt lat="47.16352" lon="-1.96354">
        <ele>29</ele>
        <time>2015-06-21T09:10:45Z</time>
      </trkpt>
      <trkpt lat="47.16308" lon="-1.96389">
        <ele>28</ele>
        <time>2015-06-21T09:10:53Z</time>
      </trkpt>
      <trkpt lat="47.16299" lon="-1.96434">
        <ele>27</ele>
        <time>2015-06-21T09:10:58Z</time>
      </trkpt>
      <trkpt lat="47.16292" lon="-1.96448">
        <ele>27</ele>
        <time>2015-06-21T09:11:00Z</time>
      </trkpt>
      <trkpt lat="47.16276" lon="-1.9645">
        <ele>26</ele>
        <time>2015-06-21T09:11:05Z</time>
      </trkpt>
      <trkpt lat="47.16246" lon="-1.96425">
        <ele>27</ele>
        <time>2015-06-21T09:11:13Z</time>
      </trkpt>
      <trkpt lat="47.16244" lon="-1.96417">
        <ele>27</ele>
        <time>2015-06-21T09:11:15Z</time>
      </trkpt>
      <trkpt lat="47.1623" lon="-1.96401">
        <ele>29</ele>
        <time>2015-06-21T09:11:20Z</time>
      </trkpt>
      <trkpt lat="47.1622" lon="-1.96382">
        <ele>30</ele>
        <time>2015-06-21T09:11:25Z</time>
      </trkpt>
      <trkpt lat="47.16214" lon="-1.96359">
        <ele>30</ele>
        <time>2015-06-21T09:11:31Z</time>
      </trkpt>
      <trkpt lat="47.16203" lon="-1.96337">
        <ele>31</ele>
        <time>2015-06-21T09:11:35Z</time>
      </trkpt>
      <trkpt lat="47.1619" lon="-1.96311">
        <ele>31</ele>
        <time>2015-06-21T09:11:40Z</time>
      </trkpt>
      <trkpt lat="47.16179" lon="-1.96295">
        <ele>32</ele>
        <time>2015-06-21T09:11:45Z</time>
      </trkpt>
      <trkpt lat="47.16156" lon="-1.96252">
        <ele>33</ele>
        <time>2015-06-21T09:11:52Z</time>
      </trkpt>
      <trkpt lat="47.1615" lon="-1.9624">
        <ele>33</ele>
        <time>2015-06-21T09:11:55Z</time>
      </trkpt>
      <trkpt lat="47.16136" lon="-1.96204">
        <ele>34</ele>
        <time>2015-06-21T09:12:02Z</time>
      </trkpt>
      <trkpt lat="47.16136" lon="-1.96194">
        <ele>34</ele>
        <time>2015-06-21T09:12:05Z</time>
      </trkpt>
      <trkpt lat="47.16121" lon="-1.96179">
        <ele>35</ele>
        <time>2015-06-21T09:12:11Z</time>
      </trkpt>
      <trkpt lat="47.1611" lon="-1.96171">
        <ele>35</ele>
        <time>2015-06-21T09:12:15Z</time>
      </trkpt>
      <trkpt lat="47.16097" lon="-1.96153">
        <ele>36</ele>
        <time>2015-06-21T09:12:23Z</time>
      </trkpt>
      <trkpt lat="47.16078" lon="-1.96138">
        <ele>36</ele>
        <time>2015-06-21T09:12:30Z</time>
      </trkpt>
      <trkpt lat="47.16075" lon="-1.96136">
        <ele>36</ele>
        <time>2015-06-21T09:12:31Z</time>
      </trkpt>
      <trkpt lat="47.16051" lon="-1.96124">
        <ele>37</ele>
        <time>2015-06-21T09:12:40Z</time>
      </trkpt>
      <trkpt lat="47.16046" lon="-1.9612">
        <ele>37</ele>
        <time>2015-06-21T09:12:42Z</time>
      </trkpt>
      <trkpt lat="47.16019" lon="-1.96099">
        <ele>37</ele>
        <time>2015-06-21T09:12:50Z</time>
      </trkpt>
      <trkpt lat="47.16017" lon="-1.96097">
        <ele>37</ele>
        <time>2015-06-21T09:12:51Z</time>
      </trkpt>
      <trkpt lat="47.15995" lon="-1.96096">
        <ele>37</ele>
        <time>2015-06-21T09:12:57Z</time>
      </trkpt>
      <trkpt lat="47.15979" lon="-1.961">
        <ele>37</ele>
        <time>2015-06-21T09:13:03Z</time>
      </trkpt>
      <trkpt lat="47.1595" lon="-1.9606">
        <ele>37</ele>
        <time>2015-06-21T09:13:10Z</time>
      </trkpt>
      <trkpt lat="47.15943" lon="-1.96047">
        <ele>37</ele>
        <time>2015-06-21T09:13:13Z</time>
      </trkpt>
      <trkpt lat="47.15938" lon="-1.96023">
        <ele>37</ele>
        <time>2015-06-21T09:13:18Z</time>
      </trkpt>
      <trkpt lat="47.15931" lon="-1.96005">
        <ele>37</ele>
        <time>2015-06-21T09:13:21Z</time>
      </trkpt>
      <trkpt lat="47.15906" lon="-1.95965">
        <ele>37</ele>
        <time>2015-06-21T09:13:27Z</time>
      </trkpt>
      <trkpt lat="47.1588" lon="-1.95922">
        <ele>36</ele>
        <time>2015-06-21T09:13:33Z</time>
      </trkpt>
      <trkpt lat="47.1587" lon="-1.95905">
        <ele>36</ele>
        <time>2015-06-21T09:13:36Z</time>
      </trkpt>
      <trkpt lat="47.15843" lon="-1.95858">
        <ele>35</ele>
        <time>2015-06-21T09:13:45Z</time>
      </trkpt>
      <trkpt lat="47.15839" lon="-1.95855">
        <ele>35</ele>
        <time>2015-06-21T09:13:46Z</time>
      </trkpt>
      <trkpt lat="47.1581" lon="-1.95826">
        <ele>34</ele>
        <time>2015-06-21T09:13:51Z</time>
      </trkpt>
      <trkpt lat="47.15776" lon="-1.95806">
        <ele>32</ele>
        <time>2015-06-21T09:13:56Z</time>
      </trkpt>
      <trkpt lat="47.15748" lon="-1.95785">
        <ele>31</ele>
        <time>2015-06-21T09:14:03Z</time>
      </trkpt>
      <trkpt lat="47.1573" lon="-1.95767">
        <ele>30</ele>
        <time>2015-06-21T09:14:06Z</time>
      </trkpt>
      <trkpt lat="47.15677" lon="-1.9573">
        <ele>27</ele>
        <time>2015-06-21T09:14:14Z</time>
      </trkpt>
      <trkpt lat="47.15654" lon="-1.95699">
        <ele>26</ele>
        <time>2015-06-21T09:14:20Z</time>
      </trkpt>
      <trkpt lat="47.15649" lon="-1.95673">
        <ele>26</ele>
        <time>2015-06-21T09:14:25Z</time>
      </trkpt>
      <trkpt lat="47.15644" lon="-1.95661">
        <ele>26</ele>
        <time>2015-06-21T09:14:28Z</time>
      </trkpt>
      <trkpt lat="47.15625" lon="-1.95636">
        <ele>26</ele>
        <time>2015-06-21T09:14:34Z</time>
      </trkpt>
      <trkpt lat="47.15618" lon="-1.95626">
        <ele>26</ele>
        <time>2015-06-21T09:14:36Z</time>
      </trkpt>
      <trkpt lat="47.15588" lon="-1.95601">
        <ele>28</ele>
        <time>2015-06-21T09:14:41Z</time>
      </trkpt>
      <trkpt lat="47.1552" lon="-1.95538">
        <ele>31</ele>
        <time>2015-06-21T09:14:50Z</time>
      </trkpt>
      <trkpt lat="47.15528" lon="-1.9552">
        <ele>31</ele>
        <time>2015-06-21T09:14:53Z</time>
      </trkpt>
      <trkpt lat="47.15535" lon="-1.95504">
        <ele>31</ele>
        <time>2015-06-21T09:14:56Z</time>
      </trkpt>
      <trkpt lat="47.15548" lon="-1.95477">
        <ele>31</ele>
        <time>2015-06-21T09:15:01Z</time>
      </trkpt>
      <trkpt lat="47.15569" lon="-1.95424">
        <ele>32</ele>
        <time>2015-06-21T09:15:10Z</time>
      </trkpt>
      <trkpt lat="47.15572" lon="-1.95418">
        <ele>32</ele>
        <time>2015-06-21T09:15:11Z</time>
      </trkpt>
      <trkpt lat="47.15589" lon="-1.95381">
        <ele>32</ele>
        <time>2015-06-21T09:15:17Z</time>
      </trkpt>
      <trkpt lat="47.15601" lon="-1.95355">
        <ele>32</ele>
        <time>2015-06-21T09:15:21Z</time>
      </trkpt>
      <trkpt lat="47.15625" lon="-1.95304">
        <ele>32</ele>
        <time>2015-06-21T09:15:29Z</time>
      </trkpt>
      <trkpt lat="47.15636" lon="-1.95283">
        <ele>32</ele>
        <time>2015-06-21T09:15:33Z</time>
      </trkpt>
      <trkpt lat="47.15652" lon="-1.95255">
        <ele>32</ele>
        <time>2015-06-21T09:15:38Z</time>
      </trkpt>
      <trkpt lat="47.15665" lon="-1.95228">
        <ele>33</ele>
        <time>2015-06-21T09:15:43Z</time>
      </trkpt>
      <trkpt lat="47.15674" lon="-1.95213">
        <ele>33</ele>
        <time>2015-06-21T09:15:46Z</time>
      </trkpt>
      <trkpt lat="47.15689" lon="-1.95186">
        <ele>33</ele>
        <time>2015-06-21T09:15:51Z</time>
      </trkpt>
      <trkpt lat="47.15708" lon="-1.95164">
        <ele>34</ele>
        <time>2015-06-21T09:15:56Z</time>
      </trkpt>
      <trkpt lat="47.15728" lon="-1.95148">
        <ele>34</ele>
        <time>2015-06-21T09:16:01Z</time>
      </trkpt>
      <trkpt lat="47.15761" lon="-1.95116">
        <ele>35</ele>
        <time>2015-06-21T09:16:10Z</time>
      </trkpt>
      <trkpt lat="47.15766" lon="-1.95105">
        <ele>35</ele>
        <time>2015-06-21T09:16:12Z</time>
      </trkpt>
      <trkpt lat="47.15781" lon="-1.95081">
        <ele>36</ele>
        <time>2015-06-21T09:16:18Z</time>
      </trkpt>
      <trkpt lat="47.15801" lon="-1.95051">
        <ele>37</ele>
        <time>2015-06-21T09:16:25Z</time>
      </trkpt>
      <trkpt lat="47.15811" lon="-1.95034">
        <ele>37</ele>
        <time>2015-06-21T09:16:29Z</time>
      </trkpt>
      <trkpt lat="47.15822" lon="-1.95019">
        <ele>37</ele>
        <time>2015-06-21T09:16:33Z</time>
      </trkpt>
      <trkpt lat="47.1583" lon="-1.95008">
        <ele>38</ele>
        <time>2015-06-21T09:16:36Z</time>
      </trkpt>
      <trkpt lat="47.15843" lon="-1.94991">
        <ele>38</ele>
        <time>2015-06-21T09:16:41Z</time>
      </trkpt>
      <trkpt lat="47.15856" lon="-1.94976">
        <ele>38</ele>
        <time>2015-06-21T09:16:46Z</time>
      </trkpt>
      <trkpt lat="47.15877" lon="-1.94947">
        <ele>39</ele>
        <time>2015-06-21T09:16:55Z</time>
      </trkpt>
      <trkpt lat="47.15888" lon="-1.94936">
        <ele>40</ele>
        <time>2015-06-21T09:16:59Z</time>
      </trkpt>
      <trkpt lat="47.15895" lon="-1.94931">
        <ele>40</ele>
        <time>2015-06-21T09:17:01Z</time>
      </trkpt>
      <trkpt lat="47.15921" lon="-1.94902">
        <ele>40</ele>
        <time>2015-06-21T09:17:08Z</time>
      </trkpt>
      <trkpt lat="47.15934" lon="-1.9489">
        <ele>41</ele>
        <time>2015-06-21T09:17:12Z</time>
      </trkpt>
      <trkpt lat="47.15957" lon="-1.94889">
        <ele>41</ele>
        <time>2015-06-21T09:17:18Z</time>
      </trkpt>
      <trkpt lat="47.15969" lon="-1.94888">
        <ele>41</ele>
        <time>2015-06-21T09:17:21Z</time>
      </trkpt>
      <trkpt lat="47.15989" lon="-1.94887">
        <ele>42</ele>
        <time>2015-06-21T09:17:26Z</time>
      </trkpt>
      <trkpt lat="47.16019" lon="-1.94891">
        <ele>43</ele>
        <time>2015-06-21T09:17:33Z</time>
      </trkpt>
      <trkpt lat="47.1603" lon="-1.94892">
        <ele>43</ele>
        <time>2015-06-21T09:17:36Z</time>
      </trkpt>
      <trkpt lat="47.16051" lon="-1.94893">
        <ele>44</ele>
        <time>2015-06-21T09:17:42Z</time>
      </trkpt>
      <trkpt lat="47.16073" lon="-1.94884">
        <ele>45</ele>
        <time>2015-06-21T09:17:48Z</time>
      </trkpt>
      <trkpt lat="47.16082" lon="-1.94877">
        <ele>45</ele>
        <time>2015-06-21T09:17:51Z</time>
      </trkpt>
      <trkpt lat="47.16098" lon="-1.94866">
        <ele>46</ele>
        <time>2015-06-21T09:17:56Z</time>
      </trkpt>
      <trkpt lat="47.16118" lon="-1.94856">
        <ele>46</ele>
        <time>2015-06-21T09:18:02Z</time>
      </trkpt>
      <trkpt lat="47.16148" lon="-1.94861">
        <ele>46</ele>
        <time>2015-06-21T09:18:10Z</time>
      </trkpt>
      <trkpt lat="47.16152" lon="-1.94862">
        <ele>46</ele>
        <time>2015-06-21T09:18:11Z</time>
      </trkpt>
      <trkpt lat="47.16172" lon="-1.94865">
        <ele>46</ele>
        <time>2015-06-21T09:18:16Z</time>
      </trkpt>
      <trkpt lat="47.1619" lon="-1.94871">
        <ele>46</ele>
        <time>2015-06-21T09:18:21Z</time>
      </trkpt>
      <trkpt lat="47.16209" lon="-1.94888">
        <ele>46</ele>
        <time>2015-06-21T09:18:27Z</time>
      </trkpt>
      <trkpt lat="47.16246" lon="-1.94901">
        <ele>46</ele>
        <time>2015-06-21T09:18:35Z</time>
      </trkpt>
      <trkpt lat="47.16251" lon="-1.94902">
        <ele>46</ele>
        <time>2015-06-21T09:18:36Z</time>
      </trkpt>
      <trkpt lat="47.16282" lon="-1.9492">
        <ele>46</ele>
        <time>2015-06-21T09:18:44Z</time>
      </trkpt>
      <trkpt lat="47.16292" lon="-1.94932">
        <ele>46</ele>
        <time>2015-06-21T09:18:47Z</time>
      </trkpt>
      <trkpt lat="47.16308" lon="-1.94951">
        <ele>46</ele>
        <time>2015-06-21T09:18:52Z</time>
      </trkpt>
      <trkpt lat="47.16321" lon="-1.9497">
        <ele>46</ele>
        <time>2015-06-21T09:18:56Z</time>
      </trkpt>
      <trkpt lat="47.16345" lon="-1.95006">
        <ele>46</ele>
        <time>2015-06-21T09:19:04Z</time>
      </trkpt>
      <trkpt lat="47.1635" lon="-1.95014">
        <ele>46</ele>
        <time>2015-06-21T09:19:06Z</time>
      </trkpt>
      <trkpt lat="47.1637" lon="-1.95043">
        <ele>46</ele>
        <time>2015-06-21T09:19:12Z</time>
      </trkpt>
      <trkpt lat="47.16391" lon="-1.95079">
        <ele>46</ele>
        <time>2015-06-21T09:19:18Z</time>
      </trkpt>
      <trkpt lat="47.164" lon="-1.95095">
        <ele>46</ele>
        <time>2015-06-21T09:19:21Z</time>
      </trkpt>
      <trkpt lat="47.16418" lon="-1.9513">
        <ele>46</ele>
        <time>2015-06-21T09:19:28Z</time>
      </trkpt>
      <trkpt lat="47.16433" lon="-1.95151">
        <ele>47</ele>
        <time>2015-06-21T09:19:32Z</time>
      </trkpt>
      <trkpt lat="47.16449" lon="-1.95173">
        <ele>47</ele>
        <time>2015-06-21T09:19:40Z</time>
      </trkpt>
      <trkpt lat="47.16447" lon="-1.95179">
        <ele>47</ele>
        <time>2015-06-21T09:19:42Z</time>
      </trkpt>
      <trkpt lat="47.16456" lon="-1.95209">
        <ele>47</ele>
        <time>2015-06-21T09:19:48Z</time>
      </trkpt>
      <trkpt lat="47.16463" lon="-1.95238">
        <ele>46</ele>
        <time>2015-06-21T09:19:52Z</time>
      </trkpt>
      <trkpt lat="47.16472" lon="-1.95266">
        <ele>46</ele>
        <time>2015-06-21T09:19:56Z</time>
      </trkpt>
      <trkpt lat="47.16488" lon="-1.95299">
        <ele>46</ele>
        <time>2015-06-21T09:20:01Z</time>
      </trkpt>
      <trkpt lat="47.16509" lon="-1.95322">
        <ele>46</ele>
        <time>2015-06-21T09:20:07Z</time>
      </trkpt>
      <trkpt lat="47.16524" lon="-1.95331">
        <ele>45</ele>
        <time>2015-06-21T09:20:11Z</time>
      </trkpt>
      <trkpt lat="47.16558" lon="-1.95324">
        <ele>45</ele>
        <time>2015-06-21T09:20:19Z</time>
      </trkpt>
      <trkpt lat="47.16584" lon="-1.95319">
        <ele>44</ele>
        <time>2015-06-21T09:20:24Z</time>
      </trkpt>
      <trkpt lat="47.16592" lon="-1.95316">
        <ele>44</ele>
        <time>2015-06-21T09:20:26Z</time>
      </trkpt>
      <trkpt lat="47.16626" lon="-1.95311">
        <ele>43</ele>
        <time>2015-06-21T09:20:32Z</time>
      </trkpt>
      <trkpt lat="47.16649" lon="-1.95305">
        <ele>42</ele>
        <time>2015-06-21T09:20:36Z</time>
      </trkpt>
      <trkpt lat="47.16685" lon="-1.95295">
        <ele>41</ele>
        <time>2015-06-21T09:20:42Z</time>
      </trkpt>
      <trkpt lat="47.16706" lon="-1.95289">
        <ele>41</ele>
        <time>2015-06-21T09:20:46Z</time>
      </trkpt>
      <trkpt lat="47.16729" lon="-1.95272">
        <ele>41</ele>
        <time>2015-06-21T09:20:51Z</time>
      </trkpt>
      <trkpt lat="47.16764" lon="-1.95257">
        <ele>42</ele>
        <time>2015-06-21T09:20:58Z</time>
      </trkpt>
      <trkpt lat="47.16776" lon="-1.95252">
        <ele>43</ele>
        <time>2015-06-21T09:21:01Z</time>
      </trkpt>
      <trkpt lat="47.16807" lon="-1.95238">
        <ele>43</ele>
        <time>2015-06-21T09:21:08Z</time>
      </trkpt>
      <trkpt lat="47.16829" lon="-1.95227">
        <ele>44</ele>
        <time>2015-06-21T09:21:13Z</time>
      </trkpt>
      <trkpt lat="47.16849" lon="-1.95212">
        <ele>44</ele>
        <time>2015-06-21T09:21:18Z</time>
      </trkpt>
      <trkpt lat="47.16875" lon="-1.95194">
        <ele>45</ele>
        <time>2015-06-21T09:21:25Z</time>
      </trkpt>
      <trkpt lat="47.16888" lon="-1.95189">
        <ele>45</ele>
        <time>2015-06-21T09:21:28Z</time>
      </trkpt>
      <trkpt lat="47.169" lon="-1.95182">
        <ele>45</ele>
        <time>2015-06-21T09:21:32Z</time>
      </trkpt>
      <trkpt lat="47.16913" lon="-1.95176">
        <ele>46</ele>
        <time>2015-06-21T09:21:36Z</time>
      </trkpt>
      <trkpt lat="47.16935" lon="-1.95161">
        <ele>46</ele>
        <time>2015-06-21T09:21:42Z</time>
      </trkpt>
      <trkpt lat="47.1695" lon="-1.95157">
        <ele>47</ele>
        <time>2015-06-21T09:21:46Z</time>
      </trkpt>
      <trkpt lat="47.16973" lon="-1.95171">
        <ele>48</ele>
        <time>2015-06-21T09:21:53Z</time>
      </trkpt>
      <trkpt lat="47.16988" lon="-1.95205">
        <ele>49</ele>
        <time>2015-06-21T09:22:00Z</time>
      </trkpt>
      <trkpt lat="47.16995" lon="-1.95227">
        <ele>49</ele>
        <time>2015-06-21T09:22:05Z</time>
      </trkpt>
      <trkpt lat="47.16999" lon="-1.95237">
        <ele>49</ele>
        <time>2015-06-21T09:22:07Z</time>
      </trkpt>
      <trkpt lat="47.17014" lon="-1.95259">
        <ele>50</ele>
        <time>2015-06-21T09:22:15Z</time>
      </trkpt>
      <trkpt lat="47.17016" lon="-1.95257">
        <ele>50</ele>
        <time>2015-06-21T09:22:16Z</time>
      </trkpt>
      <trkpt lat="47.17022" lon="-1.95233">
        <ele>50</ele>
        <time>2015-06-21T09:22:25Z</time>
      </trkpt>
      <trkpt lat="47.17023" lon="-1.9523">
        <ele>50</ele>
        <time>2015-06-21T09:22:26Z</time>
      </trkpt>
      <trkpt lat="47.17033" lon="-1.95201">
        <ele>50</ele>
        <time>2015-06-21T09:22:33Z</time>
      </trkpt>
      <trkpt lat="47.1704" lon="-1.95184">
        <ele>50</ele>
        <time>2015-06-21T09:22:36Z</time>
      </trkpt>
      <trkpt lat="47.17051" lon="-1.95162">
        <ele>50</ele>
        <time>2015-06-21T09:22:41Z</time>
      </trkpt>
      <trkpt lat="47.17061" lon="-1.95138">
        <ele>50</ele>
        <time>2015-06-21T09:22:46Z</time>
      </trkpt>
      <trkpt lat="47.17074" lon="-1.9511">
        <ele>51</ele>
        <time>2015-06-21T09:22:51Z</time>
      </trkpt>
      <trkpt lat="47.17087" lon="-1.95078">
        <ele>51</ele>
        <time>2015-06-21T09:22:56Z</time>
      </trkpt>
      <trkpt lat="47.17101" lon="-1.95035">
        <ele>53</ele>
        <time>2015-06-21T09:23:02Z</time>
      </trkpt>
      <trkpt lat="47.1711" lon="-1.95002">
        <ele>53</ele>
        <time>2015-06-21T09:23:07Z</time>
      </trkpt>
      <trkpt lat="47.17119" lon="-1.94972">
        <ele>54</ele>
        <time>2015-06-21T09:23:13Z</time>
      </trkpt>
      <trkpt lat="47.17124" lon="-1.94958">
        <ele>54</ele>
        <time>2015-06-21T09:23:16Z</time>
      </trkpt>
      <trkpt lat="47.17143" lon="-1.94911">
        <ele>55</ele>
        <time>2015-06-21T09:23:25Z</time>
      </trkpt>
      <trkpt lat="47.17156" lon="-1.94889">
        <ele>55</ele>
        <time>2015-06-21T09:23:30Z</time>
      </trkpt>
      <trkpt lat="47.17159" lon="-1.94887">
        <ele>55</ele>
        <time>2015-06-21T09:23:31Z</time>
      </trkpt>
      <trkpt lat="47.17177" lon="-1.94871">
        <ele>55</ele>
        <time>2015-06-21T09:23:36Z</time>
      </trkpt>
      <trkpt lat="47.17204" lon="-1.94857">
        <ele>56</ele>
        <time>2015-06-21T09:23:42Z</time>
      </trkpt>
      <trkpt lat="47.17221" lon="-1.94847">
        <ele>56</ele>
        <time>2015-06-21T09:23:46Z</time>
      </trkpt>
      <trkpt lat="47.17245" lon="-1.94823">
        <ele>56</ele>
        <time>2015-06-21T09:23:51Z</time>
      </trkpt>
      <trkpt lat="47.17266" lon="-1.94801">
        <ele>56</ele>
        <time>2015-06-21T09:23:56Z</time>
      </trkpt>
      <trkpt lat="47.17297" lon="-1.94762">
        <ele>55</ele>
        <time>2015-06-21T09:24:04Z</time>
      </trkpt>
      <trkpt lat="47.17305" lon="-1.94753">
        <ele>55</ele>
        <time>2015-06-21T09:24:06Z</time>
      </trkpt>
      <trkpt lat="47.17328" lon="-1.94721">
        <ele>55</ele>
        <time>2015-06-21T09:24:12Z</time>
      </trkpt>
      <trkpt lat="47.17345" lon="-1.94697">
        <ele>54</ele>
        <time>2015-06-21T09:24:16Z</time>
      </trkpt>
      <trkpt lat="47.17367" lon="-1.94671">
        <ele>54</ele>
        <time>2015-06-21T09:24:21Z</time>
      </trkpt>
      <trkpt lat="47.17396" lon="-1.94637">
        <ele>53</ele>
        <time>2015-06-21T09:24:27Z</time>
      </trkpt>
      <trkpt lat="47.17415" lon="-1.94613">
        <ele>53</ele>
        <time>2015-06-21T09:24:31Z</time>
      </trkpt>
      <trkpt lat="47.17442" lon="-1.94578">
        <ele>52</ele>
        <time>2015-06-21T09:24:36Z</time>
      </trkpt>
      <trkpt lat="47.17474" lon="-1.94544">
        <ele>51</ele>
        <time>2015-06-21T09:24:41Z</time>
      </trkpt>
      <trkpt lat="47.17506" lon="-1.94521">
        <ele>50</ele>
        <time>2015-06-21T09:24:46Z</time>
      </trkpt>
      <trkpt lat="47.1755" lon="-1.94503">
        <ele>50</ele>
        <time>2015-06-21T09:24:52Z</time>
      </trkpt>
      <trkpt lat="47.17581" lon="-1.94484">
        <ele>49</ele>
        <time>2015-06-21T09:24:57Z</time>
      </trkpt>
      <trkpt lat="47.17624" lon="-1.94468">
        <ele>49</ele>
        <time>2015-06-21T09:25:04Z</time>
      </trkpt>
      <trkpt lat="47.1764" lon="-1.94463">
        <ele>49</ele>
        <time>2015-06-21T09:25:07Z</time>
      </trkpt>
      <trkpt lat="47.17658" lon="-1.94458">
        <ele>50</ele>
        <time>2015-06-21T09:25:11Z</time>
      </trkpt>
      <trkpt lat="47.17657" lon="-1.94434">
        <ele>49</ele>
        <time>2015-06-21T09:25:16Z</time>
      </trkpt>
      <trkpt lat="47.1764" lon="-1.94403">
        <ele>48</ele>
        <time>2015-06-21T09:25:21Z</time>
      </trkpt>
      <trkpt lat="47.17597" lon="-1.94333">
        <ele>46</ele>
        <time>2015-06-21T09:25:30Z</time>
      </trkpt>
      <trkpt lat="47.1759" lon="-1.94323">
        <ele>45</ele>
        <time>2015-06-21T09:25:31Z</time>
      </trkpt>
      <trkpt lat="47.17561" lon="-1.94281">
        <ele>45</ele>
        <time>2015-06-21T09:25:36Z</time>
      </trkpt>
      <trkpt lat="47.17539" lon="-1.9422">
        <ele>46</ele>
        <time>2015-06-21T09:25:44Z</time>
      </trkpt>
      <trkpt lat="47.17528" lon="-1.94194">
        <ele>46</ele>
        <time>2015-06-21T09:25:47Z</time>
      </trkpt>
      <trkpt lat="47.17527" lon="-1.94166">
        <ele>46</ele>
        <time>2015-06-21T09:25:51Z</time>
      </trkpt>
      <trkpt lat="47.17518" lon="-1.94119">
        <ele>46</ele>
        <time>2015-06-21T09:25:57Z</time>
      </trkpt>
      <trkpt lat="47.17512" lon="-1.94074">
        <ele>45</ele>
        <time>2015-06-21T09:26:03Z</time>
      </trkpt>
      <trkpt lat="47.17507" lon="-1.94036">
        <ele>45</ele>
        <time>2015-06-21T09:26:08Z</time>
      </trkpt>
      <trkpt lat="47.17502" lon="-1.9401">
        <ele>44</ele>
        <time>2015-06-21T09:26:11Z</time>
      </trkpt>
      <trkpt lat="47.17498" lon="-1.93955">
        <ele>43</ele>
        <time>2015-06-21T09:26:17Z</time>
      </trkpt>
      <trkpt lat="47.17492" lon="-1.93914">
        <ele>42</ele>
        <time>2015-06-21T09:26:22Z</time>
      </trkpt>
      <trkpt lat="47.17486" lon="-1.93848">
        <ele>41</ele>
        <time>2015-06-21T09:26:30Z</time>
      </trkpt>
      <trkpt lat="47.17483" lon="-1.93831">
        <ele>41</ele>
        <time>2015-06-21T09:26:32Z</time>
      </trkpt>
      <trkpt lat="47.17472" lon="-1.93788">
        <ele>41</ele>
        <time>2015-06-21T09:26:37Z</time>
      </trkpt>
      <trkpt lat="47.17461" lon="-1.93729">
        <ele>41</ele>
        <time>2015-06-21T09:26:44Z</time>
      </trkpt>
      <trkpt lat="47.17434" lon="-1.93696">
        <ele>43</ele>
        <time>2015-06-21T09:26:51Z</time>
      </trkpt>
      <trkpt lat="47.17431" lon="-1.93691">
        <ele>43</ele>
        <time>2015-06-21T09:26:52Z</time>
      </trkpt>
      <trkpt lat="47.17419" lon="-1.9366">
        <ele>43</ele>
        <time>2015-06-21T09:26:59Z</time>
      </trkpt>
      <trkpt lat="47.17405" lon="-1.93635">
        <ele>44</ele>
        <time>2015-06-21T09:27:03Z</time>
      </trkpt>
      <trkpt lat="47.17397" lon="-1.93616">
        <ele>45</ele>
        <time>2015-06-21T09:27:07Z</time>
      </trkpt>
      <trkpt lat="47.17375" lon="-1.93576">
        <ele>45</ele>
        <time>2015-06-21T09:27:17Z</time>
      </trkpt>
      <trkpt lat="47.17374" lon="-1.93573">
        <ele>45</ele>
        <time>2015-06-21T09:27:18Z</time>
      </trkpt>
      <trkpt lat="47.17372" lon="-1.93529">
        <ele>46</ele>
        <time>2015-06-21T09:27:27Z</time>
      </trkpt>
      <trkpt lat="47.17368" lon="-1.93517">
        <ele>46</ele>
        <time>2015-06-21T09:27:29Z</time>
      </trkpt>
      <trkpt lat="47.17353" lon="-1.93473">
        <ele>47</ele>
        <time>2015-06-21T09:27:36Z</time>
      </trkpt>
      <trkpt lat="47.1735" lon="-1.93462">
        <ele>47</ele>
        <time>2015-06-21T09:27:38Z</time>
      </trkpt>
      <trkpt lat="47.17339" lon="-1.93422">
        <ele>48</ele>
        <time>2015-06-21T09:27:45Z</time>
      </trkpt>
      <trkpt lat="47.17335" lon="-1.9339">
        <ele>48</ele>
        <time>2015-06-21T09:27:50Z</time>
      </trkpt>
      <trkpt lat="47.17332" lon="-1.93371">
        <ele>48</ele>
        <time>2015-06-21T09:27:53Z</time>
      </trkpt>
      <trkpt lat="47.1733" lon="-1.93341">
        <ele>49</ele>
        <time>2015-06-21T09:27:58Z</time>
      </trkpt>
      <trkpt lat="47.17328" lon="-1.93309">
        <ele>49</ele>
        <time>2015-06-21T09:28:03Z</time>
      </trkpt>
      <trkpt lat="47.17326" lon="-1.93277">
        <ele>50</ele>
        <time>2015-06-21T09:28:08Z</time>
      </trkpt>
      <trkpt lat="47.17323" lon="-1.9325">
        <ele>50</ele>
        <time>2015-06-21T09:28:13Z</time>
      </trkpt>
      <trkpt lat="47.17325" lon="-1.93213">
        <ele>50</ele>
        <time>2015-06-21T09:28:20Z</time>
      </trkpt>
      <trkpt lat="47.17328" lon="-1.932">
        <ele>51</ele>
        <time>2015-06-21T09:28:23Z</time>
      </trkpt>
      <trkpt lat="47.17325" lon="-1.93178">
        <ele>51</ele>
        <time>2015-06-21T09:28:28Z</time>
      </trkpt>
      <trkpt lat="47.17322" lon="-1.93154">
        <ele>51</ele>
        <time>2015-06-21T09:28:34Z</time>
      </trkpt>
      <trkpt lat="47.17321" lon="-1.93137">
        <ele>51</ele>
        <time>2015-06-21T09:28:38Z</time>
      </trkpt>
      <trkpt lat="47.17314" lon="-1.93099">
        <ele>51</ele>
        <time>2015-06-21T09:28:44Z</time>
      </trkpt>
      <trkpt lat="47.17304" lon="-1.93056">
        <ele>51</ele>
        <time>2015-06-21T09:28:49Z</time>
      </trkpt>
      <trkpt lat="47.17292" lon="-1.93007">
        <ele>51</ele>
        <time>2015-06-21T09:28:55Z</time>
      </trkpt>
      <trkpt lat="47.17286" lon="-1.92993">
        <ele>51</ele>
        <time>2015-06-21T09:28:58Z</time>
      </trkpt>
      <trkpt lat="47.17265" lon="-1.9294">
        <ele>51</ele>
        <time>2015-06-21T09:29:06Z</time>
      </trkpt>
      <trkpt lat="47.17255" lon="-1.92916">
        <ele>51</ele>
        <time>2015-06-21T09:29:10Z</time>
      </trkpt>
      <trkpt lat="47.17232" lon="-1.92878">
        <ele>51</ele>
        <time>2015-06-21T09:29:15Z</time>
      </trkpt>
      <trkpt lat="47.17242" lon="-1.92828">
        <ele>51</ele>
        <time>2015-06-21T09:29:22Z</time>
      </trkpt>
      <trkpt lat="47.17245" lon="-1.9282">
        <ele>51</ele>
        <time>2015-06-21T09:29:23Z</time>
      </trkpt>
      <trkpt lat="47.1727" lon="-1.92766">
        <ele>50</ele>
        <time>2015-06-21T09:29:30Z</time>
      </trkpt>
      <trkpt lat="47.17282" lon="-1.92735">
        <ele>50</ele>
        <time>2015-06-21T09:29:34Z</time>
      </trkpt>
      <trkpt lat="47.1729" lon="-1.92725">
        <ele>50</ele>
        <time>2015-06-21T09:29:40Z</time>
      </trkpt>
      <trkpt lat="47.17304" lon="-1.92731">
        <ele>50</ele>
        <time>2015-06-21T09:29:45Z</time>
      </trkpt>
      <trkpt lat="47.17319" lon="-1.92734">
        <ele>50</ele>
        <time>2015-06-21T09:29:49Z</time>
      </trkpt>
      <trkpt lat="47.17337" lon="-1.92743">
        <ele>50</ele>
        <time>2015-06-21T09:29:54Z</time>
      </trkpt>
      <trkpt lat="47.1735" lon="-1.92751">
        <ele>51</ele>
        <time>2015-06-21T09:29:58Z</time>
      </trkpt>
      <trkpt lat="47.1737" lon="-1.92756">
        <ele>51</ele>
        <time>2015-06-21T09:30:03Z</time>
      </trkpt>
      <trkpt lat="47.17392" lon="-1.92761">
        <ele>51</ele>
        <time>2015-06-21T09:30:08Z</time>
      </trkpt>
      <trkpt lat="47.17414" lon="-1.92767">
        <ele>51</ele>
        <time>2015-06-21T09:30:13Z</time>
      </trkpt>
      <trkpt lat="47.17436" lon="-1.92776">
        <ele>51</ele>
        <time>2015-06-21T09:30:18Z</time>
      </trkpt>
      <trkpt lat="47.17454" lon="-1.92786">
        <ele>51</ele>
        <time>2015-06-21T09:30:23Z</time>
      </trkpt>
      <trkpt lat="47.17472" lon="-1.92795">
        <ele>51</ele>
        <time>2015-06-21T09:30:28Z</time>
      </trkpt>
      <trkpt lat="47.17491" lon="-1.92806">
        <ele>51</ele>
        <time>2015-06-21T09:30:34Z</time>
      </trkpt>
      <trkpt lat="47.17511" lon="-1.92811">
        <ele>50</ele>
        <time>2015-06-21T09:30:39Z</time>
      </trkpt>
      <trkpt lat="47.17544" lon="-1.92815">
        <ele>51</ele>
        <time>2015-06-21T09:30:47Z</time>
      </trkpt>
      <trkpt lat="47.17547" lon="-1.92816">
        <ele>51</ele>
        <time>2015-06-21T09:30:48Z</time>
      </trkpt>
      <trkpt lat="47.1757" lon="-1.92816">
        <ele>51</ele>
        <time>2015-06-21T09:30:54Z</time>
      </trkpt>
      <trkpt lat="47.176" lon="-1.92816">
        <ele>51</ele>
        <time>2015-06-21T09:31:01Z</time>
      </trkpt>
      <trkpt lat="47.17608" lon="-1.92815">
        <ele>51</ele>
        <time>2015-06-21T09:31:03Z</time>
      </trkpt>
      <trkpt lat="47.17639" lon="-1.92814">
        <ele>51</ele>
        <time>2015-06-21T09:31:10Z</time>
      </trkpt>
      <trkpt lat="47.17652" lon="-1.92809">
        <ele>51</ele>
        <time>2015-06-21T09:31:13Z</time>
      </trkpt>
      <trkpt lat="47.17678" lon="-1.92808">
        <ele>50</ele>
        <time>2015-06-21T09:31:18Z</time>
      </trkpt>
      <trkpt lat="47.17709" lon="-1.92806">
        <ele>50</ele>
        <time>2015-06-21T09:31:25Z</time>
      </trkpt>
      <trkpt lat="47.1774" lon="-1.92803">
        <ele>49</ele>
        <time>2015-06-21T09:31:31Z</time>
      </trkpt>
      <trkpt lat="47.1775" lon="-1.92802">
        <ele>49</ele>
        <time>2015-06-21T09:31:33Z</time>
      </trkpt>
      <trkpt lat="47.17773" lon="-1.92799">
        <ele>49</ele>
        <time>2015-06-21T09:31:38Z</time>
      </trkpt>
      <trkpt lat="47.17802" lon="-1.9279">
        <ele>49</ele>
        <time>2015-06-21T09:31:43Z</time>
      </trkpt>
      <trkpt lat="47.17825" lon="-1.92786">
        <ele>48</ele>
        <time>2015-06-21T09:31:48Z</time>
      </trkpt>
      <trkpt lat="47.17864" lon="-1.92783">
        <ele>48</ele>
        <time>2015-06-21T09:31:56Z</time>
      </trkpt>
      <trkpt lat="47.17892" lon="-1.9278">
        <ele>47</ele>
        <time>2015-06-21T09:32:01Z</time>
      </trkpt>
      <trkpt lat="47.17906" lon="-1.92776">
        <ele>47</ele>
        <time>2015-06-21T09:32:03Z</time>
      </trkpt>
      <trkpt lat="47.17944" lon="-1.9278">
        <ele>46</ele>
        <time>2015-06-21T09:32:10Z</time>
      </trkpt>
      <trkpt lat="47.17954" lon="-1.92789">
        <ele>46</ele>
        <time>2015-06-21T09:32:14Z</time>
      </trkpt>
      <trkpt lat="47.17964" lon="-1.92789">
        <ele>46</ele>
        <time>2015-06-21T09:32:19Z</time>
      </trkpt>
      <trkpt lat="47.17983" lon="-1.9277">
        <ele>46</ele>
        <time>2015-06-21T09:32:25Z</time>
      </trkpt>
      <trkpt lat="47.17997" lon="-1.92758">
        <ele>45</ele>
        <time>2015-06-21T09:32:29Z</time>
      </trkpt>
      <trkpt lat="47.18011" lon="-1.92744">
        <ele>45</ele>
        <time>2015-06-21T09:32:33Z</time>
      </trkpt>
      <trkpt lat="47.18028" lon="-1.92727">
        <ele>45</ele>
        <time>2015-06-21T09:32:39Z</time>
      </trkpt>
      <trkpt lat="47.18037" lon="-1.92735">
        <ele>45</ele>
        <time>2015-06-21T09:32:43Z</time>
      </trkpt>
      <trkpt lat="47.18035" lon="-1.92765">
        <ele>45</ele>
        <time>2015-06-21T09:32:48Z</time>
      </trkpt>
      <trkpt lat="47.18035" lon="-1.92824">
        <ele>44</ele>
        <time>2015-06-21T09:32:55Z</time>
      </trkpt>
      <trkpt lat="47.18037" lon="-1.92875">
        <ele>43</ele>
        <time>2015-06-21T09:33:01Z</time>
      </trkpt>
      <trkpt lat="47.18034" lon="-1.92893">
        <ele>42</ele>
        <time>2015-06-21T09:33:04Z</time>
      </trkpt>
      <trkpt lat="47.18033" lon="-1.92949">
        <ele>42</ele>
        <time>2015-06-21T09:33:11Z</time>
      </trkpt>
      <trkpt lat="47.18034" lon="-1.92959">
        <ele>43</ele>
        <time>2015-06-21T09:33:13Z</time>
      </trkpt>
      <trkpt lat="47.1805" lon="-1.92977">
        <ele>43</ele>
        <time>2015-06-21T09:33:22Z</time>
      </trkpt>
      <trkpt lat="47.18053" lon="-1.92976">
        <ele>42</ele>
        <time>2015-06-21T09:33:23Z</time>
      </trkpt>
      <trkpt lat="47.1807" lon="-1.9297">
        <ele>42</ele>
        <time>2015-06-21T09:33:28Z</time>
      </trkpt>
      <trkpt lat="47.18082" lon="-1.92974">
        <ele>42</ele>
        <time>2015-06-21T09:33:33Z</time>
      </trkpt>
      <trkpt lat="47.18098" lon="-1.92975">
        <ele>41</ele>
        <time>2015-06-21T09:33:39Z</time>
      </trkpt>
      <trkpt lat="47.18108" lon="-1.92966">
        <ele>41</ele>
        <time>2015-06-21T09:33:43Z</time>
      </trkpt>
      <trkpt lat="47.18117" lon="-1.92954">
        <ele>41</ele>
        <time>2015-06-21T09:33:51Z</time>
      </trkpt>
      <trkpt lat="47.18118" lon="-1.92948">
        <ele>41</ele>
        <time>2015-06-21T09:33:53Z</time>
      </trkpt>
      <trkpt lat="47.18127" lon="-1.92935">
        <ele>41</ele>
        <time>2015-06-21T09:33:58Z</time>
      </trkpt>
      <trkpt lat="47.18149" lon="-1.92926">
        <ele>41</ele>
        <time>2015-06-21T09:34:07Z</time>
      </trkpt>
      <trkpt lat="47.18156" lon="-1.92923">
        <ele>41</ele>
        <time>2015-06-21T09:34:09Z</time>
      </trkpt>
      <trkpt lat="47.18165" lon="-1.92919">
        <ele>41</ele>
        <time>2015-06-21T09:34:13Z</time>
      </trkpt>
      <trkpt lat="47.1819" lon="-1.92913">
        <ele>42</ele>
        <time>2015-06-21T09:34:21Z</time>
      </trkpt>
      <trkpt lat="47.182" lon="-1.9291">
        <ele>42</ele>
        <time>2015-06-21T09:34:24Z</time>
      </trkpt>
      <trkpt lat="47.18222" lon="-1.92905">
        <ele>42</ele>
        <time>2015-06-21T09:34:31Z</time>
      </trkpt>
      <trkpt lat="47.18227" lon="-1.92905">
        <ele>42</ele>
        <time>2015-06-21T09:34:33Z</time>
      </trkpt>
      <trkpt lat="47.18243" lon="-1.92901">
        <ele>43</ele>
        <time>2015-06-21T09:34:38Z</time>
      </trkpt>
      <trkpt lat="47.18269" lon="-1.92891">
        <ele>43</ele>
        <time>2015-06-21T09:34:45Z</time>
      </trkpt>
      <trkpt lat="47.18279" lon="-1.92881">
        <ele>44</ele>
        <time>2015-06-21T09:34:48Z</time>
      </trkpt>
      <trkpt lat="47.18278" lon="-1.92849">
        <ele>44</ele>
        <time>2015-06-21T09:34:53Z</time>
      </trkpt>
      <trkpt lat="47.18264" lon="-1.92812">
        <ele>44</ele>
        <time>2015-06-21T09:34:58Z</time>
      </trkpt>
      <trkpt lat="47.18245" lon="-1.92795">
        <ele>45</ele>
        <time>2015-06-21T09:35:03Z</time>
      </trkpt>
      <trkpt lat="47.18218" lon="-1.92776">
        <ele>45</ele>
        <time>2015-06-21T09:35:08Z</time>
      </trkpt>
      <trkpt lat="47.18176" lon="-1.92753">
        <ele>46</ele>
        <time>2015-06-21T09:35:15Z</time>
      </trkpt>
      <trkpt lat="47.18148" lon="-1.92743">
        <ele>46</ele>
        <time>2015-06-21T09:35:20Z</time>
      </trkpt>
      <trkpt lat="47.1813" lon="-1.92736">
        <ele>46</ele>
        <time>2015-06-21T09:35:23Z</time>
      </trkpt>
      <trkpt lat="47.18098" lon="-1.92726">
        <ele>46</ele>
        <time>2015-06-21T09:35:29Z</time>
      </trkpt>
      <trkpt lat="47.18075" lon="-1.92722">
        <ele>46</ele>
        <time>2015-06-21T09:35:33Z</time>
      </trkpt>
      <trkpt lat="47.18035" lon="-1.92701">
        <ele>46</ele>
        <time>2015-06-21T09:35:41Z</time>
      </trkpt>
      <trkpt lat="47.18025" lon="-1.92691">
        <ele>46</ele>
        <time>2015-06-21T09:35:43Z</time>
      </trkpt>
      <trkpt lat="47.18011" lon="-1.92657">
        <ele>46</ele>
        <time>2015-06-21T09:35:48Z</time>
      </trkpt>
      <trkpt lat="47.18002" lon="-1.92622">
        <ele>47</ele>
        <time>2015-06-21T09:35:53Z</time>
      </trkpt>
      <trkpt lat="47.17998" lon="-1.92565">
        <ele>47</ele>
        <time>2015-06-21T09:36:00Z</time>
      </trkpt>
      <trkpt lat="47.17998" lon="-1.92539">
        <ele>47</ele>
        <time>2015-06-21T09:36:03Z</time>
      </trkpt>
      <trkpt lat="47.18002" lon="-1.92477">
        <ele>47</ele>
        <time>2015-06-21T09:36:10Z</time>
      </trkpt>
      <trkpt lat="47.18005" lon="-1.92403">
        <ele>47</ele>
        <time>2015-06-21T09:36:17Z</time>
      </trkpt>
      <trkpt lat="47.18002" lon="-1.92366">
        <ele>46</ele>
        <time>2015-06-21T09:36:21Z</time>
      </trkpt>
      <trkpt lat="47.18001" lon="-1.92343">
        <ele>46</ele>
        <time>2015-06-21T09:36:23Z</time>
      </trkpt>
      <trkpt lat="47.17992" lon="-1.92262">
        <ele>46</ele>
        <time>2015-06-21T09:36:31Z</time>
      </trkpt>
      <trkpt lat="47.17986" lon="-1.9221">
        <ele>45</ele>
        <time>2015-06-21T09:36:36Z</time>
      </trkpt>
      <trkpt lat="47.17977" lon="-1.92182">
        <ele>45</ele>
        <time>2015-06-21T09:36:39Z</time>
      </trkpt>
      <trkpt lat="47.17953" lon="-1.92135">
        <ele>45</ele>
        <time>2015-06-21T09:36:45Z</time>
      </trkpt>
      <trkpt lat="47.17931" lon="-1.92116">
        <ele>45</ele>
        <time>2015-06-21T09:36:49Z</time>
      </trkpt>
      <trkpt lat="47.17896" lon="-1.92141">
        <ele>46</ele>
        <time>2015-06-21T09:36:56Z</time>
      </trkpt>
      <trkpt lat="47.1788" lon="-1.92146">
        <ele>47</ele>
        <time>2015-06-21T09:36:59Z</time>
      </trkpt>
      <trkpt lat="47.17844" lon="-1.92128">
        <ele>47</ele>
        <time>2015-06-21T09:37:06Z</time>
      </trkpt>
      <trkpt lat="47.17836" lon="-1.92122">
        <ele>47</ele>
        <time>2015-06-21T09:37:09Z</time>
      </trkpt>
      <trkpt lat="47.17823" lon="-1.9212">
        <ele>47</ele>
        <time>2015-06-21T09:37:14Z</time>
      </trkpt>
      <trkpt lat="47.17795" lon="-1.92111">
        <ele>48</ele>
        <time>2015-06-21T09:37:19Z</time>
      </trkpt>
      <trkpt lat="47.1777" lon="-1.92136">
        <ele>49</ele>
        <time>2015-06-21T09:37:27Z</time>
      </trkpt>
      <trkpt lat="47.17767" lon="-1.92142">
        <ele>49</ele>
        <time>2015-06-21T09:37:29Z</time>
      </trkpt>
      <trkpt lat="47.1773" lon="-1.92155">
        <ele>49</ele>
        <time>2015-06-21T09:37:37Z</time>
      </trkpt>
      <trkpt lat="47.17706" lon="-1.92163">
        <ele>49</ele>
        <time>2015-06-21T09:37:42Z</time>
      </trkpt>
      <trkpt lat="47.17699" lon="-1.92165">
        <ele>49</ele>
        <time>2015-06-21T09:37:44Z</time>
      </trkpt>
      <trkpt lat="47.17671" lon="-1.92172">
        <ele>47</ele>
        <time>2015-06-21T09:37:49Z</time>
      </trkpt>
      <trkpt lat="47.17639" lon="-1.92172">
        <ele>44</ele>
        <time>2015-06-21T09:37:54Z</time>
      </trkpt>
      <trkpt lat="47.17599" lon="-1.92168">
        <ele>43</ele>
        <time>2015-06-21T09:38:00Z</time>
      </trkpt>
      <trkpt lat="47.17562" lon="-1.92159">
        <ele>42</ele>
        <time>2015-06-21T09:38:04Z</time>
      </trkpt>
      <trkpt lat="47.17544" lon="-1.92182">
        <ele>42</ele>
        <time>2015-06-21T09:38:10Z</time>
      </trkpt>
      <trkpt lat="47.17533" lon="-1.92227">
        <ele>43</ele>
        <time>2015-06-21T09:38:14Z</time>
      </trkpt>
      <trkpt lat="47.17516" lon="-1.92274">
        <ele>43</ele>
        <time>2015-06-21T09:38:19Z</time>
      </trkpt>
      <trkpt lat="47.17489" lon="-1.92328">
        <ele>43</ele>
        <time>2015-06-21T09:38:28Z</time>
      </trkpt>
      <trkpt lat="47.17477" lon="-1.92359">
        <ele>44</ele>
        <time>2015-06-21T09:38:32Z</time>
      </trkpt>
      <trkpt lat="47.17465" lon="-1.92381">
        <ele>44</ele>
        <time>2015-06-21T09:38:36Z</time>
      </trkpt>
      <trkpt lat="47.17442" lon="-1.92394">
        <ele>44</ele>
        <time>2015-06-21T09:38:41Z</time>
      </trkpt>
      <trkpt lat="47.17425" lon="-1.92377">
        <ele>43</ele>
        <time>2015-06-21T09:38:44Z</time>
      </trkpt>
      <trkpt lat="47.17402" lon="-1.92331">
        <ele>43</ele>
        <time>2015-06-21T09:38:49Z</time>
      </trkpt>
      <trkpt lat="47.17383" lon="-1.92285">
        <ele>42</ele>
        <time>2015-06-21T09:38:54Z</time>
      </trkpt>
      <trkpt lat="47.1734" lon="-1.92209">
        <ele>40</ele>
        <time>2015-06-21T09:39:03Z</time>
      </trkpt>
      <trkpt lat="47.17337" lon="-1.922">
        <ele>40</ele>
        <time>2015-06-21T09:39:04Z</time>
      </trkpt>
      <trkpt lat="47.17313" lon="-1.92159">
        <ele>40</ele>
        <time>2015-06-21T09:39:09Z</time>
      </trkpt>
      <trkpt lat="47.17335" lon="-1.92123">
        <ele>39</ele>
        <time>2015-06-21T09:39:14Z</time>
      </trkpt>
      <trkpt lat="47.17338" lon="-1.92068">
        <ele>40</ele>
        <time>2015-06-21T09:39:20Z</time>
      </trkpt>
      <trkpt lat="47.17325" lon="-1.92015">
        <ele>41</ele>
        <time>2015-06-21T09:39:26Z</time>
      </trkpt>
      <trkpt lat="47.17319" lon="-1.91983">
        <ele>41</ele>
        <time>2015-06-21T09:39:30Z</time>
      </trkpt>
      <trkpt lat="47.17317" lon="-1.91955">
        <ele>42</ele>
        <time>2015-06-21T09:39:34Z</time>
      </trkpt>
      <trkpt lat="47.17314" lon="-1.91916">
        <ele>43</ele>
        <time>2015-06-21T09:39:40Z</time>
      </trkpt>
      <trkpt lat="47.17312" lon="-1.91889">
        <ele>44</ele>
        <time>2015-06-21T09:39:44Z</time>
      </trkpt>
      <trkpt lat="47.17314" lon="-1.91838">
        <ele>46</ele>
        <time>2015-06-21T09:39:52Z</time>
      </trkpt>
      <trkpt lat="47.17314" lon="-1.91807">
        <ele>46</ele>
        <time>2015-06-21T09:39:56Z</time>
      </trkpt>
      <trkpt lat="47.17325" lon="-1.91778">
        <ele>46</ele>
        <time>2015-06-21T09:40:00Z</time>
      </trkpt>
      <trkpt lat="47.17355" lon="-1.91749">
        <ele>44</ele>
        <time>2015-06-21T09:40:07Z</time>
      </trkpt>
      <trkpt lat="47.17363" lon="-1.91719">
        <ele>42</ele>
        <time>2015-06-21T09:40:10Z</time>
      </trkpt>
      <trkpt lat="47.17397" lon="-1.91704">
        <ele>40</ele>
        <time>2015-06-21T09:40:16Z</time>
      </trkpt>
      <trkpt lat="47.17417" lon="-1.91695">
        <ele>39</ele>
        <time>2015-06-21T09:40:20Z</time>
      </trkpt>
      <trkpt lat="47.17413" lon="-1.91662">
        <ele>38</ele>
        <time>2015-06-21T09:40:28Z</time>
      </trkpt>
      <trkpt lat="47.17411" lon="-1.91658">
        <ele>38</ele>
        <time>2015-06-21T09:40:30Z</time>
      </trkpt>
      <trkpt lat="47.1741" lon="-1.91614">
        <ele>38</ele>
        <time>2015-06-21T09:40:38Z</time>
      </trkpt>
      <trkpt lat="47.1741" lon="-1.91599">
        <ele>39</ele>
        <time>2015-06-21T09:40:41Z</time>
      </trkpt>
      <trkpt lat="47.17409" lon="-1.91561">
        <ele>41</ele>
        <time>2015-06-21T09:40:48Z</time>
      </trkpt>
      <trkpt lat="47.17408" lon="-1.91552">
        <ele>42</ele>
        <time>2015-06-21T09:40:50Z</time>
      </trkpt>
      <trkpt lat="47.17404" lon="-1.9153">
        <ele>43</ele>
        <time>2015-06-21T09:40:55Z</time>
      </trkpt>
      <trkpt lat="47.17391" lon="-1.91506">
        <ele>45</ele>
        <time>2015-06-21T09:41:01Z</time>
      </trkpt>
      <trkpt lat="47.17378" lon="-1.91499">
        <ele>45</ele>
        <time>2015-06-21T09:41:06Z</time>
      </trkpt>
      <trkpt lat="47.17369" lon="-1.91482">
        <ele>45</ele>
        <time>2015-06-21T09:41:10Z</time>
      </trkpt>
      <trkpt lat="47.17367" lon="-1.91434">
        <ele>47</ele>
        <time>2015-06-21T09:41:18Z</time>
      </trkpt>
      <trkpt lat="47.17363" lon="-1.91417">
        <ele>47</ele>
        <time>2015-06-21T09:41:21Z</time>
      </trkpt>
      <trkpt lat="47.17359" lon="-1.91392">
        <ele>48</ele>
        <time>2015-06-21T09:41:25Z</time>
      </trkpt>
      <trkpt lat="47.17353" lon="-1.91362">
        <ele>48</ele>
        <time>2015-06-21T09:41:30Z</time>
      </trkpt>
      <trkpt lat="47.1735" lon="-1.91334">
        <ele>48</ele>
        <time>2015-06-21T09:41:35Z</time>
      </trkpt>
      <trkpt lat="47.17346" lon="-1.91294">
        <ele>49</ele>
        <time>2015-06-21T09:41:43Z</time>
      </trkpt>
      <trkpt lat="47.17341" lon="-1.91263">
        <ele>49</ele>
        <time>2015-06-21T09:41:49Z</time>
      </trkpt>
      <trkpt lat="47.17338" lon="-1.91257">
        <ele>49</ele>
        <time>2015-06-21T09:41:50Z</time>
      </trkpt>
      <trkpt lat="47.17323" lon="-1.91231">
        <ele>50</ele>
        <time>2015-06-21T09:41:55Z</time>
      </trkpt>
      <trkpt lat="47.1731" lon="-1.91203">
        <ele>50</ele>
        <time>2015-06-21T09:42:00Z</time>
      </trkpt>
      <trkpt lat="47.17296" lon="-1.91158">
        <ele>52</ele>
        <time>2015-06-21T09:42:06Z</time>
      </trkpt>
      <trkpt lat="47.17288" lon="-1.91115">
        <ele>52</ele>
        <time>2015-06-21T09:42:14Z</time>
      </trkpt>
      <trkpt lat="47.1729" lon="-1.91112">
        <ele>53</ele>
        <time>2015-06-21T09:42:15Z</time>
      </trkpt>
      <trkpt lat="47.17311" lon="-1.91108">
        <ele>53</ele>
        <time>2015-06-21T09:42:20Z</time>
      </trkpt>
      <trkpt lat="47.17343" lon="-1.91097">
        <ele>52</ele>
        <time>2015-06-21T09:42:26Z</time>
      </trkpt>
      <trkpt lat="47.17372" lon="-1.91089">
        <ele>52</ele>
        <time>2015-06-21T09:42:31Z</time>
      </trkpt>
      <trkpt lat="47.174" lon="-1.91085">
        <ele>50</ele>
        <time>2015-06-21T09:42:35Z</time>
      </trkpt>
      <trkpt lat="47.17433" lon="-1.91073">
        <ele>49</ele>
        <time>2015-06-21T09:42:40Z</time>
      </trkpt>
      <trkpt lat="47.17446" lon="-1.91006">
        <ele>49</ele>
        <time>2015-06-21T09:42:46Z</time>
      </trkpt>
      <trkpt lat="47.17483" lon="-1.90979">
        <ele>48</ele>
        <time>2015-06-21T09:42:53Z</time>
      </trkpt>
      <trkpt lat="47.17512" lon="-1.90986">
        <ele>48</ele>
        <time>2015-06-21T09:42:57Z</time>
      </trkpt>
      <trkpt lat="47.17531" lon="-1.90981">
        <ele>48</ele>
        <time>2015-06-21T09:43:00Z</time>
      </trkpt>
      <trkpt lat="47.1758" lon="-1.90976">
        <ele>47</ele>
        <time>2015-06-21T09:43:09Z</time>
      </trkpt>
      <trkpt lat="47.17582" lon="-1.90984">
        <ele>47</ele>
        <time>2015-06-21T09:43:10Z</time>
      </trkpt>
      <trkpt lat="47.17599" lon="-1.91047">
        <ele>44</ele>
        <time>2015-06-21T09:43:17Z</time>
      </trkpt>
      <trkpt lat="47.17619" lon="-1.91112">
        <ele>40</ele>
        <time>2015-06-21T09:43:24Z</time>
      </trkpt>
      <trkpt lat="47.17621" lon="-1.91118">
        <ele>40</ele>
        <time>2015-06-21T09:43:25Z</time>
      </trkpt>
      <trkpt lat="47.17624" lon="-1.91178">
        <ele>38</ele>
        <time>2015-06-21T09:43:31Z</time>
      </trkpt>
      <trkpt lat="47.17639" lon="-1.91238">
        <ele>39</ele>
        <time>2015-06-21T09:43:38Z</time>
      </trkpt>
      <trkpt lat="47.17669" lon="-1.91247">
        <ele>37</ele>
        <time>2015-06-21T09:43:43Z</time>
      </trkpt>
      <trkpt lat="47.17681" lon="-1.91256">
        <ele>36</ele>
        <time>2015-06-21T09:43:45Z</time>
      </trkpt>
      <trkpt lat="47.17712" lon="-1.91265">
        <ele>33</ele>
        <time>2015-06-21T09:43:50Z</time>
      </trkpt>
      <trkpt lat="47.17764" lon="-1.91283">
        <ele>30</ele>
        <time>2015-06-21T09:43:58Z</time>
      </trkpt>
      <trkpt lat="47.1778" lon="-1.91296">
        <ele>29</ele>
        <time>2015-06-21T09:44:01Z</time>
      </trkpt>
      <trkpt lat="47.17832" lon="-1.91299">
        <ele>27</ele>
        <time>2015-06-21T09:44:09Z</time>
      </trkpt>
      <trkpt lat="47.17837" lon="-1.91299">
        <ele>28</ele>
        <time>2015-06-21T09:44:11Z</time>
      </trkpt>
      <trkpt lat="47.1785" lon="-1.91288">
        <ele>28</ele>
        <time>2015-06-21T09:44:16Z</time>
      </trkpt>
      <trkpt lat="47.17856" lon="-1.91266">
        <ele>30</ele>
        <time>2015-06-21T09:44:21Z</time>
      </trkpt>
      <trkpt lat="47.17865" lon="-1.91234">
        <ele>32</ele>
        <time>2015-06-21T09:44:26Z</time>
      </trkpt>
      <trkpt lat="47.17879" lon="-1.91211">
        <ele>34</ele>
        <time>2015-06-21T09:44:31Z</time>
      </trkpt>
      <trkpt lat="47.17886" lon="-1.91201">
        <ele>35</ele>
        <time>2015-06-21T09:44:35Z</time>
      </trkpt>
      <trkpt lat="47.17903" lon="-1.91183">
        <ele>36</ele>
        <time>2015-06-21T09:44:42Z</time>
      </trkpt>
      <trkpt lat="47.17913" lon="-1.91176">
        <ele>37</ele>
        <time>2015-06-21T09:44:47Z</time>
      </trkpt>
      <trkpt lat="47.17921" lon="-1.9117">
        <ele>38</ele>
        <time>2015-06-21T09:44:51Z</time>
      </trkpt>
      <trkpt lat="47.17933" lon="-1.91159">
        <ele>38</ele>
        <time>2015-06-21T09:44:56Z</time>
      </trkpt>
      <trkpt lat="47.17945" lon="-1.91145">
        <ele>39</ele>
        <time>2015-06-21T09:45:01Z</time>
      </trkpt>
      <trkpt lat="47.17965" lon="-1.91147">
        <ele>40</ele>
        <time>2015-06-21T09:45:09Z</time>
      </trkpt>
      <trkpt lat="47.17971" lon="-1.91154">
        <ele>40</ele>
        <time>2015-06-21T09:45:11Z</time>
      </trkpt>
      <trkpt lat="47.17984" lon="-1.9118">
        <ele>41</ele>
        <time>2015-06-21T09:45:17Z</time>
      </trkpt>
      <trkpt lat="47.1798" lon="-1.91187">
        <ele>40</ele>
        <time>2015-06-21T09:45:22Z</time>
      </trkpt>
      <trkpt lat="47.17966" lon="-1.91194">
        <ele>40</ele>
        <time>2015-06-21T09:45:25Z</time>
      </trkpt>
      <trkpt lat="47.17937" lon="-1.91212">
        <ele>38</ele>
        <time>2015-06-21T09:45:32Z</time>
      </trkpt>
      <trkpt lat="47.17918" lon="-1.91216">
        <ele>37</ele>
        <time>2015-06-21T09:45:35Z</time>
      </trkpt>
      <trkpt lat="47.17905" lon="-1.91248">
        <ele>36</ele>
        <time>2015-06-21T09:45:41Z</time>
      </trkpt>
      <trkpt lat="47.17899" lon="-1.91276">
        <ele>35</ele>
        <time>2015-06-21T09:45:45Z</time>
      </trkpt>
      <trkpt lat="47.17888" lon="-1.91271">
        <ele>34</ele>
        <time>2015-06-21T09:45:51Z</time>
      </trkpt>
      <trkpt lat="47.17862" lon="-1.91284">
        <ele>30</ele>
        <time>2015-06-21T09:45:58Z</time>
      </trkpt>
      <trkpt lat="47.17859" lon="-1.9129">
        <ele>29</ele>
        <time>2015-06-21T09:46:01Z</time>
      </trkpt>
      <trkpt lat="47.17839" lon="-1.91303">
        <ele>28</ele>
        <time>2015-06-21T09:46:07Z</time>
      </trkpt>
      <trkpt lat="47.17834" lon="-1.91322">
        <ele>28</ele>
        <time>2015-06-21T09:46:11Z</time>
      </trkpt>
      <trkpt lat="47.17825" lon="-1.91313">
        <ele>28</ele>
        <time>2015-06-21T09:46:15Z</time>
      </trkpt>
      <trkpt lat="47.17796" lon="-1.9131">
        <ele>29</ele>
        <time>2015-06-21T09:46:24Z</time>
      </trkpt>
      <trkpt lat="47.17791" lon="-1.91308">
        <ele>29</ele>
        <time>2015-06-21T09:46:25Z</time>
      </trkpt>
      <trkpt lat="47.17776" lon="-1.91289">
        <ele>29</ele>
        <time>2015-06-21T09:46:30Z</time>
      </trkpt>
      <trkpt lat="47.17753" lon="-1.91284">
        <ele>30</ele>
        <time>2015-06-21T09:46:35Z</time>
      </trkpt>
      <trkpt lat="47.17731" lon="-1.91279">
        <ele>31</ele>
        <time>2015-06-21T09:46:41Z</time>
      </trkpt>
      <trkpt lat="47.17714" lon="-1.91279">
        <ele>32</ele>
        <time>2015-06-21T09:46:46Z</time>
      </trkpt>
      <trkpt lat="47.17702" lon="-1.91282">
        <ele>33</ele>
        <time>2015-06-21T09:46:51Z</time>
      </trkpt>
      <trkpt lat="47.17694" lon="-1.91293">
        <ele>33</ele>
        <time>2015-06-21T09:46:55Z</time>
      </trkpt>
      <trkpt lat="47.17701" lon="-1.91346">
        <ele>33</ele>
        <time>2015-06-21T09:47:03Z</time>
      </trkpt>
      <trkpt lat="47.17716" lon="-1.91361">
        <ele>33</ele>
        <time>2015-06-21T09:47:06Z</time>
      </trkpt>
      <trkpt lat="47.17743" lon="-1.91363">
        <ele>33</ele>
        <time>2015-06-21T09:47:12Z</time>
      </trkpt>
      <trkpt lat="47.17776" lon="-1.91338">
        <ele>31</ele>
        <time>2015-06-21T09:47:19Z</time>
      </trkpt>
      <trkpt lat="47.17779" lon="-1.91338">
        <ele>31</ele>
        <time>2015-06-21T09:47:20Z</time>
      </trkpt>
      <trkpt lat="47.17793" lon="-1.91375">
        <ele>34</ele>
        <time>2015-06-21T09:47:28Z</time>
      </trkpt>
      <trkpt lat="47.17803" lon="-1.91384">
        <ele>34</ele>
        <time>2015-06-21T09:47:31Z</time>
      </trkpt>
      <trkpt lat="47.17818" lon="-1.91398">
        <ele>34</ele>
        <time>2015-06-21T09:47:36Z</time>
      </trkpt>
      <trkpt lat="47.1783" lon="-1.91411">
        <ele>34</ele>
        <time>2015-06-21T09:47:40Z</time>
      </trkpt>
      <trkpt lat="47.17853" lon="-1.91467">
        <ele>34</ele>
        <time>2015-06-21T09:47:49Z</time>
      </trkpt>
      <trkpt lat="47.17854" lon="-1.91483">
        <ele>35</ele>
        <time>2015-06-21T09:47:51Z</time>
      </trkpt>
      <trkpt lat="47.17854" lon="-1.91514">
        <ele>35</ele>
        <time>2015-06-21T09:47:58Z</time>
      </trkpt>
      <trkpt lat="47.17854" lon="-1.91522">
        <ele>36</ele>
        <time>2015-06-21T09:48:01Z</time>
      </trkpt>
      <trkpt lat="47.17858" lon="-1.91553">
        <ele>35</ele>
        <time>2015-06-21T09:48:09Z</time>
      </trkpt>
      <trkpt lat="47.17861" lon="-1.91563">
        <ele>34</ele>
        <time>2015-06-21T09:48:11Z</time>
      </trkpt>
      <trkpt lat="47.17867" lon="-1.91585">
        <ele>34</ele>
        <time>2015-06-21T09:48:16Z</time>
      </trkpt>
      <trkpt lat="47.17868" lon="-1.91583">
        <ele>34</ele>
        <time>2015-06-21T09:48:20Z</time>
      </trkpt>
      <trkpt lat="47.17868" lon="-1.91582">
        <ele>34</ele>
        <time>2015-06-21T09:48:25Z</time>
      </trkpt>
      <trkpt lat="47.17868" lon="-1.91579">
        <ele>34</ele>
        <time>2015-06-21T09:48:30Z</time>
      </trkpt>
      <trkpt lat="47.17868" lon="-1.91581">
        <ele>34</ele>
        <time>2015-06-21T09:48:35Z</time>
      </trkpt>
    </trkseg>
  </trk>
</gpx>